[[{"header":{"parameterUnit":"m.s-1","parameterCategory":1,"la1":31.0,"la2":29.5877,"lo1":-88.7671,"lo2":-86.6584,"dy":0.0162,"dx":0.0185,"nx":115,"ny":88,"refTime":"2023-06-24T12:00:00:Z","depth":0,"parameterNumber":2,"parameterNumberName":"U-component_of_WINDS"},"data":[0.0,0.0,0.0,0.0,0.0,0.0,0.0,0.0,0.0,0.0,0.0,0.0,0.0,0.0,0.0,0.0,0.0,0.0,0.0,0.0,0.0,0.0,0.0,0.0,0.0,0.0,0.0,0.0,0.0,0.0,0.0,0.0,0.0,0.0,0.0,0.0,0.0,0.0,0.0,0.0,0.0,0.0,0.0,0.0,0.0,0.0,0.0,0.0,0.0,0.0,0.0,0.0,0.0,0.0,0.0,0.0,0.0,0.0,0.0,0.0,0.0,0.0,0.0,0.0,0.0,0.0,0.0,0.0,0.0,0.0,0.0,0.0,0.0,0.0,0.0,0.0,0.0,0.0,0.0,0.0,0.0,0.0,0.0,0.0,0.0,0.0,0.0,0.0,0.0,0.0,0.0,0.0,0.0,0.0,0.0,0.0,0.0,0.0,0.0,0.0,0.0,0.0,0.0,0.0,0.0,0.0,0.0,0.0,0.0,0.0,0.0,0.0,0.0,0.0,0.0,0.0,0.0,0.0,0.0,0.0,0.0,0.0,0.0,0.0,0.0,0.0,0.0,0.0,0.0,0.0,0.0,0.0,0.0,0.0,0.0,0.0,0.0,0.0,0.0,0.0,0.0,0.0,0.0,0.0,0.0,0.0,0.0,0.0,0.0,0.0,0.0,0.0,0.0,0.0,0.0,0.0,0.0,0.0,0.0,0.0,0.0,0.0,0.0,0.0,0.0,0.0,0.0,0.0,0.0,0.0,0.0,0.0,0.0,0.0,0.0,0.0,0.0,0.0,0.0,0.0,0.0,0.0,0.0,0.0,0.0,0.0,0.0,0.0,0.0,0.0,0.0,0.0,0.0,0.0,0.0,0.0,0.0,0.0,0.0,0.0,0.0,0.0,0.0,0.0,0.0,0.0,0.0,0.0,0.0,0.0,0.0,0.0,0.0,0.0,0.0,0.0,0.0,0.0,0.0,0.0,0.0,0.0,0.0,0.0,0.0,0.0,0.0,0.0,0.0,0.0,0.0,0.0,0.0,0.0,0.0,0.0,0.0,0.0,0.0,0.0,0.0,0.0,0.0,0.0,0.0,0.0,0.0,0.0,0.0,0.0,0.0,0.0,0.0,0.0,0.0,0.0,0.0,0.0,0.0,0.0,0.0,0.0,0.0,0.0,0.0,0.0,0.0,0.0,0.0,0.0,0.0,0.0,0.0,0.0,0.0,0.0,0.0,0.0,0.0,0.0,0.0,0.0,0.0,0.0,0.0,0.0,0.0,0.0,0.0,0.0,0.0,0.0,0.0,0.0,0.0,0.0,0.0,0.0,0.0,0.0,0.0,0.0,0.0,0.0,0.0,0.0,0.0,0.0,0.0,0.0,0.0,0.0,0.0,0.0,0.0,0.0,0.0,0.0,0.0,0.0,0.0,0.0,0.0,0.0,0.0,0.0,0.0,0.0,0.0,0.0,0.0,0.0,0.0,0.0,0.0,0.0,0.0,0.0,0.0,0.0,0.0,0.0,0.0,0.0,0.0,0.0,0.0,0.0,0.0,0.0,0.0,0.0,0.0,0.0,0.0,0.0,0.0,0.0,0.0,0.0,0.0,0.0,0.0,0.0,0.0,0.0,0.0,0.0,0.0,0.0,0.0,0.0,0.0,0.0,0.0,0.0,0.0,0.0,0.0,0.0,0.0,0.0,0.0,0.0,0.0,0.0,0.0,0.0,0.0,0.0,0.0,0.0,0.0,0.0,0.0,0.0,0.0,0.0,0.0,0.0,0.0,0.0,0.0,0.0,0.0,0.0,0.0,0.0,0.0,0.0,0.0,0.0,0.0,0.0,0.0,0.0,0.0,0.0,0.0,0.0,0.0,0.0,0.0,0.0,0.0,0.0,0.0,0.0,0.0,0.0,0.0,0.0,0.0,0.0,0.0,0.0,0.0,0.0,0.0,0.0,0.0,0.0,0.0,0.0,0.0,0.0,0.0,0.0,0.0,0.0,0.0,0.0,0.0,0.0,0.0,0.0,0.0,0.0,0.0,0.0,0.0,0.0,0.0,0.0,0.0,0.0,0.0,0.0,0.0,0.0,0.0,0.0,0.0,0.0,0.0,0.0,0.0,0.0,0.0,0.0,0.0,0.0,0.0,0.0,0.0,0.0,0.0,0.0,0.0,0.0,0.0,0.0,0.0,0.0,0.0,0.0,0.0,0.0,0.0,0.0,0.0,0.0,0.0,0.0,0.0,0.0,0.0,0.0,0.0,0.0,0.0,0.0,0.0,0.0,0.0,0.0,0.0,0.0,0.0,0.0,0.0,0.0,0.0,0.0,0.0,0.0,0.0,0.0,0.0,0.0,0.0,0.0,0.0,0.0,0.0,0.0,0.0,0.0,0.0,0.0,0.0,0.0,0.0,0.0,0.0,0.0,0.0,0.0,0.0,0.0,0.0,0.0,0.0,0.0,0.0,0.0,0.0,0.0,0.0,0.0,0.0,0.0,0.0,0.0,0.0,0.0,0.0,0.0,0.0,0.0,0.0,0.0,0.0,0.0,0.0,0.0,0.0,0.0,0.0,0.0,0.0,0.0,0.0,0.0,0.0,0.0,0.0,0.0,0.0,0.0,0.0,0.0,0.0,0.0,0.0,0.0,0.0,0.0,0.0,0.0,0.0,0.0,0.0,0.0,0.0,0.0,0.0,0.0,0.0,0.0,0.0,0.0,0.0,0.0,0.0,0.0,0.0,0.0,0.0,0.0,0.0,0.0,0.0,0.0,0.0,0.0,0.0,0.0,0.0,0.0,0.0,0.0,0.0,0.0,0.0,0.0,0.0,0.0,0.0,0.0,0.0,0.0,0.0,0.0,0.0,0.0,0.0,0.0,0.0,0.0,0.0,0.0,0.0,0.0,0.0,0.0,0.0,0.0,0.0,0.0,0.0,0.0,0.0,0.0,0.0,0.0,0.0,0.0,0.0,0.0,0.0,0.0,0.0,0.0,0.0,0.0,0.0,0.0,0.0,0.0,0.0,0.0,0.0,0.0,0.0,0.0,0.0,0.0,0.0,0.0,0.0,0.0,0.0,0.0,0.0,0.0,0.0,0.0,0.0,0.0,0.0,0.0,0.0,0.0,0.0,0.0,0.0,0.0,0.0,0.0,0.0,0.0,0.0,0.0,0.0,0.0,0.0,0.0,0.0,0.0,0.0,0.0,0.0,0.0,0.0,0.0,0.0,0.0,0.0,0.0,0.0,0.0,0.0,0.0,0.0,0.0,0.0,0.0,0.0,0.0,0.0,0.0,0.0,0.0,0.0,0.0,0.0,0.0,0.0,0.0,0.0,0.0,0.0,0.0,0.0,0.0,0.0,0.0,0.0,0.0,0.0,0.0,0.0,0.0,0.0,0.0,0.0,0.0,0.0,0.0,0.0,0.0,0.0,0.0,0.0,0.0,0.0,0.0,0.0,0.0,0.0,0.0,0.0,0.0,0.0,0.0,0.0,0.0,0.0,0.0,0.0,0.0,0.0,0.0,0.0,0.0,0.0,0.0,0.0,0.0,0.0,0.0,0.0,0.0,0.0,0.0,0.0,0.0,0.0,0.0,0.0,0.0,0.0,0.0,0.0,0.0,0.0,0.0,0.0,0.0,0.0,0.0,0.0,0.0,0.0,0.0,0.0,0.0,0.0,0.0,0.0,0.0,0.0,0.0,0.0,0.0,0.0,0.0,0.0,0.0,0.0,0.0,0.0,0.0,0.0,0.0,0.0,0.0,0.0,0.0,0.0,0.0,0.0,0.0,0.0,0.0,0.0,0.0,0.0,0.0,0.0,0.0,0.0,0.0,0.0,0.0,0.0,0.0,0.0,0.0,0.0,0.0,0.0,0.0,0.0,0.0,0.0,0.0,0.0,0.0,0.0,0.0,0.0,0.0,0.0,0.0,0.0,0.0,0.0,0.0,0.0,0.0,0.0,0.0,0.0,0.0,0.0,0.0,0.0,0.0,0.0,0.0,0.0,0.0,0.0,0.0,0.0,0.0,0.0,0.0,0.0,0.0,0.0,0.0,0.0,0.0,0.0,0.0,0.0,0.0,0.0,0.0,0.0,0.0,0.0,0.0,0.0,0.0,0.0,0.0,0.0,0.0,0.0,0.0,0.0,0.0,0.0,0.0,0.0,0.0,0.0,0.0,0.0,0.0,0.0,0.0,0.0,0.0,0.0,0.0,0.0,0.0,0.0,0.0,0.0,0.0,0.0,0.0,0.0,0.0,0.0,0.0,0.0,0.0,0.0,0.0,-1.7269,0.0,0.0,0.0,0.0,0.0,0.0,0.0,0.0,0.0,0.0,0.0,0.0,0.0,0.0,0.0,0.0,0.0,0.0,0.0,0.0,0.0,0.0,0.0,0.0,0.0,0.0,0.0,0.0,0.0,0.0,0.0,0.0,0.0,0.0,0.0,0.0,0.0,0.0,0.0,0.0,0.0,0.0,0.0,0.0,0.0,0.0,0.0,0.0,0.0,0.0,0.0,0.0,0.0,0.0,0.0,0.0,0.0,0.0,0.0,0.0,0.0,0.0,0.0,0.0,0.0,0.0,0.0,0.0,0.0,0.0,0.0,0.0,0.0,0.0,0.0,0.0,0.0,0.0,0.0,0.0,0.0,0.0,0.0,0.0,0.0,0.0,0.0,0.0,0.0,0.0,0.0,0.0,0.0,0.0,0.0,0.0,0.0,0.0,0.0,0.0,0.0,0.0,0.0,0.0,0.0,0.0,0.0,0.0,0.0,0.0,-1.9425,-1.9029,-1.8969,-1.8772,-1.8372,0.0,0.0,0.0,0.0,0.0,0.0,0.0,0.0,0.0,0.0,0.0,0.0,0.0,0.0,0.0,0.0,0.0,0.0,0.0,0.0,0.0,0.0,0.0,0.0,0.0,0.0,0.0,0.0,0.0,0.0,0.0,0.0,0.0,0.0,0.0,0.0,0.0,0.0,0.0,0.0,0.0,0.0,0.0,0.0,0.0,0.0,0.0,0.0,0.0,0.0,0.0,0.0,0.0,0.0,0.0,0.0,0.0,0.0,0.0,0.0,0.0,0.0,0.0,0.0,0.0,0.0,0.0,0.0,0.0,0.0,0.0,0.0,0.0,0.0,0.0,0.0,0.0,0.0,0.0,0.0,0.0,0.0,0.0,0.0,0.0,0.0,0.0,0.0,0.0,0.0,0.0,0.0,0.0,0.0,0.0,0.0,0.0,0.0,0.0,0.0,0.0,0.0,0.0,0.0,0.0,0.0,0.0,0.0,0.0,0.0,0.0,0.0,-1.9684,-1.953,-1.9311,0.0,0.0,0.0,0.0,0.0,0.0,0.0,0.0,0.0,0.0,0.0,0.0,0.0,0.0,0.0,0.0,0.0,0.0,0.0,0.0,0.0,0.0,0.0,0.0,0.0,0.0,0.0,0.0,0.0,0.0,0.0,0.0,0.0,0.0,0.0,0.0,0.0,0.0,0.0,0.0,0.0,0.0,0.0,0.0,0.0,0.0,0.0,0.0,0.0,0.0,0.0,0.0,0.0,0.0,0.0,0.0,0.0,0.0,0.0,0.0,0.0,0.0,0.0,0.0,0.0,0.0,0.0,0.0,0.0,0.0,0.0,0.0,0.0,0.0,0.0,0.0,0.0,0.0,0.0,0.0,0.0,0.0,0.0,0.0,0.0,0.0,0.0,0.0,0.0,0.0,0.0,0.0,0.0,0.0,0.0,0.0,0.0,0.0,0.0,0.0,0.0,0.0,0.0,0.0,0.0,0.0,0.0,0.0,0.0,0.0,-2.1124,-2.0525,-2.0453,0.0,-1.9446,0.0,0.0,0.0,0.0,0.0,0.0,0.0,0.0,0.0,0.0,0.0,0.0,0.0,0.0,0.0,0.0,0.0,0.0,0.0,0.0,0.0,0.0,0.0,0.0,0.0,0.0,0.0,0.0,0.0,0.0,0.0,0.0,0.0,0.0,0.0,0.0,0.0,0.0,0.0,0.0,0.0,0.0,0.0,0.0,0.0,0.0,0.0,0.0,0.0,0.0,0.0,0.0,0.0,0.0,0.0,0.0,0.0,0.0,0.0,0.0,0.0,0.0,0.0,0.0,0.0,0.0,0.0,0.0,0.0,0.0,0.0,0.0,0.0,0.0,0.0,0.0,0.0,0.0,0.0,0.0,0.0,0.0,0.0,0.0,0.0,0.0,0.0,0.0,0.0,0.0,0.0,0.0,0.0,0.0,0.0,0.0,0.0,0.0,0.0,0.0,0.0,0.0,0.0,0.0,0.0,0.0,0.0,0.0,0.0,0.0,-2.1425,-2.1068,-2.101,-2.0669,0.0,0.0,0.0,0.0,0.0,0.0,0.0,0.0,0.0,0.0,0.0,0.0,0.0,0.0,0.0,0.0,0.0,0.0,0.0,0.0,0.0,0.0,0.0,0.0,0.0,0.0,0.0,0.0,0.0,0.0,0.0,0.0,0.0,0.0,0.0,0.0,0.0,0.0,0.0,0.0,0.0,0.0,0.0,0.0,0.0,0.0,0.0,0.0,0.0,0.0,0.0,0.0,0.0,0.0,0.0,0.0,0.0,0.0,0.0,0.0,0.0,0.0,0.0,0.0,0.0,0.0,0.0,0.0,0.0,0.0,0.0,0.0,0.0,0.0,0.0,0.0,0.0,0.0,0.0,0.0,0.0,0.0,0.0,0.0,0.0,0.0,0.0,0.0,0.0,0.0,0.0,0.0,0.0,0.0,0.0,0.0,0.0,0.0,0.0,0.0,0.0,0.0,0.0,0.0,0.0,0.0,0.0,0.0,0.0,0.0,-2.1449,-2.1464,-2.1385,-2.134,-2.1098,-2.0684,0.0,0.0,0.0,0.0,0.0,0.0,0.0,0.0,0.0,0.0,0.0,0.0,0.0,0.0,0.0,0.0,0.0,0.0,0.0,0.0,0.0,0.0,0.0,0.0,0.0,0.0,0.0,0.0,0.0,0.0,0.0,0.0,0.0,0.0,0.0,0.0,0.0,0.0,0.0,0.0,0.0,0.0,0.0,0.0,0.0,0.0,0.0,0.0,0.0,0.0,0.0,0.0,0.0,0.0,0.0,0.0,0.0,0.0,0.0,0.0,0.0,0.0,0.0,0.0,0.0,0.0,0.0,0.0,0.0,0.0,0.0,0.0,0.0,0.0,0.0,0.0,0.0,0.0,0.0,0.0,0.0,0.0,0.0,0.0,0.0,0.0,0.0,0.0,0.0,0.0,0.0,0.0,0.0,0.0,0.0,0.0,0.0,0.0,0.0,0.0,0.0,0.0,0.0,0.0,0.0,0.0,0.0,0.0,-2.1293,-2.1309,-2.134,-2.1385,-2.1324,-2.134,0.0,0.0,0.0,0.0,0.0,0.0,0.0,0.0,0.0,0.0,0.0,0.0,0.0,0.0,0.0,0.0,0.0,0.0,0.0,0.0,0.0,0.0,0.0,0.0,0.0,0.0,0.0,0.0,0.0,0.0,0.0,0.0,0.0,0.0,0.0,0.0,0.0,0.0,0.0,0.0,0.0,0.0,0.0,0.0,0.0,0.0,0.0,0.0,0.0,0.0,0.0,0.0,0.0,0.0,0.0,0.0,0.0,0.0,0.0,0.0,0.0,0.0,0.0,0.0,0.0,0.0,0.0,0.0,0.0,0.0,0.0,0.0,0.0,0.0,0.0,0.0,0.0,0.0,0.0,0.0,0.0,0.0,0.0,0.0,0.0,0.0,0.0,0.0,0.0,0.0,0.0,0.0,0.0,0.0,0.0,0.0,0.0,0.0,0.0,0.0,0.0,0.0,0.0,0.0,0.0,0.0,0.0,0.0,0.0,-2.1167,-2.1215,-2.1214,-2.1214,-2.1262,-2.1262,0.0,0.0,0.0,0.0,0.0,0.0,0.0,0.0,0.0,0.0,0.0,0.0,0.0,0.0,0.0,0.0,0.0,0.0,0.0,0.0,0.0,0.0,0.0,0.0,0.0,0.0,0.0,0.0,0.0,0.0,0.0,0.0,0.0,0.0,0.0,0.0,0.0,0.0,0.0,0.0,0.0,0.0,0.0,0.0,0.0,0.0,0.0,0.0,0.0,0.0,0.0,0.0,0.0,0.0,0.0,0.0,0.0,0.0,0.0,0.0,0.0,0.0,0.0,0.0,0.0,0.0,0.0,0.0,0.0,0.0,0.0,0.0,0.0,0.0,0.0,0.0,0.0,0.0,0.0,0.0,0.0,0.0,0.0,0.0,0.0,0.0,0.0,0.0,0.0,0.0,0.0,0.0,0.0,0.0,0.0,0.0,0.0,0.0,0.0,0.0,0.0,0.0,0.0,0.0,0.0,0.0,0.0,0.0,0.0,-2.1642,0.0,-2.161,-2.1643,-2.1519,-2.1488,0.0,0.0,0.0,0.0,0.0,0.0,0.0,0.0,0.0,0.0,0.0,0.0,0.0,0.0,0.0,0.0,0.0,0.0,0.0,0.0,0.0,0.0,0.0,0.0,0.0,0.0,0.0,0.0,0.0,0.0,0.0,0.0,0.0,0.0,0.0,0.0,0.0,0.0,0.0,0.0,0.0,0.0,0.0,0.0,0.0,0.0,0.0,0.0,0.0,0.0,0.0,0.0,0.0,0.0,0.0,0.0,0.0,0.0,0.0,0.0,0.0,0.0,0.0,0.0,0.0,0.0,0.0,0.0,0.0,0.0,0.0,0.0,0.0,0.0,0.0,0.0,0.0,0.0,0.0,0.0,0.0,0.0,0.0,0.0,0.0,0.0,0.0,0.0,0.0,0.0,0.0,0.0,0.0,0.0,0.0,0.0,0.0,0.0,0.0,0.0,0.0,0.0,0.0,0.0,0.0,0.0,0.0,0.0,-2.2388,-2.2794,-2.2655,-2.2686,-2.2807,-2.2244,-2.1972,0.0,0.0,0.0,0.0,0.0,0.0,0.0,0.0,0.0,0.0,0.0,0.0,0.0,0.0,0.0,0.0,0.0,0.0,0.0,0.0,0.0,0.0,0.0,0.0,0.0,0.0,0.0,0.0,0.0,0.0,0.0,0.0,0.0,0.0,0.0,0.0,0.0,0.0,0.0,0.0,0.0,0.0,0.0,0.0,0.0,0.0,0.0,0.0,0.0,0.0,0.0,0.0,0.0,0.0,0.0,0.0,0.0,0.0,0.0,0.0,0.0,0.0,0.0,0.0,0.0,0.0,0.0,0.0,0.0,0.0,0.0,0.0,0.0,0.0,0.0,0.0,0.0,0.0,0.0,0.0,0.0,0.0,0.0,0.0,0.0,0.0,0.0,0.0,0.0,0.0,0.0,0.0,0.0,0.0,0.0,0.0,0.0,0.0,0.0,0.0,0.0,0.0,0.0,0.0,0.0,0.0,0.0,0.0,0.0,-2.412,-2.4317,-2.4441,-2.4462,-2.4061,-2.34,0.0,0.0,0.0,0.0,0.0,0.0,0.0,0.0,0.0,0.0,0.0,0.0,0.0,0.0,0.0,0.0,0.0,0.0,0.0,0.0,0.0,0.0,0.0,0.0,0.0,0.0,0.0,0.0,0.0,0.0,0.0,0.0,0.0,0.0,0.0,0.0,0.0,0.0,0.0,0.0,0.0,0.0,0.0,0.0,0.0,0.0,0.0,0.0,0.0,0.0,0.0,0.0,0.0,0.0,0.0,0.0,0.0,0.0,0.0,0.0,0.0,0.0,0.0,0.0,0.0,0.0,0.0,0.0,0.0,0.0,0.0,0.0,0.0,0.0,0.0,0.0,0.0,0.0,0.0,0.0,0.0,0.0,0.0,0.0,0.0,0.0,0.0,0.0,0.0,0.0,0.0,0.0,0.0,0.0,0.0,0.0,0.0,0.0,0.0,0.0,0.0,0.0,0.0,0.0,0.0,0.0,0.0,0.0,0.0,-2.8436,-2.799,-2.7887,-2.818,-2.7048,-2.5641,-2.4007,0.0,0.0,0.0,0.0,0.0,0.0,0.0,0.0,0.0,0.0,0.0,0.0,0.0,0.0,0.0,0.0,0.0,0.0,0.0,0.0,0.0,0.0,0.0,0.0,0.0,0.0,0.0,0.0,0.0,0.0,0.0,0.0,0.0,0.0,0.0,0.0,0.0,0.0,0.0,0.0,0.0,0.0,0.0,0.0,0.0,0.0,0.0,0.0,0.0,0.0,0.0,0.0,0.0,0.0,0.0,0.0,0.0,0.0,0.0,0.0,0.0,0.0,0.0,0.0,0.0,0.0,0.0,0.0,0.0,0.0,0.0,0.0,0.0,0.0,0.0,0.0,0.0,0.0,0.0,0.0,0.0,0.0,0.0,0.0,0.0,0.0,0.0,0.0,0.0,0.0,0.0,0.0,0.0,0.0,0.0,0.0,0.0,0.0,0.0,0.0,0.0,0.0,0.0,0.0,0.0,0.0,0.0,0.0,-3.5244,-3.3486,-3.2879,-3.3507,-3.0968,-2.8627,0.0,0.0,0.0,0.0,0.0,0.0,0.0,0.0,0.0,0.0,0.0,0.0,0.0,0.0,0.0,0.0,0.0,0.0,0.0,0.0,0.0,0.0,0.0,0.0,0.0,0.0,0.0,0.0,0.0,0.0,0.0,0.0,0.0,0.0,0.0,0.0,0.0,0.0,0.0,0.0,0.0,0.0,0.0,0.0,0.0,0.0,0.0,0.0,0.0,0.0,0.0,0.0,0.0,0.0,0.0,0.0,0.0,0.0,0.0,0.0,0.0,0.0,0.0,0.0,0.0,0.0,0.0,0.0,0.0,0.0,0.0,0.0,0.0,0.0,0.0,0.0,0.0,0.0,0.0,0.0,0.0,0.0,0.0,0.0,0.0,0.0,0.0,0.0,0.0,0.0,0.0,0.0,0.0,0.0,0.0,0.0,0.0,0.0,0.0,0.0,0.0,0.0,0.0,0.0,0.0,0.0,0.0,0.0,0.0,-3.9565,-4.0715,-4.0251,-3.8122,-3.5217,-3.2137,0.0,0.0,0.0,0.0,0.0,0.0,0.0,0.0,0.0,0.0,0.0,0.0,0.0,0.0,0.0,0.0,0.0,0.0,0.0,0.0,0.0,0.0,0.0,0.0,0.0,0.0,0.0,0.0,0.0,0.0,0.0,0.0,0.0,0.0,0.0,0.0,0.0,0.0,0.0,0.0,0.0,0.0,0.0,0.0,0.0,0.0,0.0,0.0,0.0,0.0,0.0,0.0,0.0,0.0,0.0,0.0,0.0,0.0,0.0,0.0,0.0,0.0,0.0,0.0,0.0,0.0,0.0,0.0,0.0,0.0,0.0,0.0,0.0,0.0,0.0,0.0,0.0,0.0,0.0,0.0,0.0,0.0,0.0,0.0,0.0,0.0,0.0,0.0,0.0,0.0,0.0,0.0,0.0,0.0,0.0,0.0,0.0,0.0,0.0,0.0,0.0,0.0,0.0,0.0,0.0,0.0,0.0,0.0,-3.7307,-4.2257,-4.5728,-4.6671,-4.481,-3.9748,-3.524,0.0,0.0,0.0,0.0,0.0,0.0,0.0,0.0,0.0,0.0,0.0,0.0,0.0,0.0,0.0,0.0,0.0,0.0,0.0,0.0,0.0,0.0,0.0,0.0,0.0,0.0,0.0,0.0,0.0,0.0,0.0,0.0,0.0,0.0,0.0,0.0,0.0,0.0,0.0,0.0,0.0,0.0,0.0,0.0,0.0,0.0,0.0,0.0,0.0,0.0,0.0,0.0,0.0,0.0,0.0,0.0,0.0,0.0,0.0,0.0,0.0,0.0,0.0,0.0,0.0,0.0,0.0,0.0,0.0,0.0,0.0,0.0,0.0,0.0,0.0,0.0,0.0,0.0,0.0,0.0,0.0,0.0,0.0,0.0,0.0,0.0,0.0,0.0,0.0,0.0,0.0,0.0,0.0,0.0,0.0,0.0,0.0,0.0,0.0,0.0,0.0,0.0,0.0,0.0,0.0,0.0,0.0,0.0,-3.9429,-4.3889,-4.891,-5.1523,-5.1343,-4.4048,-3.8063,0.0,0.0,0.0,0.0,0.0,0.0,0.0,0.0,0.0,0.0,0.0,0.0,0.0,0.0,0.0,0.0,0.0,0.0,0.0,0.0,0.0,0.0,0.0,0.0,0.0,0.0,0.0,0.0,0.0,0.0,0.0,0.0,0.0,0.0,0.0,0.0,0.0,0.0,0.0,0.0,0.0,0.0,0.0,0.0,0.0,0.0,0.0,0.0,0.0,0.0,0.0,0.0,0.0,0.0,0.0,0.0,0.0,0.0,0.0,0.0,0.0,0.0,0.0,0.0,0.0,0.0,0.0,0.0,0.0,0.0,0.0,0.0,0.0,0.0,0.0,0.0,0.0,0.0,0.0,0.0,0.0,0.0,0.0,0.0,0.0,0.0,0.0,0.0,0.0,0.0,0.0,0.0,0.0,0.0,0.0,0.0,0.0,0.0,0.0,0.0,0.0,0.0,0.0,0.0,0.0,0.0,0.0,0.0,-4.1344,-4.6745,-4.9597,-5.1081,-5.1101,-4.6109,-4.1414,0.0,0.0,0.0,0.0,0.0,0.0,0.0,0.0,0.0,0.0,0.0,0.0,0.0,0.0,0.0,0.0,0.0,0.0,0.0,0.0,0.0,0.0,0.0,0.0,0.0,0.0,0.0,0.0,0.0,0.0,0.0,0.0,0.0,0.0,0.0,0.0,0.0,0.0,0.0,0.0,0.0,0.0,0.0,0.0,0.0,0.0,0.0,0.0,-2.342,0.0,0.0,0.0,0.0,0.0,0.0,0.0,0.0,0.0,0.0,0.0,0.0,0.0,0.0,0.0,0.0,0.0,0.0,0.0,0.0,0.0,0.0,0.0,0.0,0.0,0.0,0.0,0.0,0.0,0.0,0.0,0.0,0.0,0.0,0.0,0.0,0.0,0.0,0.0,0.0,0.0,0.0,0.0,0.0,0.0,0.0,0.0,0.0,0.0,0.0,0.0,0.0,0.0,0.0,0.0,0.0,0.0,0.0,0.0,-4.2817,-4.7584,-5.0033,-5.1359,-5.1555,-4.7916,-4.3481,0.0,0.0,0.0,0.0,0.0,0.0,0.0,0.0,0.0,0.0,0.0,0.0,0.0,0.0,0.0,0.0,0.0,0.0,0.0,0.0,0.0,0.0,0.0,0.0,0.0,0.0,0.0,0.0,0.0,0.0,0.0,0.0,0.0,0.0,0.0,0.0,0.0,0.0,0.0,0.0,0.0,0.0,0.0,0.0,0.0,0.0,0.0,0.0,0.0,0.0,0.0,0.0,0.0,0.0,0.0,0.0,0.0,0.0,0.0,0.0,0.0,0.0,0.0,0.0,0.0,0.0,0.0,0.0,0.0,0.0,0.0,0.0,0.0,0.0,0.0,0.0,0.0,0.0,0.0,0.0,0.0,0.0,0.0,0.0,0.0,0.0,0.0,0.0,0.0,0.0,0.0,0.0,0.0,0.0,0.0,0.0,0.0,0.0,0.0,0.0,0.0,0.0,0.0,0.0,0.0,0.0,0.0,-3.8753,-4.3901,-4.7857,-5.0332,-5.1701,-5.2014,-4.8974,-4.4573,-3.8774,0.0,0.0,0.0,0.0,0.0,0.0,0.0,0.0,0.0,0.0,0.0,0.0,0.0,0.0,0.0,0.0,0.0,0.0,0.0,0.0,0.0,0.0,0.0,0.0,0.0,0.0,0.0,0.0,0.0,0.0,0.0,0.0,0.0,0.0,0.0,0.0,0.0,0.0,-2.0788,-2.1885,0.0,0.0,0.0,0.0,0.0,0.0,0.0,0.0,-2.4526,0.0,0.0,0.0,0.0,0.0,0.0,0.0,0.0,0.0,0.0,0.0,0.0,0.0,0.0,0.0,0.0,0.0,0.0,0.0,0.0,0.0,0.0,0.0,0.0,0.0,0.0,0.0,0.0,0.0,0.0,0.0,0.0,0.0,0.0,0.0,0.0,0.0,0.0,0.0,0.0,0.0,0.0,0.0,0.0,0.0,0.0,0.0,0.0,0.0,0.0,0.0,0.0,0.0,0.0,0.0,0.0,-3.6031,-4.0117,-4.4498,-4.9036,-5.0619,-5.0924,-4.9973,-4.7833,-4.4232,-3.9171,0.0,0.0,0.0,0.0,0.0,0.0,0.0,0.0,0.0,0.0,0.0,0.0,0.0,0.0,0.0,0.0,0.0,0.0,0.0,0.0,0.0,0.0,0.0,0.0,0.0,0.0,0.0,0.0,0.0,0.0,0.0,0.0,0.0,0.0,0.0,0.0,0.0,0.0,0.0,-2.3779,-2.4462,0.0,0.0,0.0,0.0,0.0,0.0,0.0,0.0,-2.6944,0.0,0.0,0.0,0.0,0.0,0.0,0.0,0.0,0.0,0.0,0.0,0.0,0.0,0.0,0.0,0.0,0.0,0.0,0.0,0.0,0.0,0.0,0.0,0.0,0.0,0.0,0.0,0.0,0.0,0.0,0.0,0.0,0.0,0.0,0.0,0.0,0.0,0.0,0.0,0.0,0.0,0.0,0.0,0.0,0.0,0.0,0.0,0.0,0.0,0.0,0.0,0.0,0.0,0.0,0.0,-3.677,-4.0943,-4.4945,-4.8709,-4.9716,-5.0043,-4.9716,-4.7155,-4.3797,0.0,0.0,0.0,0.0,0.0,0.0,0.0,0.0,0.0,0.0,0.0,0.0,0.0,0.0,0.0,0.0,0.0,0.0,0.0,0.0,0.0,0.0,0.0,0.0,0.0,0.0,0.0,0.0,0.0,0.0,0.0,0.0,0.0,0.0,0.0,0.0,0.0,0.0,0.0,0.0,-2.5293,-2.636,-2.7691,0.0,0.0,0.0,0.0,0.0,0.0,-2.7883,-2.7767,0.0,0.0,0.0,0.0,0.0,0.0,0.0,0.0,0.0,0.0,0.0,0.0,0.0,0.0,0.0,0.0,0.0,0.0,0.0,0.0,0.0,0.0,0.0,0.0,0.0,0.0,0.0,0.0,0.0,0.0,0.0,0.0,0.0,0.0,0.0,0.0,0.0,0.0,0.0,0.0,0.0,0.0,0.0,0.0,0.0,0.0,0.0,0.0,0.0,0.0,0.0,0.0,0.0,0.0,0.0,-3.7133,-4.1721,-4.5395,-4.8169,-4.8939,-4.9338,-4.9418,-4.633,-4.2999,0.0,0.0,0.0,0.0,0.0,0.0,0.0,0.0,0.0,0.0,0.0,0.0,0.0,0.0,0.0,0.0,0.0,0.0,0.0,0.0,0.0,0.0,0.0,0.0,0.0,0.0,0.0,0.0,0.0,0.0,0.0,0.0,0.0,0.0,0.0,0.0,0.0,0.0,0.0,0.0,0.0,-2.81,-2.941,-2.9016,0.0,0.0,0.0,0.0,-2.8522,-2.9042,0.0,0.0,0.0,0.0,0.0,0.0,0.0,0.0,0.0,0.0,0.0,0.0,0.0,0.0,0.0,0.0,0.0,0.0,0.0,0.0,0.0,0.0,0.0,0.0,0.0,0.0,0.0,0.0,0.0,0.0,0.0,0.0,0.0,0.0,0.0,0.0,0.0,0.0,0.0,0.0,0.0,0.0,0.0,0.0,0.0,0.0,0.0,0.0,0.0,0.0,0.0,0.0,0.0,0.0,0.0,0.0,-3.8523,-4.2713,-4.5929,-4.8113,-4.9312,-4.9205,-4.7713,-4.4599,-4.1218,0.0,0.0,0.0,0.0,0.0,0.0,0.0,0.0,0.0,0.0,0.0,0.0,0.0,0.0,0.0,0.0,0.0,0.0,0.0,0.0,0.0,0.0,0.0,0.0,0.0,0.0,0.0,0.0,0.0,0.0,0.0,0.0,0.0,0.0,0.0,0.0,0.0,0.0,0.0,0.0,0.0,-2.9347,-3.0852,-3.0585,-2.9862,0.0,0.0,-3.1235,-3.1216,-3.2623,0.0,0.0,0.0,0.0,0.0,0.0,0.0,0.0,0.0,0.0,0.0,0.0,0.0,0.0,0.0,0.0,0.0,0.0,0.0,0.0,0.0,0.0,0.0,0.0,0.0,0.0,0.0,0.0,0.0,0.0,0.0,0.0,0.0,0.0,0.0,0.0,0.0,0.0,0.0,0.0,0.0,0.0,0.0,0.0,0.0,0.0,0.0,0.0,0.0,0.0,0.0,0.0,0.0,0.0,0.0,-3.5274,-3.9535,-4.3037,-4.5761,-4.7657,-4.8526,-4.8606,-4.7841,-4.4256,-4.1067,0.0,0.0,0.0,0.0,0.0,0.0,0.0,0.0,0.0,0.0,0.0,0.0,0.0,0.0,0.0,0.0,0.0,0.0,0.0,0.0,0.0,0.0,0.0,0.0,0.0,0.0,0.0,0.0,0.0,0.0,0.0,0.0,0.0,0.0,0.0,0.0,0.0,0.0,0.0,0.0,0.0,0.0,-3.2483,-3.2913,0.0,0.0,0.0,-3.3263,-3.2673,0.0,0.0,0.0,0.0,0.0,0.0,0.0,0.0,0.0,0.0,0.0,0.0,0.0,0.0,0.0,0.0,0.0,0.0,0.0,0.0,0.0,0.0,0.0,0.0,0.0,0.0,0.0,0.0,0.0,0.0,0.0,0.0,0.0,0.0,0.0,0.0,0.0,0.0,0.0,0.0,0.0,0.0,0.0,0.0,0.0,0.0,0.0,0.0,0.0,0.0,0.0,0.0,0.0,0.0,0.0,0.0,0.0,-4.0187,-4.3363,-4.5738,-4.7492,-4.812,-4.8277,-4.7911,-4.4304,0.0,0.0,0.0,0.0,0.0,0.0,0.0,0.0,0.0,0.0,0.0,0.0,0.0,0.0,0.0,0.0,0.0,0.0,0.0,0.0,0.0,0.0,0.0,0.0,0.0,0.0,0.0,-2.3597,0.0,0.0,0.0,0.0,0.0,0.0,0.0,0.0,0.0,0.0,0.0,0.0,0.0,0.0,-3.2533,-3.3734,-3.48,-3.5428,0.0,0.0,-3.4936,-3.4119,-3.5027,-3.498,0.0,0.0,0.0,0.0,0.0,0.0,0.0,0.0,0.0,0.0,0.0,0.0,0.0,0.0,0.0,0.0,0.0,0.0,0.0,0.0,0.0,0.0,0.0,0.0,0.0,0.0,0.0,0.0,0.0,0.0,0.0,0.0,0.0,0.0,0.0,0.0,0.0,0.0,0.0,0.0,0.0,0.0,0.0,0.0,0.0,0.0,0.0,0.0,0.0,0.0,0.0,0.0,0.0,0.0,0.0,-4.0305,-4.3807,-4.6395,-4.8068,-4.8721,-4.8512,-4.733,-4.4459,-4.1714,0.0,0.0,0.0,0.0,0.0,0.0,0.0,0.0,0.0,0.0,0.0,0.0,0.0,0.0,0.0,0.0,0.0,0.0,0.0,0.0,0.0,0.0,0.0,0.0,0.0,0.0,0.0,0.0,0.0,0.0,0.0,0.0,0.0,0.0,0.0,0.0,0.0,0.0,0.0,0.0,0.0,-3.3196,-3.422,-3.5494,-3.6464,0.0,0.0,-3.6247,-3.5955,-3.7791,-3.7767,-3.3291,0.0,0.0,0.0,0.0,0.0,0.0,0.0,0.0,0.0,0.0,0.0,0.0,0.0,0.0,0.0,0.0,0.0,0.0,0.0,0.0,0.0,0.0,0.0,0.0,0.0,0.0,0.0,0.0,0.0,0.0,0.0,0.0,0.0,0.0,0.0,0.0,0.0,0.0,0.0,0.0,0.0,0.0,0.0,0.0,0.0,0.0,0.0,0.0,0.0,0.0,0.0,0.0,0.0,-3.6612,-4.0434,-4.3721,-4.6165,-4.7802,-4.829,-4.8329,-4.7858,-4.5236,-4.2788,0.0,0.0,0.0,0.0,0.0,0.0,0.0,0.0,0.0,0.0,0.0,0.0,0.0,0.0,0.0,0.0,0.0,0.0,0.0,0.0,0.0,0.0,0.0,0.0,0.0,0.0,0.0,0.0,-2.8481,-2.8324,-2.7656,0.0,0.0,0.0,0.0,0.0,0.0,0.0,0.0,0.0,0.0,-3.4289,-3.597,-3.745,0.0,0.0,-3.824,-3.8006,-3.6938,-3.7435,-3.6835,-3.363,-3.1739,0.0,0.0,0.0,0.0,0.0,0.0,0.0,0.0,0.0,0.0,0.0,0.0,0.0,0.0,0.0,0.0,0.0,0.0,0.0,0.0,0.0,0.0,0.0,0.0,0.0,0.0,0.0,0.0,0.0,0.0,0.0,0.0,0.0,0.0,0.0,0.0,0.0,0.0,0.0,0.0,0.0,0.0,0.0,0.0,0.0,0.0,0.0,0.0,0.0,0.0,0.0,0.0,-3.7318,-4.0722,-4.3913,-4.6191,-4.7534,-4.7944,-4.8061,-4.7828,-4.5659,-4.3588,0.0,0.0,0.0,0.0,0.0,0.0,0.0,0.0,0.0,0.0,0.0,0.0,0.0,0.0,0.0,0.0,0.0,0.0,0.0,0.0,0.0,0.0,0.0,0.0,0.0,0.0,0.0,0.0,-2.9779,-2.9068,-2.7771,0.0,0.0,0.0,0.0,0.0,0.0,0.0,0.0,0.0,0.0,-3.5571,-3.7068,-3.8479,-3.9189,-3.8837,-3.8752,-3.8373,-3.7261,-3.6738,-3.5662,-3.3476,0.0,0.0,0.0,0.0,0.0,0.0,0.0,0.0,0.0,0.0,0.0,0.0,0.0,0.0,0.0,0.0,0.0,0.0,0.0,0.0,0.0,0.0,0.0,0.0,0.0,0.0,0.0,0.0,0.0,0.0,-2.6578,0.0,0.0,0.0,0.0,0.0,0.0,0.0,0.0,0.0,0.0,0.0,0.0,0.0,0.0,0.0,0.0,0.0,0.0,0.0,0.0,0.0,0.0,-3.7833,-4.1259,-4.4535,-4.6532,-4.7205,-4.7769,-4.7829,-4.7239,-4.5591,-4.4035,-4.2578,0.0,0.0,0.0,0.0,0.0,0.0,0.0,0.0,0.0,0.0,0.0,0.0,0.0,0.0,0.0,0.0,0.0,0.0,0.0,0.0,0.0,0.0,0.0,0.0,0.0,0.0,-3.0257,-3.002,-2.9165,0.0,0.0,0.0,0.0,0.0,0.0,0.0,0.0,0.0,0.0,-3.4518,-3.6901,-3.718,-3.8068,-3.8704,-3.8727,-3.7684,-3.689,-3.6866,-3.5958,-3.4675,0.0,0.0,0.0,0.0,0.0,0.0,0.0,0.0,0.0,0.0,0.0,0.0,0.0,0.0,0.0,0.0,0.0,0.0,0.0,0.0,0.0,0.0,0.0,0.0,0.0,0.0,0.0,-3.2135,-3.2445,0.0,0.0,0.0,0.0,0.0,0.0,0.0,0.0,0.0,0.0,0.0,-3.6801,-3.6662,0.0,0.0,0.0,0.0,0.0,0.0,0.0,0.0,0.0,0.0,0.0,0.0,-3.816,-4.0763,-4.3863,-4.5933,-4.6934,-4.7291,-4.741,-4.7205,-4.6334,-4.4515,-4.1826,0.0,0.0,0.0,0.0,0.0,0.0,0.0,0.0,0.0,0.0,0.0,0.0,0.0,0.0,0.0,0.0,0.0,0.0,0.0,0.0,0.0,0.0,0.0,0.0,0.0,-3.017,0.0,0.0,0.0,0.0,0.0,0.0,0.0,0.0,0.0,0.0,0.0,-3.1039,-3.3402,-3.493,-3.6221,-3.7496,-3.7856,-3.8419,0.0,0.0,0.0,0.0,0.0,0.0,0.0,0.0,0.0,0.0,0.0,0.0,0.0,0.0,-2.9224,-2.8129,-2.8089,-2.8233,-2.7972,0.0,0.0,0.0,0.0,0.0,0.0,0.0,0.0,0.0,0.0,0.0,0.0,0.0,0.0,-3.5142,0.0,-3.4967,0.0,0.0,0.0,0.0,0.0,0.0,0.0,0.0,-3.8412,-3.9779,-4.0387,-4.0589,-4.0665,0.0,-3.9779,-3.7676,0.0,0.0,0.0,0.0,0.0,0.0,0.0,0.0,-3.9069,-4.1103,-4.4187,-4.607,-4.6601,-4.7196,-4.723,-4.6874,-4.6076,-4.4469,-4.1966,-3.9879,-3.7753,0.0,0.0,0.0,0.0,0.0,0.0,0.0,0.0,0.0,0.0,0.0,0.0,0.0,0.0,0.0,0.0,0.0,0.0,0.0,0.0,0.0,0.0,0.0,-3.1304,0.0,0.0,0.0,0.0,0.0,0.0,0.0,0.0,0.0,-3.0355,-3.1411,-3.2861,-3.4996,-3.608,-3.6801,-3.7271,0.0,0.0,0.0,0.0,0.0,0.0,0.0,-3.3612,-3.2683,-3.2416,-3.2468,-3.3071,-3.3084,-3.2955,-3.2922,0.0,0.0,-3.0472,-3.0248,-3.042,-3.0329,-3.037,-3.0463,-3.045,-3.0719,-3.0996,0.0,0.0,0.0,0.0,0.0,0.0,0.0,0.0,-3.8069,-3.8313,0.0,-3.8135,0.0,0.0,0.0,0.0,0.0,-3.6545,0.0,0.0,-4.2935,-4.4568,-4.3933,-4.436,-4.4636,-4.456,-4.3062,-4.2007,-4.125,-3.8464,0.0,0.0,0.0,0.0,0.0,0.0,-4.0551,-4.2288,-4.5422,-4.6878,-4.6426,-4.7355,-4.738,-4.6326,-4.4976,-4.3922,-4.3017,-4.1379,-3.9828,-3.8386,-3.5938,0.0,0.0,0.0,0.0,0.0,0.0,0.0,0.0,0.0,0.0,0.0,0.0,0.0,0.0,0.0,0.0,0.0,0.0,0.0,0.0,-3.2452,0.0,0.0,0.0,0.0,0.0,0.0,0.0,0.0,0.0,0.0,-3.2416,-3.3848,-3.5211,-3.5958,0.0,0.0,0.0,0.0,-3.8412,-3.7075,-3.6477,-3.6116,-3.5979,-3.5175,-3.4528,-3.4395,0.0,0.0,-3.6373,-3.6019,-3.5521,-3.5411,-3.5894,-3.5418,-3.283,-3.2313,-3.2375,-3.2789,-3.2602,-3.2359,-3.2768,-3.3037,-3.3265,-4.1543,0.0,0.0,0.0,0.0,-3.8292,-3.9871,-4.2155,-4.2188,-4.2468,-4.2837,-4.1673,0.0,0.0,0.0,0.0,0.0,0.0,-4.0493,-4.2192,-4.421,-4.5428,-4.6019,-4.6192,-4.6242,-4.6217,-4.5619,-4.5266,-4.5042,-4.4059,-4.1358,-3.7136,0.0,0.0,0.0,0.0,-4.1681,-4.3363,-4.5849,-4.7168,-4.7456,-4.738,-4.7004,-4.6326,-4.5531,-4.4601,-4.3589,-4.2725,-4.142,-3.9576,-3.7884,0.0,0.0,0.0,0.0,0.0,0.0,0.0,0.0,0.0,0.0,0.0,0.0,0.0,0.0,0.0,0.0,0.0,0.0,0.0,-3.3004,-3.2841,-3.2087,0.0,0.0,0.0,0.0,0.0,0.0,0.0,0.0,0.0,-3.615,-3.5899,-3.5951,0.0,0.0,-3.7288,-3.7019,-3.7497,-3.8355,-3.9775,-3.8919,0.0,0.0,-3.8067,-3.6638,-3.5987,-3.6687,-3.7535,-3.803,-3.8502,-3.8812,-3.8761,-3.917,-3.904,-3.7695,-3.6287,-3.5666,-3.5997,-3.6018,-3.5976,-3.6101,-3.639,-3.6577,-4.8658,-4.4305,-4.1623,-4.09,-4.1543,-4.2113,-4.3508,-4.5372,-4.5304,-4.5414,-4.549,-4.4407,-4.2871,-4.1135,-3.9632,0.0,0.0,0.0,-4.312,-4.5086,-4.6162,-4.7081,-4.7823,-4.8068,-4.8142,-4.8117,-4.77,-4.748,-4.7329,-4.6859,-4.4786,-4.1164,0.0,0.0,-4.0023,-4.1756,-4.3338,-4.4794,-4.6527,-4.7581,-4.7908,-4.7606,-4.728,-4.6928,-4.62,-4.5397,-4.4493,-4.3915,-4.2811,-4.1053,-3.9819,-3.8266,0.0,0.0,0.0,0.0,0.0,0.0,0.0,0.0,0.0,0.0,0.0,-2.96,0.0,0.0,0.0,0.0,-3.2574,-3.36,-3.4665,-3.4089,0.0,0.0,0.0,0.0,0.0,0.0,0.0,-3.2831,-3.5039,-3.7103,-3.8477,-3.8419,-3.8447,-3.8868,-3.8687,-3.8504,-3.8332,0.0,-3.995,-4.121,-4.0764,-4.0433,-4.0896,-3.9926,-3.893,-3.8322,-3.8948,-3.9578,-3.9889,-4.0406,-4.0613,-4.0344,-4.0572,-4.0696,-4.0158,-3.9144,-3.8419,-3.8543,-3.8419,-3.8357,-3.8523,-3.8667,-3.8688,-5.464,-5.1535,-4.5323,-4.3504,-4.4852,-4.5487,-4.6537,-4.7753,-4.7728,-4.7513,-4.7121,-4.6557,-4.5637,-4.4511,-4.2983,0.0,-4.416,-4.4717,-4.5784,-4.7329,-4.8349,-4.9011,-4.9327,-4.9768,-5.0014,-4.9916,-4.929,-4.8796,-4.8412,-4.7669,-4.6834,-4.593,-4.4736,-4.3783,-4.3212,-4.4134,-4.5237,-4.6291,-4.7369,-4.7921,-4.7983,-4.7983,-4.7933,-4.7832,-4.6853,-4.6024,-4.5388,-4.4811,-4.3894,-4.2506,-4.1464,-3.996,-3.7788,0.0,0.0,0.0,0.0,0.0,0.0,0.0,0.0,0.0,0.0,0.0,0.0,0.0,0.0,0.0,-3.5342,0.0,-3.6632,-3.5999,0.0,0.0,0.0,-3.3466,-3.3781,-3.4372,-3.5078,-3.5944,0.0,0.0,-3.9716,-4.1081,-4.1835,-4.1471,-4.1555,-4.1306,-4.0398,-4.171,-4.2559,-4.1993,-4.2395,-4.2358,-4.1592,-4.1111,-4.0893,-4.0834,-4.1317,-4.1534,-4.1586,-4.1586,-4.1276,-4.0696,-4.0758,-4.0965,-4.0944,-4.079,-4.0841,-4.0224,-3.9791,-3.9695,-4.0005,-3.9819,-3.9584,-5.6078,-5.4791,-5.2695,-5.0787,-4.9267,-5.019,-5.0733,-5.0885,-5.0744,-5.0504,-5.0113,-4.9163,-4.779,-4.6126,-4.5764,-4.5725,-4.6046,-4.6986,-4.7678,-4.8088,-4.8715,-4.9097,-4.9165,-4.9286,-4.914,-4.8754,-4.8822,-4.8638,-4.8182,-4.8576,-4.8238,-4.7326,-4.7158,-4.6052,-4.4045,-4.4992,-4.5828,-4.6561,-4.7633,-4.8308,-4.856,-4.856,-4.8184,-4.733,-4.6677,-4.5729,-4.4543,-4.397,-4.3233,-4.2248,-4.1583,-4.0507,-3.896,-3.6828,0.0,0.0,0.0,0.0,0.0,0.0,0.0,0.0,0.0,-3.2159,-3.251,0.0,-3.4033,0.0,-3.6564,-3.819,-3.9038,-3.8579,0.0,0.0,-3.7216,-3.713,-3.7326,-3.871,-3.9488,-3.9094,-4.0207,-4.128,-4.197,-4.2366,-4.2895,-4.3756,-4.3482,-4.3191,-4.3408,-4.4062,-4.4692,-4.486,-4.4949,-4.4914,-4.4036,-4.252,-4.154,-4.1887,-4.1752,-4.1793,-4.2476,-4.2311,-4.2124,-4.2207,-4.2062,-4.1761,-4.1099,-4.1252,-4.1147,-4.0541,-4.0238,-4.0167,-4.0289,-4.0207,-4.0135,-5.6899,-5.5906,-5.5805,-5.4574,-5.273,-5.3042,-5.2978,-5.2719,-5.2303,-5.2012,-5.1631,-5.0809,-4.9749,-4.8507,-4.8483,-4.8603,-4.8868,-4.9205,-4.9493,-4.971,-4.9782,-4.9806,-4.9806,-4.9806,-4.9662,-4.9373,-4.9451,-4.932,-4.8918,-4.9414,-4.9278,-4.8558,-4.9084,-4.8412,-4.66,-4.6303,-4.6439,-4.6985,-4.7893,-4.8568,-4.9113,-4.8887,-4.8171,-4.697,-4.6024,-4.4863,-4.3481,-4.2823,-4.2054,-4.1258,-4.0862,-4.012,-3.8731,-3.6911,-3.5038,0.0,0.0,0.0,0.0,0.0,0.0,0.0,0.0,0.0,0.0,0.0,-3.5999,-3.6861,-3.8643,-4.0188,-4.1117,-4.0927,-4.0715,-4.0539,-4.0504,-4.0585,-4.0648,-4.1722,-4.2343,-4.1878,-4.2862,-4.3828,-4.4319,-4.4389,-4.4827,-4.6033,-4.5662,-4.5197,-4.5104,-4.5575,-4.6183,-4.6464,-4.645,-4.5864,-4.4733,-4.3213,-4.2249,-4.2476,-4.2518,-4.26,-4.287,-4.2725,-4.2505,-4.2357,-4.1953,-4.1583,-4.1138,-4.1004,-4.089,-4.0521,-4.0349,-4.0412,-4.0575,-4.0453,-4.03,-5.7449,-5.6069,-5.6584,-5.6305,-5.5488,-5.4743,-5.423,-5.3763,-5.3302,-5.2768,-5.2355,-5.1898,-5.1393,-5.0912,-5.0912,-5.1153,-5.1562,-5.1129,-5.1153,-5.1537,-5.1056,-5.0816,-5.0792,-5.072,-5.0672,-5.0576,-5.0443,-5.0177,-4.9827,-4.9991,-4.9884,-4.9563,-5.0241,-5.0147,-4.9355,-4.7675,-4.6985,-4.7432,-4.8117,-4.8743,-4.94,-4.8949,-4.8021,-4.6563,-4.5179,-4.3856,-4.2452,-4.1556,-4.0682,-3.9944,-3.984,-3.9267,-3.8092,-3.649,-3.5142,0.0,-3.2642,0.0,0.0,0.0,0.0,0.0,0.0,0.0,0.0,-3.7503,-3.8594,-4.0114,-4.1342,-4.2339,-4.3222,-4.3316,-4.3443,-4.3773,-4.382,-4.378,-4.3682,-4.408,-4.4401,-4.4337,-4.5221,-4.597,-4.6344,-4.6482,-4.6857,-4.7468,-4.7351,-4.6744,-4.6133,-4.6578,-4.7162,-4.7185,-4.6843,-4.5733,-4.42,-4.3215,-4.2683,-4.2807,-4.2932,-4.3242,-4.2849,-4.2745,-4.2452,-4.1764,-4.1281,-4.0922,-4.0902,-4.0503,-4.0279,-4.0207,-4.0187,-4.036,-4.0718,-4.0575,-4.033,-5.7971,-5.732,-5.746,-5.7469,-5.7197,-5.6239,-5.5516,-5.5005,-5.4451,-5.3777,-5.2932,-5.2812,-5.2475,-5.1994,-5.197,-5.2043,-5.2139,-5.2018,-5.2043,-5.2115,-5.1586,-5.1345,-5.1321,-5.0912,-5.0479,-5.0046,-4.9996,-4.9707,-4.9229,-4.968,-4.9724,-4.9221,-4.9631,-4.9609,-4.9271,0.0,0.0,0.0,-4.8337,-4.8814,-4.8554,-4.8174,-4.728,-4.5711,-4.4516,0.0,-4.1882,-4.0604,-3.977,-3.9364,-3.9116,0.0,0.0,0.0,0.0,0.0,0.0,0.0,0.0,0.0,0.0,0.0,-3.8139,-3.8633,-3.9019,-4.0646,-4.2276,-4.3636,-4.4365,-4.5278,-4.6436,-4.6621,-4.6574,-4.6473,-4.6476,-4.6393,-4.6242,-4.6289,-4.6358,-4.6358,-4.6542,-4.6681,-4.6773,-4.6796,-4.6865,-4.7166,-4.735,-4.7394,-4.7234,-4.7284,-4.7377,-4.7284,-4.6156,-4.4748,-4.3641,-4.2575,-4.2124,-4.2249,-4.2104,-4.2124,-4.2331,-4.2083,-4.1855,-4.1565,-4.0976,-4.0473,-4.0473,-4.0083,-3.9858,-3.9858,-3.9858,-3.9971,-4.034,-4.0391,-4.0382,-5.8838,0.0,-5.8483,-5.8217,0.0,-5.7237,-5.6708,-5.6131,-5.5073,-5.4159,-5.3437,-5.3437,-5.3437,-5.3413,-5.3149,-5.3197,-5.3413,-5.2908,-5.2524,-5.2259,-5.173,-5.1345,-5.1105,-5.084,-5.0551,-5.0287,-5.0287,-5.0143,-4.9902,-5.0143,-5.0143,-4.9878,-5.0201,-5.0356,-5.0201,-4.9487,-4.8624,-4.7829,-4.8397,-4.8803,-4.8907,-4.8529,-4.7543,-4.6056,0.0,0.0,0.0,0.0,0.0,0.0,0.0,0.0,0.0,0.0,0.0,-3.8572,-3.7989,-3.7824,-3.8224,-3.8247,-3.8872,-4.0292,-4.2055,-4.2685,-4.1804,-4.3778,-4.5334,-4.5988,-4.658,-4.7388,-4.8531,-4.8676,-4.8619,-4.8332,-4.8357,-4.8193,-4.7716,-4.762,-4.762,-4.762,-4.762,-4.762,-4.762,-4.739,-4.7252,-4.7252,-4.7252,-4.7298,-4.7298,-4.7624,-4.7691,-4.6879,-4.6011,-4.4755,-4.3436,-4.271,-4.2186,-4.2249,-4.2136,-4.2094,-4.2281,-4.2136,-4.1917,-4.1656,-4.1088,-4.0657,-4.0636,-4.0329,-4.0094,-4.0218,-4.0289,-4.0361,-4.0525,-4.0453,-4.031,-5.9553,-5.9155,-5.9155,-5.8669,-5.7935,-5.7742,-5.7357,-5.678,0.0,0.0,0.0,-5.4087,-5.4327,-5.4712,-5.4303,-5.4279,-5.4544,-5.3726,-5.3053,-5.2524,-5.2018,-5.1537,-5.1129,-5.1032,-5.0984,-5.0984,-5.0984,-5.0984,-5.0984,-5.0888,-5.084,-5.084,-5.1003,-5.1095,-5.1093,-5.0631,-4.9836,-4.8952,-4.854,-4.864,-4.9221,-4.8885,-4.792,-4.6514,-4.5316,-4.4091,-4.2842,-4.2016,-4.1519,-4.1287,-4.1171,-4.102,-4.0892,-4.0479,-4.0313,-4.0419,-3.9982,-4.0073,-4.0707,-4.0755,-4.154,-4.3361,-4.5718,-4.6405,-4.4825,-4.6669,-4.793,-4.7906,-4.8411,-4.906,-4.9926,-5.0022,-4.9886,-4.9605,-4.9509,-4.9221,-4.8595,-4.8473,-4.8331,-4.8377,-4.8331,-4.8377,-4.8331,-4.801,-4.7709,-4.7734,-4.7505,-4.7138,-4.7206,-4.7499,-4.7246,-4.6226,-4.5552,-4.4783,-4.3488,-4.282,-4.2621,-4.2166,-4.2104,-4.2177,-4.2115,-4.2094,-4.1947,-4.151,-4.1179,-4.0954,-4.0893,-4.0555,-4.0474,-4.0811,-4.0882,-4.0882,-4.0882,-4.0668,-4.0453,-5.9649,-5.9155,-5.8829,-5.8642,-5.8416,-5.7526,-5.6828,-5.6323,-5.6107,-5.5698,-5.5169,-5.5169,-5.5217,-5.5289,-5.5217,-5.4952,-5.4616,-5.4447,-5.4111,0.0,-5.3077,-5.2812,-5.2716,-5.2283,-5.2067,-5.2067,-5.2043,-5.2067,-5.1994,-5.1586,-5.1393,-5.1321,-5.1007,-5.0767,-5.0789,-5.086,-5.0676,-5.0137,-4.9082,-4.8411,-4.8056,-4.7957,-4.7287,-4.5917,-4.5244,-4.4549,-4.3879,-4.313,-4.2756,-4.3017,-4.246,-4.2472,-4.306,-4.2819,-4.2888,-4.3562,-4.3538,-4.3599,-4.3647,-4.3671,-4.4405,-4.6054,-4.7762,-4.8459,-4.7767,-4.8844,-4.9541,-4.9541,-4.9974,-5.0407,-5.0576,-5.0576,-5.0434,-5.0009,-4.9747,-4.9293,-4.898,-4.8618,-4.845,-4.8473,-4.8377,-4.8377,-4.8377,-4.8308,-4.824,-4.8263,-4.8102,-4.8125,-4.7915,-4.6932,-4.6119,-4.5622,-4.4634,-4.3739,-4.3341,-4.2816,-4.2302,-4.1731,-4.1804,-4.1721,-4.1296,-4.1255,-4.1214,-4.1038,-4.073,-4.0597,-4.0863,-4.0586,-4.0525,-4.0811,-4.0882,-4.0882,-4.0882,-4.0811,-4.0811,-6.0265,-5.9723,-5.9533,-5.9281,-5.8945,-5.7886,-5.7309,-5.7069,-5.678,-5.6179,-5.5433,-5.5385,-5.5578,-5.5818,-5.553,-5.5265,-5.5025,-5.4736,-5.4183,-5.3413,-5.3173,-5.2908,-5.262,-5.2403,-5.2283,-5.2283,-5.2283,-5.2283,-5.2259,-5.2018,-5.1778,-5.1465,-5.096,-5.0696,-5.0672,-5.0516,-5.0295,-5.0132,-4.9615,-4.9313,-4.9043,-4.8969,-4.8386,-4.7253,-4.6865,-4.6412,-4.5661,-4.5293,-4.5085,-4.5024,-4.4715,-4.4649,-4.4866,-4.4702,-4.4759,-4.5125,-4.5149,-4.5213,-4.5213,-4.5742,-4.6631,-4.7906,-4.894,-4.9541,-4.9589,-5.0022,-5.0311,-5.0311,-5.0551,-5.0696,-5.0696,-5.0696,-5.0554,-5.0104,-4.9961,-4.9675,-4.9317,-4.9101,-4.8957,-4.8763,-4.8691,-4.8618,-4.84,-4.8377,-4.8377,-4.8377,-4.8377,-4.8377,-4.8377,-4.7336,-4.6513,-4.6368,-4.5567,-4.4577,-4.3921,-4.312,-4.2488,-4.2021,-4.1938,-4.1825,-4.1358,-4.1255,-4.1151,-4.0924,-4.074,-4.074,-4.0882,-4.074,-4.074,-4.0811,-4.0882,-4.0882,-4.0882,-4.0882,-4.0882,-6.0532,-6.0171,-6.0051,-5.9642,-5.8969,-5.8151,-5.7742,-5.7598,-5.7189,-5.654,-5.5818,-5.577,-5.6011,-5.6347,-5.5938,-5.5626,-5.5361,-5.4977,-5.4231,-5.3293,-5.3245,-5.3029,-5.2668,-5.2644,-5.262,-5.262,-5.262,-5.2572,-5.2451,-5.2355,-5.2018,-5.1489,-5.096,-5.0768,-5.0864,-5.0335,-5.0046,-5.0092,-5.019,-5.0147,-4.9946,-4.9924,-4.943,-4.8616,-4.8426,-4.7957,-4.7219,-4.717,-4.7042,-4.6938,-4.6786,-4.6657,-4.64,-4.6271,-4.6271,-4.6271,-4.6271,-4.6343,-4.6511,-4.7449,-4.8387,-4.9181,-4.9758,-5.0239,-5.0648,-5.0696,-5.0696,-5.0696,-5.0696,-5.0696,-5.0696,-5.0696,-5.0554,-5.0246,-5.0104,-4.9961,-4.9652,-4.958,-4.9437,-4.9173,-4.9124,-4.898,-4.874,-4.8667,-4.8667,-4.8667,-4.8667,-4.8667,-4.8595,-4.8064,-4.7699,-4.7186,-4.6448,-4.5329,-4.439,-4.3602,-4.2965,-4.2497,-4.2393,-4.2186,-4.1876,-4.1731,-4.17,-4.1338,-4.1234,-4.1193,-4.1089,-4.1048,-4.1007,-4.0924,-4.0882,-4.0882,-4.0882,-4.0882,-4.0882,-6.0219,-6.0099,-5.969,-5.8872,-5.8055,-5.7886,-5.7574,-5.7141,-5.7045,-5.6997,-5.6828,-5.6852,-5.6876,-5.6949,-5.6852,-5.6323,-5.5458,-5.5361,-5.476,-5.3846,-5.375,-5.3726,-5.3654,-5.3654,-5.3678,-5.3654,-5.363,-5.3365,-5.298,-5.2499,-5.2018,-5.1489,-5.096,-5.0936,-5.1273,-5.0864,-5.0624,-5.0624,-5.0646,-5.035,-4.9723,-4.9791,-4.9561,-4.8822,-4.8665,-4.8347,-4.7873,-4.788,-4.8011,-4.8297,-4.7987,-4.779,-4.7724,-4.7461,-4.7353,-4.7353,-4.7353,-4.7545,-4.8074,-4.9036,-4.9707,-4.983,-5.0287,-5.0624,-5.0696,-5.0696,-5.0696,-5.0696,-5.0696,-5.0696,-5.0696,-5.0696,-5.0696,-5.0625,-5.0317,-5.0104,-5.0033,-4.9723,-4.9509,-4.9437,-4.946,-4.9437,-4.9365,-4.9293,-4.9365,-4.9293,-4.9221,-4.9293,-4.9221,-4.9005,-4.8572,-4.7626,-4.6225,-4.5084,-4.4623,-4.4063,-4.338,-4.2932,-4.287,-4.2663,-4.2352,-4.2186,-4.2219,-4.2011,-4.2094,-4.1928,-4.1628,-4.1483,-4.1358,-4.1151,-4.1027,-4.0903,-4.0882,-4.0882,-4.0882,-6.046,-6.0147,-5.9931,-5.9426,-5.8752,-5.8416,-5.7983,-5.7478,-5.7141,-5.7021,-5.7021,-5.7021,-5.7021,-5.7021,-5.7021,-5.6588,-5.5914,-5.589,-5.5482,-5.476,-5.4447,-5.4279,-5.4255,-5.3966,-5.3822,-5.3822,-5.3822,-5.3726,-5.3413,-5.2692,-5.2018,-5.1489,-5.096,-5.0816,-5.0984,-5.0816,-5.0696,-5.0696,-5.0696,-5.062,-5.0579,-5.0548,-5.013,-4.9425,-4.9113,-4.8607,-4.7786,-4.7696,-4.7762,-4.7894,-4.7762,-4.7696,-4.7696,-4.7563,-4.7642,-4.793,-4.8267,-4.8652,-4.9181,-4.9638,-5.0022,-5.0335,-5.0576,-5.0696,-5.0696,-5.0696,-5.0696,-5.0696,-5.0696,-5.0696,-5.0696,-5.0696,-5.0696,-5.0696,-5.0554,-5.0483,-5.0483,-5.0317,-5.0104,-4.989,-4.989,-4.9747,-4.958,-4.9509,-4.9509,-4.9509,-4.9509,-4.9509,-4.9509,-4.8933,-4.8354,-4.7721,-4.6077,-4.4955,-4.473,-4.4125,-4.3587,-4.3387,-4.3325,-4.3159,-4.2787,-4.2663,-4.258,-4.2405,-4.2405,-4.2269,-4.2021,-4.2053,-4.1949,-4.17,-4.14,-4.1296,-4.1276,-4.1069,-4.0924,-6.0652,-6.0219,-6.0171,-5.9786,-5.9137,-5.8752,-5.8223,-5.7598,-5.7165,-5.7021,-5.7021,-5.7021,-5.7021,-5.7021,-5.7021,-5.6732,-5.6251,-5.6059,-5.5698,-5.5169,-5.4784,-5.4544,-5.4375,-5.4183,-5.3966,-5.3846,-5.3822,-5.375,-5.351,-5.2572,-5.1922,-5.1634,-5.1032,-5.0768,-5.0888,-5.0792,-5.0696,-5.0696,-5.0696,-5.0837,-5.1163,-5.1219,-5.0823,-5.0079,-4.9664,-4.89,-4.7937,-4.7636,-4.7497,-4.7497,-4.7642,-4.7714,-4.7714,-4.7834,-4.8098,-4.8483,-4.9012,-4.9469,-4.9854,-4.9998,-5.0263,-5.0648,-5.0696,-5.0696,-5.0696,-5.0696,-5.0696,-5.0696,-5.0696,-5.0696,-5.0696,-5.0696,-5.0696,-5.0696,-5.0696,-5.0696,-5.0696,-5.0696,-5.0554,-5.0317,-5.0246,-5.0199,-4.989,-4.9866,-4.989,-4.989,-4.989,-4.9818,-4.9723,-4.9173,-4.8523,-4.7699,-4.6277,-4.5384,-4.488,-4.4146,-4.3691,-4.3615,-4.3573,-4.3449,-4.3159,-4.3118,-4.3097,-4.2911,-4.2704,-4.2538,-4.2456,-4.2435,-4.2352,-4.2302,-4.2073,-4.1825,-4.1825,-4.1379,-4.1131,-6.0652,-6.0195,-6.0171,-5.9594,-5.8632,-5.8608,-5.8007,-5.7093,-5.7045,-5.7021,-5.7021,-5.7021,-5.7021,-5.7021,-5.7021,-5.6732,-5.6227,-5.5746,-5.5265,-5.4808,-5.464,-5.4351,-5.3918,-5.4327,-5.4303,-5.3846,-5.3822,-5.3582,-5.3101,-5.2091,-5.1778,-5.2139,-5.1177,-5.096,-5.1249,-5.0912,-5.072,-5.0744,-5.0768,-5.0932,-5.1236,-5.1586,-5.1501,-5.0911,-4.9928,-4.9278,-4.878,-4.7986,-4.7521,-4.7521,-4.8002,-4.8243,-4.8291,-4.8724,-4.8988,-4.9084,-4.9611,-4.983,-4.995,-5.0359,-5.0648,-5.0696,-5.0696,-5.0696,-5.0696,-5.0696,-5.0696,-5.0696,-5.0696,-5.0696,-5.0696,-5.0696,-5.0696,-5.0696,-5.0696,-5.0696,-5.0696,-5.0696,-5.0696,-5.0625,-5.0625,-5.0554,-5.0554,-5.0625,-5.0554,-5.0554,-5.0625,-5.0554,-5.0483,-5.0412,-4.9365,-4.7799,-4.6824,-4.6477,-4.5084,-4.4146,-4.3691,-4.3615,-4.3615,-4.3594,-4.3594,-4.3573,-4.3532,-4.3491,-4.3366,-4.3201,-4.2994,-4.2828,-4.2704,-4.2559,-4.2393,-4.2228,-4.2228,-4.1835,-4.1607,-6.0339,-6.0171,-6.0171,-5.957,-5.8632,-5.8608,-5.7983,-5.7045,-5.7021,-5.7021,-5.7021,-5.7021,-5.7021,-5.7021,-5.7021,-5.6925,-5.6684,-5.6179,-5.5818,-5.5578,-5.4928,-5.4496,-5.4327,-5.4207,-5.4015,-5.3846,-5.3822,-5.3558,-5.3053,-5.2331,-5.1898,-5.1658,-5.1081,-5.0816,-5.0936,-5.0792,-5.0864,-5.1177,-5.1201,-5.1415,-5.1651,-5.1864,-5.1761,-5.1501,-5.0788,-5.0087,-4.9431,-4.8831,-4.8507,-4.8507,-4.87,-4.8796,-4.8844,-4.9301,-4.9589,-4.9638,-5.0095,-5.0407,-5.0431,-5.0576,-5.0696,-5.0696,-5.0696,-5.0696,-5.0696,-5.0696,-5.0696,-5.0696,-5.0696,-5.0696,-5.0696,-5.0696,-5.0696,-5.0696,-5.0696,-5.0696,-5.0696,-5.0696,-5.0696,-5.0696,-5.0696,-5.0696,-5.0696,-5.0696,-5.0696,-5.0696,-5.0696,-5.0696,-5.0554,-5.0104,-4.8982,-4.7485,-4.6477,-4.5533,-4.4277,-4.3843,-4.3615,-4.3615,-4.3615,-4.3615,-4.3615,-4.3615,-4.3553,-4.3553,-4.3615,-4.3573,-4.3263,-4.3242,-4.3118,-4.3097,-4.2911,-4.2704,-4.2683,-4.2311,-4.2104,-6.0315,-6.0147,-6.0003,-5.9305,-5.8392,-5.8343,-5.7838,-5.7069,-5.7021,-5.7021,-5.7021,-5.7021,-5.7021,-5.7021,-5.7021,-5.7021,-5.6973,-5.6468,-5.6227,-5.6155,-5.5289,-5.476,-5.4568,-5.4231,-5.3991,-5.3846,-5.3822,-5.363,-5.3293,-5.2788,-5.2355,-5.2018,-5.1465,-5.1201,-5.1201,-5.1201,-5.1417,-5.1706,-5.1898,-5.2018,-5.2063,-5.2351,-5.2225,-5.1849,-5.1436,-5.0881,-4.9947,-4.9386,-4.9084,-4.9109,-4.9229,-4.9421,-4.9614,-4.9926,-5.0143,-5.0191,-5.0479,-5.0696,-5.0696,-5.0696,-5.0696,-5.0696,-5.0696,-5.0696,-5.0696,-5.0696,-5.0696,-5.0696,-5.0696,-5.0696,-5.0696,-5.0696,-5.0696,-5.0696,-5.0696,-5.0696,-5.0696,-5.0696,-5.0696,-5.0696,-5.0696,-5.0696,-5.0696,-5.0696,-5.0696,-5.0696,-5.0625,-5.0483,-5.0388,-4.9723,-4.8549,-4.7214,-4.6426,-4.533,-4.4222,-4.3691,-4.3615,-4.3615,-4.3615,-4.3615,-4.3615,-4.3615,-4.3615,-4.3615,-4.3615,-4.3615,-4.3615,-4.3615,-4.3615,-4.3594,-4.3428,-4.3159,-4.3014,-4.2787,-4.258,-6.0628,-6.0147,-5.9618,-5.8872,-5.8007,-5.7911,-5.7526,-5.7069,-5.7021,-5.7021,-5.7021,-5.7021,-5.7021,-5.7021,-5.7021,-5.7021,-5.6925,-5.6468,-5.6179,-5.6083,-5.5482,-5.4952,-5.4544,-5.4471,-5.4207,-5.3846,-5.3822,-5.3822,-5.3726,-5.3245,-5.2956,-5.2908,-5.2403,-5.2091,-5.2235,-5.2139,-5.2211,-5.2429,-5.2647,-5.2622,-5.2184,-5.2886,-5.2784,-5.1926,-5.1815,-5.143,-5.0388,-4.9628,-4.9229,-4.9253,-4.9614,-5.0119,-5.0479,-5.0624,-5.0672,-5.0624,-5.0696,-5.0696,-5.0696,-5.0696,-5.0696,-5.0696,-5.0696,-5.0696,-5.0696,-5.0696,-5.0696,-5.0696,-5.0696,-5.0696,-5.0696,-5.0696,-5.0696,-5.0696,-5.0696,-5.0696,-5.0696,-5.0696,-5.0696,-5.0696,-5.0696,-5.0696,-5.0696,-5.0696,-5.0696,-5.0554,-5.0412,-5.0175,-5.0033,-4.958,-4.8549,-4.7163,-4.6299,-4.5405,-4.4428,-4.3615,-4.3615,-4.3615,-4.3615,-4.3615,-4.3615,-4.3615,-4.3615,-4.3615,-4.3615,-4.3615,-4.3615,-4.3615,-4.3615,-4.3594,-4.3532,-4.3491,-4.3325,-4.3139,-4.3035,-6.0652,-6.0123,-5.9594,-5.8993,-5.8343,-5.7959,-5.7502,-5.7045,-5.7021,-5.7021,-5.7021,-5.7021,-5.7021,-5.7021,-5.7021,-5.7021,-5.6973,-5.6492,-5.6035,-5.5578,-5.476,-5.4303,-5.4159,-5.4087,-5.3991,-5.3846,-5.3822,-5.3822,-5.3726,-5.3317,-5.3077,-5.298,-5.2548,-5.2307,-5.2331,-5.2283,-5.2574,-5.3205,-5.3302,-5.3278,-5.3132,-5.3351,-5.2937,-5.1751,-5.1608,-5.1271,-5.062,-5.0357,-5.0191,-5.0167,-5.0359,-5.0527,-5.0672,-5.0696,-5.0696,-5.0696,-5.0696,-5.0696,-5.0696,-5.0696,-5.0696,-5.0696,-5.0696,-5.0696,-5.0696,-5.0696,-5.0696,-5.0696,-5.0696,-5.0696,-5.0696,-5.0696,-5.0696,-5.0696,-5.0696,-5.0696,-5.0696,-5.0696,-5.0696,-5.0696,-5.0696,-5.0696,-5.0696,-5.0696,-5.0625,-5.0412,-5.0175,-5.0033,-4.9652,-4.9126,-4.8259,-4.6891,-4.6203,-4.5405,-4.4277,-4.3615,-4.3615,-4.3615,-4.3615,-4.3615,-4.3615,-4.3615,-4.3615,-4.3615,-4.3615,-4.3615,-4.3615,-4.3615,-4.3615,-4.3615,-4.3573,-4.3573,-4.3594,-4.3491,-4.3325,-6.0965,-6.0388,-5.9474,-5.88,-5.8271,-5.7742,-5.7333,-5.7045,-5.7021,-5.7021,-5.7021,-5.7021,-5.7021,-5.7021,-5.7021,-5.7021,-5.6973,-5.6468,-5.6035,-5.5626,-5.4832,-5.452,-5.4592,-5.4255,-5.4111,-5.4063,-5.3918,-5.3822,-5.3798,-5.351,-5.3341,-5.3269,-5.3004,-5.286,-5.2836,-5.286,-5.3176,-5.3664,-5.3837,-5.3813,-5.3692,-5.3813,-5.3181,-5.1922,-5.1754,-5.1417,-5.0792,-5.0696,-5.0696,-5.0696,-5.0696,-5.0696,-5.0696,-5.0696,-5.0696,-5.0696,-5.0696,-5.0696,-5.0696,-5.0696,-5.0696,-5.0696,-5.0696,-5.0696,-5.0696,-5.0696,-5.0696,-5.0696,-5.0696,-5.0696,-5.0696,-5.0696,-5.0696,-5.0696,-5.0696,-5.0696,-5.0696,-5.0696,-5.0696,-5.0696,-5.0696,-5.0696,-5.0696,-5.0696,-5.0625,-5.0341,-5.0033,-4.9795,-4.9365,-4.8549,-4.753,-4.6596,-4.5779,-4.488,-4.3919,-4.3615,-4.3615,-4.3615,-4.3615,-4.3615,-4.3615,-4.3615,-4.3615,-4.3615,-4.3615,-4.3615,-4.3615,-4.3615,-4.3615,-4.3615,-4.3615,-4.3615,-4.3594,-4.3615,-4.3491,-6.147,-6.0772,-5.9257,-5.8367,-5.7886,-5.7309,-5.7045,-5.7021,-5.7021,-5.7021,-5.7021,-5.7021,-5.7021,-5.7021,-5.7021,-5.7021,-5.6925,-5.6468,-5.6299,-5.6131,-5.5674,-5.5506,-5.5554,-5.4856,-5.4471,-5.4351,-5.4015,-5.3846,-5.3822,-5.3774,-5.3822,-5.375,-5.3702,-5.3774,-5.3678,-5.3774,-5.3702,-5.3876,-5.4199,-5.4129,-5.3715,-5.4129,-5.3642,-5.2162,-5.2139,-5.1778,-5.0984,-5.0768,-5.0696,-5.0696,-5.0696,-5.0696,-5.0696,-5.0696,-5.0696,-5.0696,-5.0696,-5.0696,-5.0696,-5.0696,-5.0696,-5.0696,-5.0696,-5.0696,-5.0696,-5.0696,-5.0696,-5.0696,-5.0696,-5.0696,-5.0696,-5.0696,-5.0696,-5.0696,-5.0696,-5.0696,-5.0696,-5.0696,-5.0696,-5.0696,-5.0696,-5.0696,-5.0696,-5.0696,-5.0625,-5.0483,-5.0033,-4.9747,-4.9293,-4.8476,-4.7112,-4.6299,-4.5555,-4.488,-4.4125,-4.3615,-4.3691,-4.3995,-4.3843,-4.3615,-4.3615,-4.3615,-4.3615,-4.3615,-4.3615,-4.3615,-4.3615,-4.3615,-4.3615,-4.3615,-4.3615,-4.3615,-4.3615,-4.3615,-4.3615,-6.147,-6.0796,-5.9257,-5.8512,-5.8247,-5.743,-5.7021,-5.7021,-5.7021,-5.7021,-5.7021,-5.7021,-5.7021,-5.7021,-5.7021,-5.7021,-5.69,-5.6492,-5.6468,-5.6684,-5.6251,-5.5602,-5.5145,-5.4784,-5.4423,-5.4111,-5.3966,-5.3822,-5.3822,-5.3822,-5.3822,-5.3822,-5.3822,-5.3822,-5.3822,-5.3822,-5.3972,-5.4197,-5.4347,-5.4348,-5.4177,-5.43,-5.3884,-5.2911,-5.25,-5.197,-5.1297,-5.0912,-5.072,-5.0696,-5.0696,-5.0696,-5.0696,-5.0696,-5.0696,-5.0696,-5.0696,-5.0696,-5.0696,-5.0696,-5.0696,-5.0696,-5.0696,-5.0696,-5.0696,-5.0696,-5.0696,-5.0696,-5.0696,-5.0696,-5.0696,-5.0696,-5.0696,-5.0696,-5.0696,-5.0696,-5.0696,-5.0696,-5.0696,-5.0696,-5.0696,-5.0696,-5.0696,-5.0696,-5.0625,-5.0317,-5.0104,-4.9818,-4.9437,-4.8694,-4.753,-4.6596,-4.5853,-4.5181,-4.4579,-4.3995,-4.3843,-4.4277,-4.4125,-4.3615,-4.3615,-4.3615,-4.3615,-4.3615,-4.3615,-4.3615,-4.3615,-4.3615,-4.3615,-4.3615,-4.3615,-4.3615,-4.3615,-4.3615,-4.3615,-6.1807,-6.1205,-5.9834,-5.8993,-5.8536,-5.7694,-5.7237,-5.7045,-5.7021,-5.7021,-5.7021,-5.7021,-5.7021,-5.7021,-5.7021,-5.7021,-5.6973,-5.6708,-5.6756,-5.69,-5.6708,-5.6227,-5.5722,-5.5433,-5.5001,-5.4496,-5.4231,-5.4039,-5.387,-5.3822,-5.3822,-5.3822,-5.3822,-5.3822,-5.3822,-5.3822,-5.3897,-5.4122,-5.4197,-5.4098,-5.4197,-5.4098,-5.3758,-5.3199,-5.274,-5.2307,-5.1562,-5.0984,-5.0696,-5.0696,-5.0696,-5.0696,-5.0696,-5.0696,-5.0696,-5.0696,-5.0696,-5.0696,-5.0696,-5.0696,-5.0696,-5.0696,-5.0696,-5.0696,-5.0696,-5.0696,-5.0696,-5.0696,-5.0696,-5.0696,-5.0696,-5.0696,-5.0696,-5.0696,-5.0696,-5.0696,-5.0696,-5.0696,-5.0696,-5.0696,-5.0696,-5.0696,-5.0696,-5.0696,-5.0554,-5.0412,-5.0246,-5.0033,-4.9723,-4.8838,-4.8018,-4.709,-4.6426,-4.5906,-4.5181,-4.4579,-4.4071,-4.4428,-4.4352,-4.3843,-4.3615,-4.3615,-4.3615,-4.3615,-4.3615,-4.3615,-4.3615,-4.3615,-4.3615,-4.3615,-4.3615,-4.3615,-4.3615,-4.3615,-4.3615,-6.2239,-6.1686,-6.058,-5.9522,-5.8584,-5.8031,-5.7478,-5.7093,-5.7021,-5.7021,-5.7021,-5.7021,-5.7021,-5.7021,-5.7021,-5.7021,-5.7021,-5.6973,-5.6997,-5.7021,-5.6949,-5.6828,-5.6708,-5.6227,-5.5674,-5.5145,-5.4808,-5.4447,-5.4111,-5.3966,-5.3942,-5.3942,-5.3894,-5.3822,-5.3822,-5.3822,-5.3822,-5.3822,-5.3897,-5.3897,-5.3897,-5.3873,-5.3681,-5.3317,-5.3053,-5.2548,-5.1754,-5.1153,-5.0864,-5.0888,-5.0768,-5.072,-5.0696,-5.0696,-5.0696,-5.0696,-5.0696,-5.0696,-5.0696,-5.0696,-5.0696,-5.0696,-5.0696,-5.0696,-5.0696,-5.0696,-5.0696,-5.0696,-5.0696,-5.0696,-5.0696,-5.0696,-5.0696,-5.0696,-5.0696,-5.0696,-5.0696,-5.0696,-5.0696,-5.0696,-5.0696,-5.0696,-5.0696,-5.0696,-5.0696,-5.0554,-5.0412,-5.027,-5.0104,-4.958,-4.8621,-4.7457,-4.7016,-4.6699,-4.598,-4.5181,-4.473,-4.4579,-4.4504,-4.4125,-4.3691,-4.3615,-4.3615,-4.3615,-4.3615,-4.3615,-4.3615,-4.3615,-4.3615,-4.3615,-4.3615,-4.3615,-4.3615,-4.3615,-4.3615,-6.1903,-6.1686,-6.0195,-5.9185,-5.856,-5.8055,-5.7526,-5.7045,-5.7021,-5.7021,-5.7021,-5.7021,-5.7021,-5.7021,-5.7021,-5.7021,-5.7021,-5.7021,-5.7021,-5.7021,-5.7021,-5.7021,-5.6925,-5.6516,-5.5746,-5.5145,-5.5145,-5.4928,-5.4568,-5.4447,-5.4447,-5.4375,-5.4063,-5.3822,-5.3822,-5.3822,-5.3822,-5.3822,-5.3822,-5.3822,-5.3822,-5.3822,-5.3774,-5.3582,-5.3269,-5.2764,-5.2163,-5.161,-5.1537,-5.1634,-5.1201,-5.084,-5.0768,-5.072,-5.0696,-5.0696,-5.0696,-5.0696,-5.0696,-5.0696,-5.0696,-5.0696,-5.0696,-5.0696,-5.0696,-5.0696,-5.0696,-5.0696,-5.0696,-5.0696,-5.0696,-5.0696,-5.0696,-5.0696,-5.0696,-5.0696,-5.0696,-5.0696,-5.0696,-5.0696,-5.0696,-5.0696,-5.0696,-5.0696,-5.0696,-5.0696,-5.0625,-5.0554,-5.0412,-5.0175,-4.9221,-4.8136,-4.8259,-4.7945,-4.6699,-4.5906,-4.5256,-4.473,-4.4428,-4.4222,-4.3767,-4.3615,-4.3615,-4.3615,-4.3615,-4.3615,-4.3615,-4.3615,-4.3615,-4.3615,-4.3615,-4.3615,-4.3615,-4.3615,-4.3615,-6.2023,-6.1686,-6.058,-5.9546,-5.8632,-5.8295,-5.7742,-5.7117,-5.7021,-5.7021,-5.7021,-5.7021,-5.7021,-5.7021,-5.7021,-5.7021,-5.7021,-5.7021,-5.7021,-5.7021,-5.7021,-5.7021,-5.6997,-5.6732,-5.6155,-5.5506,-5.565,-5.5482,-5.5097,-5.4952,-5.4856,-5.4616,-5.4303,-5.4063,-5.3846,-5.3822,-5.3822,-5.3822,-5.3822,-5.3822,-5.3822,-5.3822,-5.3822,-5.3726,-5.3341,-5.2908,-5.262,-5.2139,-5.2043,-5.2067,-5.1754,-5.1297,-5.1056,-5.084,-5.072,-5.0696,-5.0696,-5.0696,-5.0696,-5.0696,-5.0696,-5.0696,-5.0696,-5.0696,-5.0696,-5.0696,-5.0696,-5.0696,-5.0696,-5.0696,-5.0696,-5.0696,-5.0696,-5.0696,-5.0696,-5.0696,-5.0696,-5.0696,-5.0696,-5.0696,-5.0696,-5.0696,-5.0696,-5.0696,-5.0696,-5.0696,-5.0696,-5.0625,-5.0625,-5.0341,-4.9795,-4.9221,-4.9509,-4.915,-4.7749,-4.6647,-4.5704,-4.5031,-4.4352,-4.4071,-4.3691,-4.3615,-4.3615,-4.3615,-4.3615,-4.3615,-4.3615,-4.3615,-4.3615,-4.3615,-4.3615,-4.3615,-4.3615,-4.3615,-4.3615,-6.2071,-6.1614,-6.0989,-5.9883,-5.8704,-5.8488,-5.7886,-5.7093,-5.7021,-5.7021,-5.7021,-5.7021,-5.7021,-5.7021,-5.7021,-5.7021,-5.7021,-5.7021,-5.7021,-5.7021,-5.7021,-5.7021,-5.6997,-5.6925,-5.6756,-5.6371,-5.6347,-5.6035,-5.565,-5.5506,-5.5361,-5.4928,-5.4616,-5.4375,-5.4039,-5.3846,-5.3822,-5.3822,-5.3822,-5.3822,-5.3822,-5.3822,-5.3822,-5.3726,-5.3485,-5.3245,-5.3077,-5.2716,-5.2451,-5.2475,-5.2379,-5.2091,-5.173,-5.1153,-5.0816,-5.084,-5.0792,-5.0696,-5.0696,-5.0696,-5.0696,-5.0696,-5.0696,-5.0696,-5.0696,-5.0696,-5.0696,-5.0696,-5.0696,-5.0696,-5.0696,-5.0696,-5.0696,-5.0696,-5.0696,-5.0696,-5.0696,-5.0696,-5.0696,-5.0696,-5.0696,-5.0696,-5.0696,-5.0696,-5.0696,-5.0696,-5.0696,-5.0696,-5.0696,-5.0625,-5.0104,-4.989,-5.0104,-4.9723,-4.8404,-4.7141,-4.6203,-4.5405,-4.4579,-4.4071,-4.3691,-4.3615,-4.3615,-4.3615,-4.3615,-4.3615,-4.3615,-4.3615,-4.3615,-4.3615,-4.3615,-4.3615,-4.3615,-4.3615,-4.3767,-6.1181,-6.1013,-6.0051,-5.9233,-5.8584,-5.8151,-5.7622,-5.7093,-5.7021,-5.7021,-5.7021,-5.7021,-5.7021,-5.7021,-5.7021,-5.7021,-5.7021,-5.7021,-5.7021,-5.7021,-5.7021,-5.7021,-5.7021,-5.7021,-5.6949,-5.6925,-5.6828,-5.654,-5.6203,-5.6083,-5.5963,-5.577,-5.5121,-5.4616,-5.4375,-5.4087,-5.387,-5.3822,-5.3822,-5.3822,-5.3822,-5.3822,-5.3822,-5.3822,-5.3654,-5.363,-5.3558,-5.3245,-5.3125,-5.3437,-5.274,-5.2572,-5.2499,-5.1898,-5.1441,-5.1225,-5.1032,-5.0888,-5.0816,-5.0792,-5.0744,-5.0696,-5.0768,-5.0744,-5.0744,-5.072,-5.0696,-5.072,-5.072,-5.072,-5.0696,-5.0696,-5.0696,-5.0696,-5.0696,-5.0696,-5.0696,-5.0696,-5.0696,-5.0696,-5.0696,-5.0696,-5.0696,-5.0696,-5.0696,-5.0696,-5.0696,-5.0696,-5.0696,-5.0696,-5.0554,-5.0483,-5.0554,-4.989,-4.891,-4.7726,-4.6603,-4.5832,-4.5031,-4.4277,-4.3919,-4.3691,-4.3615,-4.3615,-4.3615,-4.3691,-4.3691,-4.3691,-4.3843,-4.3919,-4.3843,-4.3615,-4.3691,-4.3767,-4.4352,-6.0796,-6.0484,-5.9714,-5.8921,-5.8223,-5.7935,-5.7502,-5.7069,-5.7021,-5.7021,-5.7021,-5.7021,-5.7021,-5.7021,-5.7021,-5.7021,-5.7021,-5.7021,-5.7021,-5.7021,-5.7021,-5.7021,-5.7021,-5.7021,-5.7021,-5.7021,-5.6997,-5.6925,-5.666,-5.6636,-5.6492,-5.6155,-5.565,-5.5193,-5.4688,-5.4375,-5.4087,-5.3942,-5.3846,-5.3822,-5.3822,-5.3822,-5.3822,-5.3822,-5.3822,-5.3822,-5.3774,-5.3654,-5.3558,-5.3654,-5.3341,-5.3269,-5.3149,-5.2764,-5.2043,-5.1634,-5.1489,-5.1345,-5.1249,-5.1321,-5.1562,-5.1513,-5.1297,-5.1129,-5.1032,-5.0912,-5.0768,-5.0792,-5.1032,-5.0984,-5.0744,-5.072,-5.0696,-5.0696,-5.0696,-5.0696,-5.0696,-5.0696,-5.0696,-5.0696,-5.0696,-5.0696,-5.0696,-5.0696,-5.0696,-5.0696,-5.0696,-5.0696,-5.0696,-5.0696,-5.0696,-5.0696,-5.0696,-5.0341,-4.9437,-4.8236,-4.7118,-4.6255,-4.5234,-4.4579,-4.3995,-4.3691,-4.3615,-4.3615,-4.3691,-4.3691,-4.4125,-4.4277,-4.4298,-4.4222,-4.3919,-4.3767,-4.3843,-4.4071,-4.473,-6.0412,-5.9979,-5.9329,-5.8584,-5.7862,-5.7694,-5.7405,-5.7069,-5.7021,-5.7021,-5.7021,-5.7021,-5.7021,-5.7021,-5.7021,-5.7021,-5.7021,-5.7021,-5.7021,-5.7021,-5.7021,-5.7021,-5.7021,-5.7021,-5.7021,-5.7021,-5.7021,-5.7021,-5.6973,-5.6949,-5.6756,-5.6492,-5.6323,-5.5866,-5.5145,-5.488,-5.4496,-5.4255,-5.3991,-5.3966,-5.3846,-5.3822,-5.3822,-5.3822,-5.3822,-5.3822,-5.3822,-5.3774,-5.3774,-5.3822,-5.3774,-5.3798,-5.375,-5.3437,-5.2788,-5.2067,-5.2139,-5.1994,-5.1898,-5.1922,-5.2115,-5.2091,-5.185,-5.1706,-5.1586,-5.1369,-5.1129,-5.1081,-5.1177,-5.1321,-5.0984,-5.0792,-5.072,-5.0696,-5.0696,-5.0696,-5.0696,-5.0696,-5.0696,-5.0696,-5.0696,-5.0696,-5.0696,-5.0696,-5.0696,-5.0696,-5.0696,-5.0696,-5.0696,-5.0696,-5.0696,-5.0696,-5.0696,-5.0696,-4.9961,-4.8766,-4.7704,-4.6824,-4.5608,-4.4579,-4.4071,-4.3615,-4.3615,-4.3691,-4.3615,-4.3767,-4.4277,-4.473,-4.4428,-4.4201,-4.3974,-4.3974,-4.4352,-4.4805,-4.548,-5.9522,-5.9402,-5.8416,-5.7911,-5.7742,-5.7333,-5.7117,-5.7045,-5.7021,-5.7021,-5.7021,-5.7021,-5.7021,-5.7021,-5.7021,-5.7021,-5.7021,-5.7021,-5.7021,-5.7021,-5.7021,-5.7021,-5.7021,-5.7021,-5.7021,-5.7021,-5.7021,-5.7021,-5.7021,-5.7021,-5.6997,-5.6828,-5.6468,-5.6107,-5.5842,-5.5482,-5.5289,-5.5121,-5.4712,-5.4279,-5.3942,-5.3846,-5.3822,-5.3822,-5.3822,-5.3822,-5.3822,-5.3822,-5.3822,-5.3822,-5.3822,-5.3822,-5.3798,-5.3774,-5.3437,-5.2932,-5.2572,-5.2259,-5.2235,-5.2379,-5.2475,-5.2475,-5.2259,-5.2211,-5.2067,-5.2091,-5.1994,-5.2067,-5.1802,-5.1489,-5.1273,-5.096,-5.0792,-5.0696,-5.0696,-5.0696,-5.0696,-5.0696,-5.0696,-5.0696,-5.0696,-5.0696,-5.0696,-5.0696,-5.0696,-5.0696,-5.0696,-5.0696,-5.0696,-5.0696,-5.0696,-5.0696,-5.0696,-5.0696,-5.0341,-4.9198,-4.8163,-4.7265,-4.5959,-4.4654,-4.3974,-4.3615,-4.3767,-4.3767,-4.3691,-4.4125,-4.5084,-4.5234,-4.4654,-4.4352,-4.4125,-4.4579,-4.5106,-4.563,-4.6203,-5.8656,-5.8872,-5.8127,-5.7622,-5.7357,-5.7117,-5.7021,-5.7021,-5.7021,-5.7021,-5.7021,-5.7021,-5.7021,-5.7021,-5.7021,-5.7021,-5.7021,-5.7021,-5.7021,-5.7021,-5.7021,-5.7021,-5.7021,-5.7021,-5.7021,-5.7021,-5.7021,-5.7021,-5.7021,-5.7021,-5.7021,-5.6973,-5.678,-5.6492,-5.6323,-5.6011,-5.5698,-5.5337,-5.488,-5.4496,-5.4255,-5.4015,-5.3822,-5.3822,-5.3822,-5.3822,-5.3822,-5.3822,-5.3822,-5.3822,-5.3822,-5.3822,-5.3822,-5.3798,-5.3678,-5.3534,-5.3293,-5.3053,-5.2812,-5.298,-5.3053,-5.3029,-5.2884,-5.2596,-5.2451,-5.2548,-5.2572,-5.2283,-5.2067,-5.1826,-5.1489,-5.1008,-5.0816,-5.0696,-5.0696,-5.0696,-5.0696,-5.0696,-5.0696,-5.0696,-5.0696,-5.0696,-5.0696,-5.0696,-5.0696,-5.0696,-5.0696,-5.0696,-5.0696,-5.0696,-5.0696,-5.0696,-5.0696,-5.0696,-5.027,-4.9509,-4.8308,-4.7338,-4.6255,-4.4955,-4.3974,-4.3691,-4.3843,-4.3974,-4.3974,-4.473,-4.5757,-4.5234,-4.4277,-4.4277,-4.4428,-4.4955,-4.5608,-4.6404,-4.6994,-5.8055,-5.8343,-5.7838,-5.7381,-5.7045,-5.7021,-5.7021,-5.7021,-5.7021,-5.7021,-5.7021,-5.7021,-5.7021,-5.7021,-5.7021,-5.7021,-5.7021,-5.7021,-5.7021,-5.7021,-5.7021,-5.7021,-5.7021,-5.7021,-5.7021,-5.7021,-5.7021,-5.7021,-5.7021,-5.7021,-5.7021,-5.7021,-5.6973,-5.6804,-5.654,-5.6395,-5.6203,-5.5674,-5.5313,-5.4952,-5.4592,-5.4231,-5.3991,-5.387,-5.3822,-5.3822,-5.3822,-5.3822,-5.3822,-5.3822,-5.3822,-5.3822,-5.3822,-5.3822,-5.3798,-5.375,-5.3678,-5.3558,-5.3413,-5.351,-5.3774,-5.3702,-5.3558,-5.3125,-5.2884,-5.3053,-5.3173,-5.2812,-5.2355,-5.2067,-5.1682,-5.1129,-5.0792,-5.0696,-5.0696,-5.0696,-5.0696,-5.0696,-5.0696,-5.0696,-5.0696,-5.0696,-5.0696,-5.0696,-5.0696,-5.0696,-5.0696,-5.0696,-5.0696,-5.0696,-5.0696,-5.0696,-5.0696,-5.0696,-5.0483,-4.9723,-4.8526,-4.7485,-4.633,-4.5159,-4.405,-4.3822,-4.3974,-4.4125,-4.4352,-4.473,-4.5533,-4.4654,-4.3974,-4.4859,-4.5512,-4.5533,-4.6055,-4.6994,-4.7653,-5.7838,-5.7838,-5.7309,-5.7069,-5.7021,-5.7021,-5.7021,-5.7021,-5.7021,-5.7021,-5.7021,-5.7021,-5.7021,-5.7021,-5.7021,-5.7021,-5.7021,-5.7021,-5.7021,-5.7021,-5.7021,-5.7021,-5.7021,-5.7021,-5.7021,-5.7021,-5.7021,-5.7021,-5.7021,-5.7021,-5.7021,-5.7021,-5.7021,-5.6997,-5.6925,-5.6804,-5.6636,-5.6227,-5.5963,-5.5433,-5.4904,-5.4496,-5.4279,-5.3894,-5.3822,-5.3822,-5.3822,-5.3822,-5.3822,-5.3822,-5.3822,-5.3822,-5.3822,-5.3822,-5.3822,-5.3822,-5.3822,-5.375,-5.3726,-5.3726,-5.3798,-5.3822,-5.375,-5.363,-5.3485,-5.363,-5.3702,-5.3485,-5.2836,-5.2355,-5.1922,-5.1441,-5.0912,-5.0696,-5.0696,-5.0696,-5.0696,-5.0696,-5.0696,-5.0696,-5.0696,-5.0696,-5.0696,-5.0696,-5.0696,-5.0696,-5.0696,-5.0696,-5.0696,-5.0696,-5.0696,-5.0696,-5.0696,-5.0696,-5.0696,-4.9961,-4.9126,-4.8018,-4.6751,-4.5362,-4.3974,-4.405,-4.4428,-4.4708,-4.5009,-4.5159,-4.5106,-4.473,-4.4859,-4.6033,-4.6551,-4.6181,-4.7016,-4.8259,-4.8453,-5.7333,-5.7309,-5.7117,-5.7021,-5.7021,-5.7021,-5.7021,-5.7021,-5.7021,-5.7021,-5.7021,-5.7021,-5.7021,-5.7021,-5.7021,-5.7021,-5.7021,-5.7021,-5.7021,-5.7021,-5.7021,-5.7021,-5.7021,-5.7021,-5.7021,-5.7021,-5.7021,-5.7021,-5.7021,-5.7021,-5.7021,-5.7021,-5.7021,-5.7021,-5.7021,-5.7021,-5.6876,-5.6708,-5.6371,-5.5818,-5.5241,-5.4712,-5.4351,-5.387,-5.3822,-5.3822,-5.3822,-5.3822,-5.3822,-5.3822,-5.3822,-5.3822,-5.3822,-5.3822,-5.3822,-5.3822,-5.3822,-5.3822,-5.3822,-5.3822,-5.3822,-5.3822,-5.3822,-5.3822,-5.3822,-5.3822,-5.3822,-5.3582,-5.3173,-5.2668,-5.2187,-5.1634,-5.1153,-5.084,-5.0744,-5.0768,-5.0744,-5.0768,-5.0696,-5.0696,-5.0696,-5.0696,-5.0696,-5.0696,-5.0696,-5.0696,-5.0696,-5.0696,-5.0696,-5.0696,-5.0696,-5.0696,-5.0696,-5.0696,-5.0696,-5.0246,-4.9723,-4.8453,-4.7118,-4.5735,-4.4407,-4.473,-4.5106,-4.5459,-4.5608,-4.5608,-4.5459,-4.5181,-4.5459,-4.6181,-4.6477,-4.6426,-4.7676,-4.915,-4.8694,-5.7021,-5.7021,-5.7021,-5.7021,-5.7021,-5.7021,-5.7021,-5.7021,-5.7021,-5.7021,-5.7021,-5.7021,-5.7021,-5.7021,-5.7021,-5.7021,-5.7021,-5.7021,-5.7021,-5.7021,-5.7021,-5.7021,-5.7021,-5.7021,-5.7021,-5.7021,-5.7021,-5.7021,-5.7021,-5.7021,-5.7021,-5.7021,-5.7021,-5.7021,-5.7021,-5.7021,-5.7021,-5.6925,-5.6684,-5.6179,-5.565,-5.5337,-5.488,-5.4447,-5.4399,-5.4255,-5.4183,-5.4111,-5.3991,-5.3894,-5.3822,-5.3822,-5.3822,-5.3822,-5.3822,-5.3822,-5.3822,-5.3822,-5.3822,-5.3822,-5.3822,-5.3822,-5.3822,-5.3822,-5.3822,-5.3822,-5.3822,-5.3774,-5.3341,-5.2908,-5.2475,-5.2043,-5.1706,-5.1465,-5.1129,-5.1081,-5.096,-5.0912,-5.0792,-5.0696,-5.0696,-5.0696,-5.0696,-5.0696,-5.0696,-5.0696,-5.0696,-5.0696,-5.0696,-5.0696,-5.0696,-5.0696,-5.0696,-5.0696,-5.0625,-5.0412,-4.989,-4.8091,-4.6898,-4.6181,-4.5384,-4.5459,-4.5757,-4.6255,-4.6255,-4.6055,-4.5757,-4.5384,-4.5533,-4.5959,-4.6551,-4.7287,-4.7067,-4.8163,-4.758,-5.7021,-5.7021,-5.7021,-5.7021,-5.7021,-5.7021,-5.7021,-5.7021,-5.7021,-5.7021,-5.7021,-5.7021,-5.7021,-5.7021,-5.7021,-5.7021,-5.7021,-5.7021,-5.7021,-5.7021,-5.7021,-5.7021,-5.7021,-5.7021,-5.7021,-5.7021,-5.7021,-5.7021,-5.7021,-5.7021,-5.7021,-5.7021,-5.7021,-5.7021,-5.7021,-5.7021,-5.7021,-5.7021,-5.6973,-5.6612,-5.6203,-5.5987,-5.565,-5.5241,-5.4977,-5.4712,-5.4496,-5.4303,-5.4111,-5.387,-5.3822,-5.3822,-5.3822,-5.3822,-5.3822,-5.3822,-5.3822,-5.3822,-5.3822,-5.3822,-5.3822,-5.3822,-5.3822,-5.3822,-5.3822,-5.3822,-5.3822,-5.3774,-5.3437,-5.3149,-5.286,-5.2596,-5.2307,-5.1946,-5.1586,-5.1297,-5.1177,-5.0912,-5.0768,-5.0696,-5.0696,-5.0696,-5.0696,-5.0696,-5.0696,-5.0696,-5.0696,-5.0696,-5.0696,-5.0696,-5.0696,-5.0696,-5.0696,-5.0696,-5.0696,-5.0696,-4.9961,-4.8091,-4.6824,-4.6181,-4.5832,-4.5757,-4.6181,-4.6824,-4.6773,-4.633,-4.5906,-4.5533,-4.6426,-4.7434,-4.7945,-4.8308,-4.7777,-4.7045,-4.6625,-5.7021,-5.7021,-5.7021,-5.7021,-5.7021,-5.7021,-5.7021,-5.7021,-5.7021,-5.7021,-5.7021,-5.7021,-5.7021,-5.7021,-5.7021,-5.7021,-5.7021,-5.7021,-5.7021,-5.7021,-5.7021,-5.7021,-5.7021,-5.7021,-5.7021,-5.7021,-5.7021,-5.7021,-5.7021,-5.7021,-5.7021,-5.7021,-5.7021,-5.7021,-5.7021,-5.7021,-5.7021,-5.7021,-5.6973,-5.678,-5.6323,-5.6227,-5.6011,-5.5482,-5.5193,-5.4952,-5.4712,-5.452,-5.4159,-5.3894,-5.387,-5.3822,-5.3822,-5.3822,-5.3822,-5.3822,-5.3822,-5.3822,-5.3822,-5.3822,-5.3822,-5.3822,-5.3822,-5.3822,-5.3822,-5.3822,-5.3822,-5.3822,-5.3654,-5.3389,-5.3077,-5.2956,-5.2668,-5.2187,-5.1826,-5.1537,-5.1321,-5.0936,-5.0696,-5.0696,-5.0696,-5.0696,-5.0696,-5.0696,-5.0696,-5.0696,-5.0696,-5.0696,-5.0696,-5.0696,-5.0696,-5.0696,-5.0696,-5.0696,-5.0696,-5.0363,-4.9368,-4.7527,-4.6764,-4.6477,-4.6181,-4.6041,-4.6381,-4.7023,-4.6824,-4.6551,-4.6551,-4.6847,-4.8186,-4.9126,-4.8766,-4.8621,-4.8163,-4.6994,-4.5832,-5.6756,-5.6756,-5.6756,-5.6852,-5.6997,-5.7021,-5.7021,-5.7021,-5.7021,-5.7021,-5.7021,-5.7021,-5.7021,-5.7021,-5.7021,-5.7021,-5.7021,-5.7021,-5.7021,-5.7021,-5.7021,-5.7021,-5.7021,-5.7021,-5.7021,-5.7021,-5.7021,-5.7021,-5.7021,-5.7021,-5.7021,-5.7021,-5.7021,-5.7021,-5.7021,-5.7021,-5.7021,-5.7021,-5.6997,-5.69,-5.6612,-5.6492,-5.6371,-5.6059,-5.5746,-5.5433,-5.5121,-5.4688,-5.4231,-5.4087,-5.3942,-5.3846,-5.3822,-5.3822,-5.3822,-5.3822,-5.3822,-5.3822,-5.3822,-5.3822,-5.3822,-5.3822,-5.3822,-5.3822,-5.3822,-5.3822,-5.3822,-5.3822,-5.3822,-5.3654,-5.3389,-5.3293,-5.3101,-5.2644,-5.2187,-5.1898,-5.161,-5.1249,-5.0696,-5.0696,-5.0696,-5.0696,-5.0696,-5.0696,-5.0696,-5.0696,-5.0696,-5.0696,-5.0696,-5.0696,-5.0696,-5.0696,-5.0624,-5.0527,-5.022,-4.9723,-4.8517,-4.6915,-4.6474,-4.6344,-4.6433,-4.6249,-4.6697,-4.7073,-4.6876,-4.6971,-4.7558,-4.8236,-4.8598,-4.8476,-4.7968,-4.7968,-4.8236,-4.6847,-4.5106,-5.6227,-5.6227,-5.6203,-5.6492,-5.69,-5.6852,-5.69,-5.6973,-5.6973,-5.6973,-5.6973,-5.6973,-5.7021,-5.7021,-5.7021,-5.7021,-5.7021,-5.7021,-5.7021,-5.7021,-5.7021,-5.7021,-5.7021,-5.7021,-5.7021,-5.7021,-5.7021,-5.7021,-5.7021,-5.7021,-5.7021,-5.7021,-5.7021,-5.7021,-5.7021,-5.7021,-5.7021,-5.7021,-5.7021,-5.6949,-5.6852,-5.69,-5.6828,-5.6636,-5.6419,-5.6107,-5.5722,-5.5241,-5.4784,-5.4447,-5.4063,-5.3894,-5.3822,-5.3822,-5.3822,-5.3822,-5.3822,-5.3822,-5.3822,-5.3822,-5.3822,-5.3822,-5.3822,-5.3822,-5.3822,-5.3822,-5.3822,-5.3822,-5.3822,-5.3822,-5.375,-5.3726,-5.3702,-5.3173,-5.2644,-5.2331,-5.2043,-5.1562,-5.0912,-5.0696,-5.0696,-5.0696,-5.0696,-5.0696,-5.0696,-5.0696,-5.0696,-5.0696,-5.0696,-5.0696,-5.0696,-5.0672,-5.0551,-5.0335,-4.991,-4.9274,-4.798,-4.6393,-4.6065,-4.5966,-4.6172,-4.6251,-4.6379,-4.6557,-4.6955,-4.7243,-4.7558,-4.7777,-4.7922,-4.7653,-4.7214,-4.6942,-4.6994,-4.5533,-4.405,-5.6011,-5.565,-5.5626,-5.5746,-5.5842,-5.5866,-5.6083,-5.6444,-5.6468,-5.6468,-5.6492,-5.6852,-5.7021,-5.7021,-5.7021,-5.7021,-5.7021,-5.7021,-5.7021,-5.7021,-5.7021,-5.7021,-5.7021,-5.7021,-5.7021,-5.7021,-5.7021,-5.7021,-5.7021,-5.7021,-5.7021,-5.7021,-5.7021,-5.7021,-5.7021,-5.7021,-5.7021,-5.7021,-5.7021,-5.7021,-5.7021,-5.7021,-5.7021,-5.6925,-5.6419,-5.6083,-5.5698,-5.4977,-5.4471,-5.4111,-5.3942,-5.3822,-5.3822,-5.3822,-5.3822,-5.3822,-5.3822,-5.3822,-5.3822,-5.3822,-5.3822,-5.3822,-5.3822,-5.3822,-5.3822,-5.3822,-5.3822,-5.3822,-5.3822,-5.3822,-5.3822,-5.3822,-5.3822,-5.3534,-5.298,-5.2475,-5.2139,-5.1562,-5.096,-5.0696,-5.0696,-5.0696,-5.0696,-5.0696,-5.0696,-5.0696,-5.0696,-5.0696,-5.0696,-5.0696,-5.0696,-5.0672,-5.0289,-5.0049,-4.9388,-4.8731,-4.7351,-4.6085,-4.5714,-4.5337,-4.5246,-4.5367,-4.5749,-4.6182,-4.6742,-4.7073,-4.7338,-4.7411,-4.7434,-4.6994,-4.6551,-4.6129,-4.5533,-4.4352,-4.3615,-5.5385,-5.5097,-5.5073,-5.5193,-5.5337,-5.5169,-5.5289,-5.5626,-5.6035,-5.6227,-5.6299,-5.678,-5.7021,-5.7021,-5.7021,-5.7021,-5.7021,-5.7021,-5.7021,-5.7021,-5.7021,-5.7021,-5.7021,-5.7021,-5.7021,-5.7021,-5.7021,-5.7021,-5.7021,-5.7021,-5.7021,-5.7021,-5.7021,-5.7021,-5.7021,-5.7021,-5.7021,-5.7021,-5.7021,-5.7021,-5.7021,-5.7021,-5.7021,-5.6876,-5.6203,-5.5938,-5.5626,-5.4856,-5.4568,-5.4231,-5.4135,-5.4015,-5.3918,-5.3822,-5.3822,-5.3822,-5.3822,-5.3822,-5.3822,-5.3822,-5.3822,-5.3822,-5.3822,-5.3822,-5.3822,-5.3822,-5.3822,-5.3822,-5.3822,-5.3822,-5.3822,-5.3822,-5.3822,-5.3798,-5.3173,-5.2572,-5.2043,-5.1489,-5.1105,-5.0792,-5.0696,-5.0696,-5.0696,-5.0696,-5.0696,-5.0696,-5.0696,-5.0696,-5.0696,-5.0696,-5.0696,-5.0696,-5.0193,-4.9691,-4.8939,-4.7981,-4.6657,-4.5545,-4.5062,-4.4709,-4.4497,-4.472,-4.5187,-4.5852,-4.6595,-4.7051,-4.758,-4.6994,-4.6795,-4.6255,-4.5661,-4.5084,-4.4654,-4.4201,-4.3615,-5.4592,-5.4544,-5.4544,-5.4784,-5.5169,-5.4736,-5.4568,-5.4664,-5.5578,-5.6083,-5.6131,-5.6684,-5.69,-5.6804,-5.6732,-5.6852,-5.6876,-5.69,-5.6925,-5.7021,-5.7021,-5.7021,-5.7021,-5.7021,-5.7021,-5.7021,-5.7021,-5.7021,-5.7021,-5.7021,-5.7021,-5.7021,-5.7021,-5.7021,-5.7021,-5.7021,-5.6941,-5.6622,-5.6702,-5.6782,-5.6941,-5.7021,-5.7021,-5.6973,-5.6756,-5.6516,-5.6155,-5.5842,-5.5602,-5.488,-5.4447,-5.4207,-5.3991,-5.3822,-5.3822,-5.3822,-5.3822,-5.3822,-5.3822,-5.3822,-5.3822,-5.3822,-5.3822,-5.3822,-5.3822,-5.3822,-5.3822,-5.3822,-5.3822,-5.3822,-5.3822,-5.3822,-5.3822,-5.3702,-5.3269,-5.2836,-5.2451,-5.1826,-5.1201,-5.0888,-5.0696,-5.0696,-5.0696,-5.0696,-5.0696,-5.0696,-5.0696,-5.0696,-5.0696,-5.0696,-5.0505,-5.0481,-4.9928,-4.9169,-4.7932,-4.6981,-4.5967,-4.505,-4.4546,-4.4105,-4.3921,-4.4205,-4.4743,-4.5742,-4.6726,-4.7417,-4.7799,-4.7016,-4.6055,-4.5234,-4.4654,-4.3974,-4.3615,-4.3691,-4.3691,-5.4375,-5.4015,-5.4015,-5.4087,-5.4183,-5.4063,-5.3991,-5.4063,-5.4688,-5.5025,-5.5193,-5.5938,-5.6419,-5.6395,-5.6059,-5.6227,-5.6828,-5.666,-5.6708,-5.69,-5.7021,-5.7021,-5.7021,-5.7021,-5.6941,-5.7021,-5.7021,-5.6782,-5.6782,-5.6861,-5.6941,-5.7021,-5.6941,-5.6782,-5.6782,-5.6782,-5.6358,-5.5852,-5.5852,-5.6197,-5.6598,-5.6861,-5.7021,-5.6756,-5.6492,-5.5884,-5.5404,-5.4804,-5.4419,-5.3991,-5.4015,-5.3918,-5.3822,-5.3822,-5.3822,-5.3822,-5.3747,-5.3747,-5.3822,-5.3822,-5.3822,-5.3747,-5.3747,-5.3822,-5.3822,-5.3822,-5.3822,-5.3747,-5.3822,-5.3822,-5.3822,-5.3822,-5.3798,-5.3606,-5.3413,-5.3149,-5.286,-5.2091,-5.1345,-5.1032,-5.0792,-5.0696,-5.0696,-5.0696,-5.0696,-5.0696,-5.0696,-5.0696,-5.0696,-5.0672,-5.0076,-4.9908,-4.9544,-4.8648,-4.7349,-4.6403,-4.5531,-4.4891,-4.4342,-4.3833,-4.3364,-4.3998,-4.477,-4.5922,-4.6928,-4.7158,-4.7,-4.6352,-4.5384,-4.4504,-4.4125,-4.3691,-4.3615,-4.3615,-4.3615,-5.3413,-5.3149,-5.3149,-5.3125,-5.3125,-5.3125,-5.3269,-5.3558,-5.4039,-5.4255,-5.4423,-5.5313,-5.5866,-5.5866,-5.553,-5.5794,-5.654,-5.6371,-5.6612,-5.69,-5.7021,-5.7021,-5.7021,-5.6941,-5.6358,-5.6278,-5.5506,-5.5264,-5.6013,-5.6197,-5.6197,-5.6598,-5.6518,-5.6117,-5.6037,-5.5611,-5.5102,-5.451,-5.451,-5.494,-5.5691,-5.6013,-5.6678,-5.647,-5.5984,-5.5254,-5.4747,-5.4176,-5.3795,-5.3613,-5.362,-5.3795,-5.3672,-5.3446,-5.3521,-5.3596,-5.3521,-5.3422,-5.3672,-5.3747,-5.3747,-5.3672,-5.3195,-5.2968,-5.3596,-5.3596,-5.337,-5.3446,-5.3747,-5.3822,-5.3822,-5.3822,-5.3822,-5.3702,-5.3582,-5.3413,-5.286,-5.2115,-5.1586,-5.1297,-5.1008,-5.0696,-5.0696,-5.0696,-5.0696,-5.0696,-5.0696,-5.0696,-5.0696,-5.0577,-5.0052,-4.9248,-4.8727,-4.8114,-4.7048,-4.6172,-4.5507,-4.4846,-4.4252,-4.376,-4.3468,-4.4145,-4.4865,-4.5728,-4.6122,-4.6043,-4.5732,-4.5319,-4.4784,-4.3974,-4.3767,-4.3615,-4.3615,-4.3615,-4.3615,-5.2331,-5.2283,-5.2307,-5.2307,-5.2283,-5.2307,-5.2548,-5.3004,-5.351,-5.3726,-5.3846,-5.4736,-5.5145,-5.5289,-5.5217,-5.5698,-5.6011,-5.6011,-5.6395,-5.6876,-5.7021,-5.7021,-5.6941,-5.6678,-5.5772,-5.4859,-5.3938,-5.4184,-5.4696,-5.4859,-5.5183,-5.6013,-5.5611,-5.4777,-5.437,-5.3856,-5.3258,-5.3093,-5.3093,-5.3198,-5.3856,-5.4673,-5.554,-5.58,-5.5446,-5.4531,-5.4132,-5.3709,-5.3263,-5.3112,-5.2916,-5.3068,-5.3068,-5.274,-5.284,-5.2916,-5.2992,-5.3068,-5.337,-5.3672,-5.3596,-5.3346,-5.2512,-5.2512,-5.312,-5.3271,-5.3044,-5.312,-5.3521,-5.3747,-5.3747,-5.3798,-5.3798,-5.3624,-5.3528,-5.3483,-5.2786,-5.2114,-5.1681,-5.1345,-5.1129,-5.0768,-5.0696,-5.0696,-5.0696,-5.0696,-5.0696,-5.0696,-5.0601,-5.0363,-5.0007,-4.878,-4.7702,-4.7075,-4.6311,-4.5988,-4.5324,-4.496,-4.4366,-4.3849,-4.367,-4.4242,-4.4737,-4.5102,-4.5398,-4.5331,-4.4976,-4.4602,-4.3987,-4.3615,-4.3615,-4.3615,-4.3615,-4.3615,-4.3615,-5.2283,-5.2283,-5.2283,-5.2259,-5.2259,-5.2259,-5.2331,-5.2499,-5.298,-5.3221,-5.3389,-5.3798,-5.4303,-5.4736,-5.4279,-5.4736,-5.5818,-5.5746,-5.6275,-5.69,-5.6804,-5.69,-5.655,-5.5711,-5.4568,-5.3565,-5.2884,-5.3176,-5.3528,-5.3528,-5.3505,-5.3915,-5.3915,-5.3423,-5.3341,-5.2763,-5.2348,-5.2037,-5.1787,-5.187,-5.2309,-5.3131,-5.3932,-5.4015,-5.3634,-5.3125,-5.264,-5.2178,-5.1924,-5.1739,-5.1847,-5.1977,-5.1977,-5.1824,-5.1901,-5.223,-5.2307,-5.2664,-5.2968,-5.3271,-5.3271,-5.2664,-5.2107,-5.2107,-5.2641,-5.2968,-5.2816,-5.2664,-5.3044,-5.3596,-5.3723,-5.375,-5.3726,-5.3278,-5.3033,-5.3043,-5.2662,-5.1818,-5.1097,-5.1033,-5.1056,-5.084,-5.0696,-5.0696,-5.0696,-5.0696,-5.0696,-5.0696,-5.0625,-5.0363,-4.9937,-4.8474,-4.695,-4.573,-4.4865,-4.5439,-4.5119,-4.4823,-4.464,-4.4293,-4.4124,-4.4324,-4.4724,-4.4733,-4.4808,-4.4759,-4.4379,-4.4096,-4.3856,-4.3615,-4.3615,-4.3615,-4.3615,-4.3615,-4.3615]},{"header":{"parameterUnit":"m.s-1","parameterCategory":1,"la1":31.0,"la2":29.5877,"lo1":-88.7671,"lo2":-86.6584,"dy":0.0162,"dx":0.0185,"nx":115,"ny":88,"refTime":"2023-06-24T12:00:00:Z","depth":0,"parameterNumber":3,"parameterNumberName":"V-component_of_WINDS"},"data":[0.0,0.0,0.0,0.0,0.0,0.0,0.0,0.0,0.0,0.0,0.0,0.0,0.0,0.0,0.0,0.0,0.0,0.0,0.0,0.0,0.0,0.0,0.0,0.0,0.0,0.0,0.0,0.0,0.0,0.0,0.0,0.0,0.0,0.0,0.0,0.0,0.0,0.0,0.0,0.0,0.0,0.0,0.0,0.0,0.0,0.0,0.0,0.0,0.0,0.0,0.0,0.0,0.0,0.0,0.0,0.0,0.0,0.0,0.0,0.0,0.0,0.0,0.0,0.0,0.0,0.0,0.0,0.0,0.0,0.0,0.0,0.0,0.0,0.0,0.0,0.0,0.0,0.0,0.0,0.0,0.0,0.0,0.0,0.0,0.0,0.0,0.0,0.0,0.0,0.0,0.0,0.0,0.0,0.0,0.0,0.0,0.0,0.0,0.0,0.0,0.0,0.0,0.0,0.0,0.0,0.0,0.0,0.0,0.0,0.0,0.0,0.0,0.0,0.0,0.0,0.0,0.0,0.0,0.0,0.0,0.0,0.0,0.0,0.0,0.0,0.0,0.0,0.0,0.0,0.0,0.0,0.0,0.0,0.0,0.0,0.0,0.0,0.0,0.0,0.0,0.0,0.0,0.0,0.0,0.0,0.0,0.0,0.0,0.0,0.0,0.0,0.0,0.0,0.0,0.0,0.0,0.0,0.0,0.0,0.0,0.0,0.0,0.0,0.0,0.0,0.0,0.0,0.0,0.0,0.0,0.0,0.0,0.0,0.0,0.0,0.0,0.0,0.0,0.0,0.0,0.0,0.0,0.0,0.0,0.0,0.0,0.0,0.0,0.0,0.0,0.0,0.0,0.0,0.0,0.0,0.0,0.0,0.0,0.0,0.0,0.0,0.0,0.0,0.0,0.0,0.0,0.0,0.0,0.0,0.0,0.0,0.0,0.0,0.0,0.0,0.0,0.0,0.0,0.0,0.0,0.0,0.0,0.0,0.0,0.0,0.0,0.0,0.0,0.0,0.0,0.0,0.0,0.0,0.0,0.0,0.0,0.0,0.0,0.0,0.0,0.0,0.0,0.0,0.0,0.0,0.0,0.0,0.0,0.0,0.0,0.0,0.0,0.0,0.0,0.0,0.0,0.0,0.0,0.0,0.0,0.0,0.0,0.0,0.0,0.0,0.0,0.0,0.0,0.0,0.0,0.0,0.0,0.0,0.0,0.0,0.0,0.0,0.0,0.0,0.0,0.0,0.0,0.0,0.0,0.0,0.0,0.0,0.0,0.0,0.0,0.0,0.0,0.0,0.0,0.0,0.0,0.0,0.0,0.0,0.0,0.0,0.0,0.0,0.0,0.0,0.0,0.0,0.0,0.0,0.0,0.0,0.0,0.0,0.0,0.0,0.0,0.0,0.0,0.0,0.0,0.0,0.0,0.0,0.0,0.0,0.0,0.0,0.0,0.0,0.0,0.0,0.0,0.0,0.0,0.0,0.0,0.0,0.0,0.0,0.0,0.0,0.0,0.0,0.0,0.0,0.0,0.0,0.0,0.0,0.0,0.0,0.0,0.0,0.0,0.0,0.0,0.0,0.0,0.0,0.0,0.0,0.0,0.0,0.0,0.0,0.0,0.0,0.0,0.0,0.0,0.0,0.0,0.0,0.0,0.0,0.0,0.0,0.0,0.0,0.0,0.0,0.0,0.0,0.0,0.0,0.0,0.0,0.0,0.0,0.0,0.0,0.0,0.0,0.0,0.0,0.0,0.0,0.0,0.0,0.0,0.0,0.0,0.0,0.0,0.0,0.0,0.0,0.0,0.0,0.0,0.0,0.0,0.0,0.0,0.0,0.0,0.0,0.0,0.0,0.0,0.0,0.0,0.0,0.0,0.0,0.0,0.0,0.0,0.0,0.0,0.0,0.0,0.0,0.0,0.0,0.0,0.0,0.0,0.0,0.0,0.0,0.0,0.0,0.0,0.0,0.0,0.0,0.0,0.0,0.0,0.0,0.0,0.0,0.0,0.0,0.0,0.0,0.0,0.0,0.0,0.0,0.0,0.0,0.0,0.0,0.0,0.0,0.0,0.0,0.0,0.0,0.0,0.0,0.0,0.0,0.0,0.0,0.0,0.0,0.0,0.0,0.0,0.0,0.0,0.0,0.0,0.0,0.0,0.0,0.0,0.0,0.0,0.0,0.0,0.0,0.0,0.0,0.0,0.0,0.0,0.0,0.0,0.0,0.0,0.0,0.0,0.0,0.0,0.0,0.0,0.0,0.0,0.0,0.0,0.0,0.0,0.0,0.0,0.0,0.0,0.0,0.0,0.0,0.0,0.0,0.0,0.0,0.0,0.0,0.0,0.0,0.0,0.0,0.0,0.0,0.0,0.0,0.0,0.0,0.0,0.0,0.0,0.0,0.0,0.0,0.0,0.0,0.0,0.0,0.0,0.0,0.0,0.0,0.0,0.0,0.0,0.0,0.0,0.0,0.0,0.0,0.0,0.0,0.0,0.0,0.0,0.0,0.0,0.0,0.0,0.0,0.0,0.0,0.0,0.0,0.0,0.0,0.0,0.0,0.0,0.0,0.0,0.0,0.0,0.0,0.0,0.0,0.0,0.0,0.0,0.0,0.0,0.0,0.0,0.0,0.0,0.0,0.0,0.0,0.0,0.0,0.0,0.0,0.0,0.0,0.0,0.0,0.0,0.0,0.0,0.0,0.0,0.0,0.0,0.0,0.0,0.0,0.0,0.0,0.0,0.0,0.0,0.0,0.0,0.0,0.0,0.0,0.0,0.0,0.0,0.0,0.0,0.0,0.0,0.0,0.0,0.0,0.0,0.0,0.0,0.0,0.0,0.0,0.0,0.0,0.0,0.0,0.0,0.0,0.0,0.0,0.0,0.0,0.0,0.0,0.0,0.0,0.0,0.0,0.0,0.0,0.0,0.0,0.0,0.0,0.0,0.0,0.0,0.0,0.0,0.0,0.0,0.0,0.0,0.0,0.0,0.0,0.0,0.0,0.0,0.0,0.0,0.0,0.0,0.0,0.0,0.0,0.0,0.0,0.0,0.0,0.0,0.0,0.0,0.0,0.0,0.0,0.0,0.0,0.0,0.0,0.0,0.0,0.0,0.0,0.0,0.0,0.0,0.0,0.0,0.0,0.0,0.0,0.0,0.0,0.0,0.0,0.0,0.0,0.0,0.0,0.0,0.0,0.0,0.0,0.0,0.0,0.0,0.0,0.0,0.0,0.0,0.0,0.0,0.0,0.0,0.0,0.0,0.0,0.0,0.0,0.0,0.0,0.0,0.0,0.0,0.0,0.0,0.0,0.0,0.0,0.0,0.0,0.0,0.0,0.0,0.0,0.0,0.0,0.0,0.0,0.0,0.0,0.0,0.0,0.0,0.0,0.0,0.0,0.0,0.0,0.0,0.0,0.0,0.0,0.0,0.0,0.0,0.0,0.0,0.0,0.0,0.0,0.0,0.0,0.0,0.0,0.0,0.0,0.0,0.0,0.0,0.0,0.0,0.0,0.0,0.0,0.0,0.0,0.0,0.0,0.0,0.0,0.0,0.0,0.0,0.0,0.0,0.0,0.0,0.0,0.0,0.0,0.0,0.0,0.0,0.0,0.0,0.0,0.0,0.0,0.0,0.0,0.0,0.0,0.0,0.0,0.0,0.0,0.0,0.0,0.0,0.0,0.0,0.0,0.0,0.0,0.0,0.0,0.0,0.0,0.0,0.0,0.0,0.0,0.0,0.0,0.0,0.0,0.0,0.0,0.0,0.0,0.0,0.0,0.0,0.0,0.0,0.0,0.0,0.0,0.0,0.0,0.0,0.0,0.0,0.0,0.0,0.0,0.0,0.0,0.0,0.0,0.0,0.0,0.0,0.0,0.0,0.0,0.0,0.0,0.0,0.0,0.0,0.0,0.0,0.0,0.0,0.0,0.0,0.0,0.0,0.0,0.0,0.0,0.0,0.0,0.0,0.0,0.0,0.0,0.0,0.0,0.0,0.0,0.0,0.0,0.0,0.0,0.0,0.0,0.0,0.0,0.0,0.0,0.0,0.0,0.0,0.0,0.0,0.0,0.0,0.0,0.0,0.0,0.0,0.0,0.0,0.0,0.0,0.0,0.0,0.0,0.0,0.0,0.0,0.0,0.0,0.0,0.0,0.0,0.0,0.0,0.0,0.0,0.0,0.0,0.0,0.0,0.0,0.0,0.0,0.0,0.0,0.0,0.0,0.0,0.0,0.0,0.0,0.0,0.0,0.0,0.0,0.0,0.0,-1.1349,0.0,0.0,0.0,0.0,0.0,0.0,0.0,0.0,0.0,0.0,0.0,0.0,0.0,0.0,0.0,0.0,0.0,0.0,0.0,0.0,0.0,0.0,0.0,0.0,0.0,0.0,0.0,0.0,0.0,0.0,0.0,0.0,0.0,0.0,0.0,0.0,0.0,0.0,0.0,0.0,0.0,0.0,0.0,0.0,0.0,0.0,0.0,0.0,0.0,0.0,0.0,0.0,0.0,0.0,0.0,0.0,0.0,0.0,0.0,0.0,0.0,0.0,0.0,0.0,0.0,0.0,0.0,0.0,0.0,0.0,0.0,0.0,0.0,0.0,0.0,0.0,0.0,0.0,0.0,0.0,0.0,0.0,0.0,0.0,0.0,0.0,0.0,0.0,0.0,0.0,0.0,0.0,0.0,0.0,0.0,0.0,0.0,0.0,0.0,0.0,0.0,0.0,0.0,0.0,0.0,0.0,0.0,0.0,0.0,0.0,-1.2256,-1.2152,-1.2172,-1.2191,-1.216,0.0,0.0,0.0,0.0,0.0,0.0,0.0,0.0,0.0,0.0,0.0,0.0,0.0,0.0,0.0,0.0,0.0,0.0,0.0,0.0,0.0,0.0,0.0,0.0,0.0,0.0,0.0,0.0,0.0,0.0,0.0,0.0,0.0,0.0,0.0,0.0,0.0,0.0,0.0,0.0,0.0,0.0,0.0,0.0,0.0,0.0,0.0,0.0,0.0,0.0,0.0,0.0,0.0,0.0,0.0,0.0,0.0,0.0,0.0,0.0,0.0,0.0,0.0,0.0,0.0,0.0,0.0,0.0,0.0,0.0,0.0,0.0,0.0,0.0,0.0,0.0,0.0,0.0,0.0,0.0,0.0,0.0,0.0,0.0,0.0,0.0,0.0,0.0,0.0,0.0,0.0,0.0,0.0,0.0,0.0,0.0,0.0,0.0,0.0,0.0,0.0,0.0,0.0,0.0,0.0,0.0,0.0,0.0,0.0,0.0,0.0,0.0,-1.2722,-1.2744,-1.2721,0.0,0.0,0.0,0.0,0.0,0.0,0.0,0.0,0.0,0.0,0.0,0.0,0.0,0.0,0.0,0.0,0.0,0.0,0.0,0.0,0.0,0.0,0.0,0.0,0.0,0.0,0.0,0.0,0.0,0.0,0.0,0.0,0.0,0.0,0.0,0.0,0.0,0.0,0.0,0.0,0.0,0.0,0.0,0.0,0.0,0.0,0.0,0.0,0.0,0.0,0.0,0.0,0.0,0.0,0.0,0.0,0.0,0.0,0.0,0.0,0.0,0.0,0.0,0.0,0.0,0.0,0.0,0.0,0.0,0.0,0.0,0.0,0.0,0.0,0.0,0.0,0.0,0.0,0.0,0.0,0.0,0.0,0.0,0.0,0.0,0.0,0.0,0.0,0.0,0.0,0.0,0.0,0.0,0.0,0.0,0.0,0.0,0.0,0.0,0.0,0.0,0.0,0.0,0.0,0.0,0.0,0.0,0.0,0.0,0.0,-1.3588,-1.3076,-1.3187,0.0,-1.2659,0.0,0.0,0.0,0.0,0.0,0.0,0.0,0.0,0.0,0.0,0.0,0.0,0.0,0.0,0.0,0.0,0.0,0.0,0.0,0.0,0.0,0.0,0.0,0.0,0.0,0.0,0.0,0.0,0.0,0.0,0.0,0.0,0.0,0.0,0.0,0.0,0.0,0.0,0.0,0.0,0.0,0.0,0.0,0.0,0.0,0.0,0.0,0.0,0.0,0.0,0.0,0.0,0.0,0.0,0.0,0.0,0.0,0.0,0.0,0.0,0.0,0.0,0.0,0.0,0.0,0.0,0.0,0.0,0.0,0.0,0.0,0.0,0.0,0.0,0.0,0.0,0.0,0.0,0.0,0.0,0.0,0.0,0.0,0.0,0.0,0.0,0.0,0.0,0.0,0.0,0.0,0.0,0.0,0.0,0.0,0.0,0.0,0.0,0.0,0.0,0.0,0.0,0.0,0.0,0.0,0.0,0.0,0.0,0.0,0.0,-1.3914,-1.3747,-1.3906,-1.3713,0.0,0.0,0.0,0.0,0.0,0.0,0.0,0.0,0.0,0.0,0.0,0.0,0.0,0.0,0.0,0.0,0.0,0.0,0.0,0.0,0.0,0.0,0.0,0.0,0.0,0.0,0.0,0.0,0.0,0.0,0.0,0.0,0.0,0.0,0.0,0.0,0.0,0.0,0.0,0.0,0.0,0.0,0.0,0.0,0.0,0.0,0.0,0.0,0.0,0.0,0.0,0.0,0.0,0.0,0.0,0.0,0.0,0.0,0.0,0.0,0.0,0.0,0.0,0.0,0.0,0.0,0.0,0.0,0.0,0.0,0.0,0.0,0.0,0.0,0.0,0.0,0.0,0.0,0.0,0.0,0.0,0.0,0.0,0.0,0.0,0.0,0.0,0.0,0.0,0.0,0.0,0.0,0.0,0.0,0.0,0.0,0.0,0.0,0.0,0.0,0.0,0.0,0.0,0.0,0.0,0.0,0.0,0.0,0.0,0.0,-1.4163,-1.414,-1.4188,-1.4326,-1.4197,-1.3691,0.0,0.0,0.0,0.0,0.0,0.0,0.0,0.0,0.0,0.0,0.0,0.0,0.0,0.0,0.0,0.0,0.0,0.0,0.0,0.0,0.0,0.0,0.0,0.0,0.0,0.0,0.0,0.0,0.0,0.0,0.0,0.0,0.0,0.0,0.0,0.0,0.0,0.0,0.0,0.0,0.0,0.0,0.0,0.0,0.0,0.0,0.0,0.0,0.0,0.0,0.0,0.0,0.0,0.0,0.0,0.0,0.0,0.0,0.0,0.0,0.0,0.0,0.0,0.0,0.0,0.0,0.0,0.0,0.0,0.0,0.0,0.0,0.0,0.0,0.0,0.0,0.0,0.0,0.0,0.0,0.0,0.0,0.0,0.0,0.0,0.0,0.0,0.0,0.0,0.0,0.0,0.0,0.0,0.0,0.0,0.0,0.0,0.0,0.0,0.0,0.0,0.0,0.0,0.0,0.0,0.0,0.0,0.0,-1.4396,-1.4373,-1.4326,-1.4188,-1.435,-1.4326,0.0,0.0,0.0,0.0,0.0,0.0,0.0,0.0,0.0,0.0,0.0,0.0,0.0,0.0,0.0,0.0,0.0,0.0,0.0,0.0,0.0,0.0,0.0,0.0,0.0,0.0,0.0,0.0,0.0,0.0,0.0,0.0,0.0,0.0,0.0,0.0,0.0,0.0,0.0,0.0,0.0,0.0,0.0,0.0,0.0,0.0,0.0,0.0,0.0,0.0,0.0,0.0,0.0,0.0,0.0,0.0,0.0,0.0,0.0,0.0,0.0,0.0,0.0,0.0,0.0,0.0,0.0,0.0,0.0,0.0,0.0,0.0,0.0,0.0,0.0,0.0,0.0,0.0,0.0,0.0,0.0,0.0,0.0,0.0,0.0,0.0,0.0,0.0,0.0,0.0,0.0,0.0,0.0,0.0,0.0,0.0,0.0,0.0,0.0,0.0,0.0,0.0,0.0,0.0,0.0,0.0,0.0,0.0,0.0,-1.465,-1.4581,-1.4512,-1.4512,-1.4443,-1.4443,0.0,0.0,0.0,0.0,0.0,0.0,0.0,0.0,0.0,0.0,0.0,0.0,0.0,0.0,0.0,0.0,0.0,0.0,0.0,0.0,0.0,0.0,0.0,0.0,0.0,0.0,0.0,0.0,0.0,0.0,0.0,0.0,0.0,0.0,0.0,0.0,0.0,0.0,0.0,0.0,0.0,0.0,0.0,0.0,0.0,0.0,0.0,0.0,0.0,0.0,0.0,0.0,0.0,0.0,0.0,0.0,0.0,0.0,0.0,0.0,0.0,0.0,0.0,0.0,0.0,0.0,0.0,0.0,0.0,0.0,0.0,0.0,0.0,0.0,0.0,0.0,0.0,0.0,0.0,0.0,0.0,0.0,0.0,0.0,0.0,0.0,0.0,0.0,0.0,0.0,0.0,0.0,0.0,0.0,0.0,0.0,0.0,0.0,0.0,0.0,0.0,0.0,0.0,0.0,0.0,0.0,0.0,0.0,0.0,-1.5401,0.0,-1.5379,-1.5331,-1.5033,-1.4872,0.0,0.0,0.0,0.0,0.0,0.0,0.0,0.0,0.0,0.0,0.0,0.0,0.0,0.0,0.0,0.0,0.0,0.0,0.0,0.0,0.0,0.0,0.0,0.0,0.0,0.0,0.0,0.0,0.0,0.0,0.0,0.0,0.0,0.0,0.0,0.0,0.0,0.0,0.0,0.0,0.0,0.0,0.0,0.0,0.0,0.0,0.0,0.0,0.0,0.0,0.0,0.0,0.0,0.0,0.0,0.0,0.0,0.0,0.0,0.0,0.0,0.0,0.0,0.0,0.0,0.0,0.0,0.0,0.0,0.0,0.0,0.0,0.0,0.0,0.0,0.0,0.0,0.0,0.0,0.0,0.0,0.0,0.0,0.0,0.0,0.0,0.0,0.0,0.0,0.0,0.0,0.0,0.0,0.0,0.0,0.0,0.0,0.0,0.0,0.0,0.0,0.0,0.0,0.0,0.0,0.0,0.0,0.0,-1.5969,-1.6675,-1.6994,-1.7018,-1.6723,-1.6236,-1.5745,0.0,0.0,0.0,0.0,0.0,0.0,0.0,0.0,0.0,0.0,0.0,0.0,0.0,0.0,0.0,0.0,0.0,0.0,0.0,0.0,0.0,0.0,0.0,0.0,0.0,0.0,0.0,0.0,0.0,0.0,0.0,0.0,0.0,0.0,0.0,0.0,0.0,0.0,0.0,0.0,0.0,0.0,0.0,0.0,0.0,0.0,0.0,0.0,0.0,0.0,0.0,0.0,0.0,0.0,0.0,0.0,0.0,0.0,0.0,0.0,0.0,0.0,0.0,0.0,0.0,0.0,0.0,0.0,0.0,0.0,0.0,0.0,0.0,0.0,0.0,0.0,0.0,0.0,0.0,0.0,0.0,0.0,0.0,0.0,0.0,0.0,0.0,0.0,0.0,0.0,0.0,0.0,0.0,0.0,0.0,0.0,0.0,0.0,0.0,0.0,0.0,0.0,0.0,0.0,0.0,0.0,0.0,0.0,0.0,-1.797,-1.8617,-1.8967,-1.894,-1.8049,-1.7236,0.0,0.0,0.0,0.0,0.0,0.0,0.0,0.0,0.0,0.0,0.0,0.0,0.0,0.0,0.0,0.0,0.0,0.0,0.0,0.0,0.0,0.0,0.0,0.0,0.0,0.0,0.0,0.0,0.0,0.0,0.0,0.0,0.0,0.0,0.0,0.0,0.0,0.0,0.0,0.0,0.0,0.0,0.0,0.0,0.0,0.0,0.0,0.0,0.0,0.0,0.0,0.0,0.0,0.0,0.0,0.0,0.0,0.0,0.0,0.0,0.0,0.0,0.0,0.0,0.0,0.0,0.0,0.0,0.0,0.0,0.0,0.0,0.0,0.0,0.0,0.0,0.0,0.0,0.0,0.0,0.0,0.0,0.0,0.0,0.0,0.0,0.0,0.0,0.0,0.0,0.0,0.0,0.0,0.0,0.0,0.0,0.0,0.0,0.0,0.0,0.0,0.0,0.0,0.0,0.0,0.0,0.0,0.0,0.0,-2.2166,-2.2165,-2.2232,-2.2365,-2.0896,-1.9586,-1.8379,0.0,0.0,0.0,0.0,0.0,0.0,0.0,0.0,0.0,0.0,0.0,0.0,0.0,0.0,0.0,0.0,0.0,0.0,0.0,0.0,0.0,0.0,0.0,0.0,0.0,0.0,0.0,0.0,0.0,0.0,0.0,0.0,0.0,0.0,0.0,0.0,0.0,0.0,0.0,0.0,0.0,0.0,0.0,0.0,0.0,0.0,0.0,0.0,0.0,0.0,0.0,0.0,0.0,0.0,0.0,0.0,0.0,0.0,0.0,0.0,0.0,0.0,0.0,0.0,0.0,0.0,0.0,0.0,0.0,0.0,0.0,0.0,0.0,0.0,0.0,0.0,0.0,0.0,0.0,0.0,0.0,0.0,0.0,0.0,0.0,0.0,0.0,0.0,0.0,0.0,0.0,0.0,0.0,0.0,0.0,0.0,0.0,0.0,0.0,0.0,0.0,0.0,0.0,0.0,0.0,0.0,0.0,0.0,-2.8604,-2.7359,-2.6744,-2.6712,-2.4633,-2.2618,0.0,0.0,0.0,0.0,0.0,0.0,0.0,0.0,0.0,0.0,0.0,0.0,0.0,0.0,0.0,0.0,0.0,0.0,0.0,0.0,0.0,0.0,0.0,0.0,0.0,0.0,0.0,0.0,0.0,0.0,0.0,0.0,0.0,0.0,0.0,0.0,0.0,0.0,0.0,0.0,0.0,0.0,0.0,0.0,0.0,0.0,0.0,0.0,0.0,0.0,0.0,0.0,0.0,0.0,0.0,0.0,0.0,0.0,0.0,0.0,0.0,0.0,0.0,0.0,0.0,0.0,0.0,0.0,0.0,0.0,0.0,0.0,0.0,0.0,0.0,0.0,0.0,0.0,0.0,0.0,0.0,0.0,0.0,0.0,0.0,0.0,0.0,0.0,0.0,0.0,0.0,0.0,0.0,0.0,0.0,0.0,0.0,0.0,0.0,0.0,0.0,0.0,0.0,0.0,0.0,0.0,0.0,0.0,0.0,-3.276,-3.3637,-3.3033,-3.1008,-2.8264,-2.5735,0.0,0.0,0.0,0.0,0.0,0.0,0.0,0.0,0.0,0.0,0.0,0.0,0.0,0.0,0.0,0.0,0.0,0.0,0.0,0.0,0.0,0.0,0.0,0.0,0.0,0.0,0.0,0.0,0.0,0.0,0.0,0.0,0.0,0.0,0.0,0.0,0.0,0.0,0.0,0.0,0.0,0.0,0.0,0.0,0.0,0.0,0.0,0.0,0.0,0.0,0.0,0.0,0.0,0.0,0.0,0.0,0.0,0.0,0.0,0.0,0.0,0.0,0.0,0.0,0.0,0.0,0.0,0.0,0.0,0.0,0.0,0.0,0.0,0.0,0.0,0.0,0.0,0.0,0.0,0.0,0.0,0.0,0.0,0.0,0.0,0.0,0.0,0.0,0.0,0.0,0.0,0.0,0.0,0.0,0.0,0.0,0.0,0.0,0.0,0.0,0.0,0.0,0.0,0.0,0.0,0.0,0.0,0.0,-3.1863,-3.5932,-3.8116,-3.8387,-3.6775,-3.2476,-2.8856,0.0,0.0,0.0,0.0,0.0,0.0,0.0,0.0,0.0,0.0,0.0,0.0,0.0,0.0,0.0,0.0,0.0,0.0,0.0,0.0,0.0,0.0,0.0,0.0,0.0,0.0,0.0,0.0,0.0,0.0,0.0,0.0,0.0,0.0,0.0,0.0,0.0,0.0,0.0,0.0,0.0,0.0,0.0,0.0,0.0,0.0,0.0,0.0,0.0,0.0,0.0,0.0,0.0,0.0,0.0,0.0,0.0,0.0,0.0,0.0,0.0,0.0,0.0,0.0,0.0,0.0,0.0,0.0,0.0,0.0,0.0,0.0,0.0,0.0,0.0,0.0,0.0,0.0,0.0,0.0,0.0,0.0,0.0,0.0,0.0,0.0,0.0,0.0,0.0,0.0,0.0,0.0,0.0,0.0,0.0,0.0,0.0,0.0,0.0,0.0,0.0,0.0,0.0,0.0,0.0,0.0,0.0,0.0,-3.4427,-3.8405,-4.1314,-4.2756,-4.2606,-3.6716,-3.1938,0.0,0.0,0.0,0.0,0.0,0.0,0.0,0.0,0.0,0.0,0.0,0.0,0.0,0.0,0.0,0.0,0.0,0.0,0.0,0.0,0.0,0.0,0.0,0.0,0.0,0.0,0.0,0.0,0.0,0.0,0.0,0.0,0.0,0.0,0.0,0.0,0.0,0.0,0.0,0.0,0.0,0.0,0.0,0.0,0.0,0.0,0.0,0.0,0.0,0.0,0.0,0.0,0.0,0.0,0.0,0.0,0.0,0.0,0.0,0.0,0.0,0.0,0.0,0.0,0.0,0.0,0.0,0.0,0.0,0.0,0.0,0.0,0.0,0.0,0.0,0.0,0.0,0.0,0.0,0.0,0.0,0.0,0.0,0.0,0.0,0.0,0.0,0.0,0.0,0.0,0.0,0.0,0.0,0.0,0.0,0.0,0.0,0.0,0.0,0.0,0.0,0.0,0.0,0.0,0.0,0.0,0.0,0.0,-3.7968,-4.1722,-4.3687,-4.46,-4.4519,-3.9121,-3.4751,0.0,0.0,0.0,0.0,0.0,0.0,0.0,0.0,0.0,0.0,0.0,0.0,0.0,0.0,0.0,0.0,0.0,0.0,0.0,0.0,0.0,0.0,0.0,0.0,0.0,0.0,0.0,0.0,0.0,0.0,0.0,0.0,0.0,0.0,0.0,0.0,0.0,0.0,0.0,0.0,0.0,0.0,0.0,0.0,0.0,0.0,0.0,0.0,-2.8986,0.0,0.0,0.0,0.0,0.0,0.0,0.0,0.0,0.0,0.0,0.0,0.0,0.0,0.0,0.0,0.0,0.0,0.0,0.0,0.0,0.0,0.0,0.0,0.0,0.0,0.0,0.0,0.0,0.0,0.0,0.0,0.0,0.0,0.0,0.0,0.0,0.0,0.0,0.0,0.0,0.0,0.0,0.0,0.0,0.0,0.0,0.0,0.0,0.0,0.0,0.0,0.0,0.0,0.0,0.0,0.0,0.0,0.0,0.0,-4.0455,-4.4567,-4.5947,-4.6754,-4.6829,-4.3049,-3.8808,0.0,0.0,0.0,0.0,0.0,0.0,0.0,0.0,0.0,0.0,0.0,0.0,0.0,0.0,0.0,0.0,0.0,0.0,0.0,0.0,0.0,0.0,0.0,0.0,0.0,0.0,0.0,0.0,0.0,0.0,0.0,0.0,0.0,0.0,0.0,0.0,0.0,0.0,0.0,0.0,0.0,0.0,0.0,0.0,0.0,0.0,0.0,0.0,0.0,0.0,0.0,0.0,0.0,0.0,0.0,0.0,0.0,0.0,0.0,0.0,0.0,0.0,0.0,0.0,0.0,0.0,0.0,0.0,0.0,0.0,0.0,0.0,0.0,0.0,0.0,0.0,0.0,0.0,0.0,0.0,0.0,0.0,0.0,0.0,0.0,0.0,0.0,0.0,0.0,0.0,0.0,0.0,0.0,0.0,0.0,0.0,0.0,0.0,0.0,0.0,0.0,0.0,0.0,0.0,0.0,0.0,0.0,-3.7751,-4.2487,-4.6824,-4.7972,-4.8742,-4.9037,-4.6678,-4.2577,-3.6715,0.0,0.0,0.0,0.0,0.0,0.0,0.0,0.0,0.0,0.0,0.0,0.0,0.0,0.0,0.0,0.0,0.0,0.0,0.0,0.0,0.0,0.0,0.0,0.0,0.0,0.0,0.0,0.0,0.0,0.0,0.0,0.0,0.0,0.0,0.0,0.0,0.0,0.0,-2.5387,-2.7514,0.0,0.0,0.0,0.0,0.0,0.0,0.0,0.0,-3.0903,0.0,0.0,0.0,0.0,0.0,0.0,0.0,0.0,0.0,0.0,0.0,0.0,0.0,0.0,0.0,0.0,0.0,0.0,0.0,0.0,0.0,0.0,0.0,0.0,0.0,0.0,0.0,0.0,0.0,0.0,0.0,0.0,0.0,0.0,0.0,0.0,0.0,0.0,0.0,0.0,0.0,0.0,0.0,0.0,0.0,0.0,0.0,0.0,0.0,0.0,0.0,0.0,0.0,0.0,0.0,0.0,-3.6665,-4.0646,-4.4498,-4.8187,-4.9418,-4.9608,-4.8682,-4.6903,-4.3657,-3.8831,0.0,0.0,0.0,0.0,0.0,0.0,0.0,0.0,0.0,0.0,0.0,0.0,0.0,0.0,0.0,0.0,0.0,0.0,0.0,0.0,0.0,0.0,0.0,0.0,0.0,0.0,0.0,0.0,0.0,0.0,0.0,0.0,0.0,0.0,0.0,0.0,0.0,0.0,0.0,-3.0299,-3.1451,0.0,0.0,0.0,0.0,0.0,0.0,0.0,0.0,-3.3722,0.0,0.0,0.0,0.0,0.0,0.0,0.0,0.0,0.0,0.0,0.0,0.0,0.0,0.0,0.0,0.0,0.0,0.0,0.0,0.0,0.0,0.0,0.0,0.0,0.0,0.0,0.0,0.0,0.0,0.0,0.0,0.0,0.0,0.0,0.0,0.0,0.0,0.0,0.0,0.0,0.0,0.0,0.0,0.0,0.0,0.0,0.0,0.0,0.0,0.0,0.0,0.0,0.0,0.0,0.0,-3.7746,-4.2676,-4.6848,-5.011,-5.1147,-5.1483,-5.1147,-4.8406,-4.4861,0.0,0.0,0.0,0.0,0.0,0.0,0.0,0.0,0.0,0.0,0.0,0.0,0.0,0.0,0.0,0.0,0.0,0.0,0.0,0.0,0.0,0.0,0.0,0.0,0.0,0.0,0.0,0.0,0.0,0.0,0.0,0.0,0.0,0.0,0.0,0.0,0.0,0.0,0.0,0.0,-3.194,-3.3288,-3.4425,0.0,0.0,0.0,0.0,0.0,0.0,-3.537,-3.5461,0.0,0.0,0.0,0.0,0.0,0.0,0.0,0.0,0.0,0.0,0.0,0.0,0.0,0.0,0.0,0.0,0.0,0.0,0.0,0.0,0.0,0.0,0.0,0.0,0.0,0.0,0.0,0.0,0.0,0.0,0.0,0.0,0.0,0.0,0.0,0.0,0.0,0.0,0.0,0.0,0.0,0.0,0.0,0.0,0.0,0.0,0.0,0.0,0.0,0.0,0.0,0.0,0.0,0.0,0.0,-3.8536,-4.4254,-4.8681,-5.1542,-5.248,-5.2909,-5.2994,-4.9358,-4.5411,0.0,0.0,0.0,0.0,0.0,0.0,0.0,0.0,0.0,0.0,0.0,0.0,0.0,0.0,0.0,0.0,0.0,0.0,0.0,0.0,0.0,0.0,0.0,0.0,0.0,0.0,0.0,0.0,0.0,0.0,0.0,0.0,0.0,0.0,0.0,0.0,0.0,0.0,0.0,0.0,0.0,-3.5248,-3.64,-3.6316,0.0,0.0,0.0,0.0,-3.6507,-3.734,0.0,0.0,0.0,0.0,0.0,0.0,0.0,0.0,0.0,0.0,0.0,0.0,0.0,0.0,0.0,0.0,0.0,0.0,0.0,0.0,0.0,0.0,0.0,0.0,0.0,0.0,0.0,0.0,0.0,0.0,0.0,0.0,0.0,0.0,0.0,0.0,0.0,0.0,0.0,0.0,0.0,0.0,0.0,0.0,0.0,0.0,0.0,0.0,0.0,0.0,0.0,0.0,0.0,0.0,0.0,0.0,-4.0773,-4.5306,-4.8931,-5.1595,-5.288,-5.2766,-5.1166,-4.8141,-4.4297,0.0,0.0,0.0,0.0,0.0,0.0,0.0,0.0,0.0,0.0,0.0,0.0,0.0,0.0,0.0,0.0,0.0,0.0,0.0,0.0,0.0,0.0,0.0,0.0,0.0,0.0,0.0,0.0,0.0,0.0,0.0,0.0,0.0,0.0,0.0,0.0,0.0,0.0,0.0,0.0,0.0,-3.7647,-3.8699,-3.9059,-3.8829,0.0,0.0,-3.989,-3.9955,-4.1382,0.0,0.0,0.0,0.0,0.0,0.0,0.0,0.0,0.0,0.0,0.0,0.0,0.0,0.0,0.0,0.0,0.0,0.0,0.0,0.0,0.0,0.0,0.0,0.0,0.0,0.0,0.0,0.0,0.0,0.0,0.0,0.0,0.0,0.0,0.0,0.0,0.0,0.0,0.0,0.0,0.0,0.0,0.0,0.0,0.0,0.0,0.0,0.0,0.0,0.0,0.0,0.0,0.0,0.0,0.0,-3.7662,-4.2396,-4.6659,-4.9939,-5.2122,-5.3073,-5.316,-5.2324,-4.8615,-4.4915,0.0,0.0,0.0,0.0,0.0,0.0,0.0,0.0,0.0,0.0,0.0,0.0,0.0,0.0,0.0,0.0,0.0,0.0,0.0,0.0,0.0,0.0,0.0,0.0,0.0,0.0,0.0,0.0,0.0,0.0,0.0,0.0,0.0,0.0,0.0,0.0,0.0,0.0,0.0,0.0,0.0,0.0,-4.0746,-4.1751,0.0,0.0,0.0,-4.2767,-4.2581,0.0,0.0,0.0,0.0,0.0,0.0,0.0,0.0,0.0,0.0,0.0,0.0,0.0,0.0,0.0,0.0,0.0,0.0,0.0,0.0,0.0,0.0,0.0,0.0,0.0,0.0,0.0,0.0,0.0,0.0,0.0,0.0,0.0,0.0,0.0,0.0,0.0,0.0,0.0,0.0,0.0,0.0,0.0,0.0,0.0,0.0,0.0,0.0,0.0,0.0,0.0,0.0,0.0,0.0,0.0,0.0,0.0,-4.3761,-4.7843,-5.0909,-5.2746,-5.3442,-5.3617,-5.321,-4.9204,0.0,0.0,0.0,0.0,0.0,0.0,0.0,0.0,0.0,0.0,0.0,0.0,0.0,0.0,0.0,0.0,0.0,0.0,0.0,0.0,0.0,0.0,0.0,0.0,0.0,0.0,0.0,-2.6323,0.0,0.0,0.0,0.0,0.0,0.0,0.0,0.0,0.0,0.0,0.0,0.0,0.0,0.0,-4.1454,-4.2695,-4.4243,-4.5041,0.0,0.0,-4.5325,-4.4868,-4.5649,-4.5587,0.0,0.0,0.0,0.0,0.0,0.0,0.0,0.0,0.0,0.0,0.0,0.0,0.0,0.0,0.0,0.0,0.0,0.0,0.0,0.0,0.0,0.0,0.0,0.0,0.0,0.0,0.0,0.0,0.0,0.0,0.0,0.0,0.0,0.0,0.0,0.0,0.0,0.0,0.0,0.0,0.0,0.0,0.0,0.0,0.0,0.0,0.0,0.0,0.0,0.0,0.0,0.0,0.0,0.0,0.0,-4.4763,-4.8653,-5.1527,-5.3384,-5.411,-5.3878,-5.2681,-4.9485,-4.6227,0.0,0.0,0.0,0.0,0.0,0.0,0.0,0.0,0.0,0.0,0.0,0.0,0.0,0.0,0.0,0.0,0.0,0.0,0.0,0.0,0.0,0.0,0.0,0.0,0.0,0.0,0.0,0.0,0.0,0.0,0.0,0.0,0.0,0.0,0.0,0.0,0.0,0.0,0.0,0.0,0.0,-4.3164,-4.4496,-4.6571,-4.7845,0.0,0.0,-4.7667,-4.6857,-4.8697,-4.8666,-4.3879,0.0,0.0,0.0,0.0,0.0,0.0,0.0,0.0,0.0,0.0,0.0,0.0,0.0,0.0,0.0,0.0,0.0,0.0,0.0,0.0,0.0,0.0,0.0,0.0,0.0,0.0,0.0,0.0,0.0,0.0,0.0,0.0,0.0,0.0,0.0,0.0,0.0,0.0,0.0,0.0,0.0,0.0,0.0,0.0,0.0,0.0,0.0,0.0,0.0,0.0,0.0,0.0,0.0,-4.1565,-4.5903,-4.9201,-5.1837,-5.3675,-5.3867,-5.3675,-5.3152,-5.0572,-4.773,0.0,0.0,0.0,0.0,0.0,0.0,0.0,0.0,0.0,0.0,0.0,0.0,0.0,0.0,0.0,0.0,0.0,0.0,0.0,0.0,0.0,0.0,0.0,0.0,0.0,0.0,0.0,0.0,-3.5092,-3.5369,-3.5002,0.0,0.0,0.0,0.0,0.0,0.0,0.0,0.0,0.0,0.0,-4.4787,-4.6352,-4.8368,0.0,0.0,-4.9387,-4.9419,-4.8466,-4.8676,-4.8004,-4.5138,-4.2893,0.0,0.0,0.0,0.0,0.0,0.0,0.0,0.0,0.0,0.0,0.0,0.0,0.0,0.0,0.0,0.0,0.0,0.0,0.0,0.0,0.0,0.0,0.0,0.0,0.0,0.0,0.0,0.0,0.0,0.0,0.0,0.0,0.0,0.0,0.0,0.0,0.0,0.0,0.0,0.0,0.0,0.0,0.0,0.0,0.0,0.0,0.0,0.0,0.0,0.0,0.0,0.0,-4.3024,-4.6845,-5.0074,-5.244,-5.3964,-5.4071,-5.3967,-5.3704,-5.1608,-4.9267,0.0,0.0,0.0,0.0,0.0,0.0,0.0,0.0,0.0,0.0,0.0,0.0,0.0,0.0,0.0,0.0,0.0,0.0,0.0,0.0,0.0,0.0,0.0,0.0,0.0,0.0,0.0,0.0,-3.7606,-3.7122,-3.5706,0.0,0.0,0.0,0.0,0.0,0.0,0.0,0.0,0.0,0.0,-4.6462,-4.7874,-4.9696,-5.0727,-5.0159,-5.0275,-5.0122,-4.9447,-4.8422,-4.7325,-4.6076,0.0,0.0,0.0,0.0,0.0,0.0,0.0,0.0,0.0,0.0,0.0,0.0,0.0,0.0,0.0,0.0,0.0,0.0,0.0,0.0,0.0,0.0,0.0,0.0,0.0,0.0,0.0,0.0,0.0,0.0,-2.6233,0.0,0.0,0.0,0.0,0.0,0.0,0.0,0.0,0.0,0.0,0.0,0.0,0.0,0.0,0.0,0.0,0.0,0.0,0.0,0.0,0.0,0.0,-4.3714,-4.7568,-5.1345,-5.3647,-5.4304,-5.4952,-5.49,-5.4223,-5.2446,-5.0434,-4.8126,0.0,0.0,0.0,0.0,0.0,0.0,0.0,0.0,0.0,0.0,0.0,0.0,0.0,0.0,0.0,0.0,0.0,0.0,0.0,0.0,0.0,0.0,0.0,0.0,0.0,0.0,-3.8124,-3.851,-3.7838,0.0,0.0,0.0,0.0,0.0,0.0,0.0,0.0,0.0,0.0,-4.5497,-4.8199,-4.9116,-5.0403,-5.1245,-5.1276,-5.035,-4.9627,-4.9595,-4.8373,-4.7183,0.0,0.0,0.0,0.0,0.0,0.0,0.0,0.0,0.0,0.0,0.0,0.0,0.0,0.0,0.0,0.0,0.0,0.0,0.0,0.0,0.0,0.0,0.0,0.0,0.0,0.0,0.0,-3.2772,-3.3452,0.0,0.0,0.0,0.0,0.0,0.0,0.0,0.0,0.0,0.0,0.0,-4.2334,-4.2455,0.0,0.0,0.0,0.0,0.0,0.0,0.0,0.0,0.0,0.0,0.0,0.0,-4.4977,-4.8045,-5.1357,-5.3544,-5.459,-5.4643,-5.4539,-5.4304,-5.3301,-5.1208,-4.7904,0.0,0.0,0.0,0.0,0.0,0.0,0.0,0.0,0.0,0.0,0.0,0.0,0.0,0.0,0.0,0.0,0.0,0.0,0.0,0.0,0.0,0.0,0.0,0.0,0.0,-3.8442,0.0,0.0,0.0,0.0,0.0,0.0,0.0,0.0,0.0,0.0,0.0,-4.1661,-4.4528,-4.6459,-4.8176,-4.9759,-5.0465,-5.1215,0.0,0.0,0.0,0.0,0.0,0.0,0.0,0.0,0.0,0.0,0.0,0.0,0.0,0.0,-4.5762,-4.27,-4.2539,-4.2959,-4.3176,0.0,0.0,0.0,0.0,0.0,0.0,0.0,0.0,0.0,0.0,0.0,0.0,0.0,0.0,-3.7357,0.0,-3.816,0.0,0.0,0.0,0.0,0.0,0.0,0.0,0.0,-4.5173,-4.6575,-4.7391,-4.7629,-4.7718,0.0,-4.6575,-4.421,0.0,0.0,0.0,0.0,0.0,0.0,0.0,0.0,-4.6561,-4.8985,-5.2312,-5.43,-5.4926,-5.5137,-5.5056,-5.4641,-5.3473,-5.1609,-4.8919,-4.618,-4.3525,0.0,0.0,0.0,0.0,0.0,0.0,0.0,0.0,0.0,0.0,0.0,0.0,0.0,0.0,0.0,0.0,0.0,0.0,0.0,0.0,0.0,0.0,0.0,-4.043,0.0,0.0,0.0,0.0,0.0,0.0,0.0,0.0,0.0,-4.0466,-4.1969,-4.4006,-4.6653,-4.7989,-4.9059,-5.0025,0.0,0.0,0.0,0.0,0.0,0.0,0.0,-4.8565,-4.8914,-4.9091,-4.9758,-5.1415,-5.2056,-5.223,-5.1927,0.0,0.0,-4.7374,-4.6914,-4.7407,-4.7836,-4.8134,-4.8398,-4.873,-4.916,-4.9724,0.0,0.0,0.0,0.0,0.0,0.0,0.0,0.0,-4.1728,-4.2087,0.0,-4.2353,0.0,0.0,0.0,0.0,0.0,-4.4038,0.0,0.0,-5.2085,-5.3826,-5.2474,-5.2983,-5.3313,-5.3223,-5.1319,-5.0062,-4.9269,-4.5436,0.0,0.0,0.0,0.0,0.0,0.0,-4.8327,-5.0285,-5.4132,-5.5867,-5.5329,-5.6436,-5.6466,-5.5209,-5.3128,-5.1768,-5.1152,-4.8342,-4.6223,-4.5144,-4.1892,0.0,0.0,0.0,0.0,0.0,0.0,0.0,0.0,0.0,0.0,0.0,0.0,0.0,0.0,0.0,0.0,0.0,0.0,0.0,0.0,-4.1913,0.0,0.0,0.0,0.0,0.0,0.0,0.0,0.0,0.0,0.0,-4.351,-4.5122,-4.6833,-4.8373,0.0,0.0,0.0,0.0,-5.2387,-5.162,-5.1614,-5.182,-5.2105,-5.1662,-5.1674,-5.2838,0.0,0.0,-5.7371,-5.7225,-5.6707,-5.5853,-5.7027,-5.668,-5.2539,-5.1711,-5.181,-5.2473,-5.2175,-5.1912,-5.244,-5.287,-5.3235,-4.3777,0.0,0.0,0.0,0.0,-4.1789,-4.4574,-4.8601,-4.8106,-4.8639,-4.9715,-4.9117,0.0,0.0,0.0,0.0,0.0,0.0,-4.9893,-5.1986,-5.4473,-5.5849,-5.6325,-5.6537,-5.6597,-5.6567,-5.534,-5.4669,-5.4398,-5.2624,-4.9179,-4.4257,0.0,0.0,0.0,0.0,-4.9673,-5.1678,-5.464,-5.6338,-5.6555,-5.6466,-5.6017,-5.5209,-5.4142,-5.3036,-5.1947,-5.0581,-4.882,-4.6542,-4.475,0.0,0.0,0.0,0.0,0.0,0.0,0.0,0.0,0.0,0.0,0.0,0.0,0.0,0.0,0.0,0.0,0.0,0.0,0.0,-4.2721,-4.2993,-4.2389,0.0,0.0,0.0,0.0,0.0,0.0,0.0,0.0,0.0,-4.8082,-4.8075,-4.8475,0.0,0.0,-5.1322,-5.166,-5.2086,-5.2912,-5.4246,-5.3323,0.0,0.0,-5.4746,-5.4445,-5.5949,-5.8005,-5.9778,-6.0713,-6.1616,-6.2113,-6.173,-6.2534,-6.2477,-6.0324,-5.8071,-5.7077,-5.7608,-5.7641,-5.7574,-5.7773,-5.8237,-5.8535,-5.3218,-4.9098,-4.5623,-4.5225,-4.6956,-4.76,-5.0271,-5.4072,-5.3516,-5.3883,-5.4939,-5.4111,-5.2238,-4.9569,-4.8832,0.0,0.0,0.0,-5.3847,-5.6176,-5.7516,-5.8531,-5.9188,-5.9492,-5.9583,-5.9553,-5.8382,-5.7855,-5.7928,-5.6342,-5.3492,-4.9494,0.0,0.0,-4.7698,-4.9763,-5.1648,-5.3384,-5.5448,-5.6705,-5.7094,-5.6735,-5.6346,-5.5927,-5.5059,-5.4102,-5.3025,-5.2336,-5.102,-4.8925,-4.7665,-4.6214,0.0,0.0,0.0,0.0,0.0,0.0,0.0,0.0,0.0,0.0,0.0,-3.8489,0.0,0.0,0.0,0.0,-4.2164,-4.3888,-4.5483,-4.5136,0.0,0.0,0.0,0.0,0.0,0.0,0.0,-4.4369,-4.6816,-4.9125,-5.0829,-5.1215,-5.1487,-5.205,-5.2282,-5.2513,-5.2881,0.0,-5.436,-5.5566,-5.5215,-5.5651,-5.7867,-5.7687,-5.7988,-6.0298,-6.2028,-6.3338,-6.3835,-6.4664,-6.4995,-6.4564,-6.4929,-6.5127,-6.4266,-6.2643,-6.1483,-6.1682,-6.1483,-6.1384,-6.1649,-6.1881,-6.1914,-6.1759,-6.0473,-5.2368,-5.0378,-5.2515,-5.3258,-5.5338,-5.8187,-5.8157,-5.8282,-5.8449,-5.775,-5.6735,-5.5335,-5.3556,0.0,-5.5765,-5.647,-5.7817,-5.9634,-6.0919,-6.134,-6.1186,-6.1734,-6.2038,-6.1916,-6.0462,-5.9857,-5.9917,-5.7699,-5.6312,-5.5842,-5.3789,-5.2294,-5.1498,-5.2714,-5.4031,-5.5289,-5.6577,-5.7236,-5.7184,-5.7184,-5.7124,-5.7004,-5.5837,-5.485,-5.4211,-5.3522,-5.266,-5.1679,-5.0412,-4.9018,-4.7507,0.0,0.0,0.0,0.0,0.0,0.0,0.0,0.0,0.0,0.0,0.0,0.0,0.0,0.0,0.0,-4.5851,0.0,-4.8502,-4.8098,0.0,0.0,0.0,-4.4919,-4.483,-4.551,-4.6445,-4.77,0.0,0.0,-5.2585,-5.4393,-5.5391,-5.4785,-5.4524,-5.4321,-5.4223,-5.5729,-5.6606,-5.6492,-5.7556,-5.8839,-5.9954,-6.0663,-6.2077,-6.4718,-6.6121,-6.6308,-6.6552,-6.6552,-6.6055,-6.5127,-6.5227,-6.5558,-6.5525,-6.5437,-6.5359,-6.4685,-6.3989,-6.368,-6.4177,-6.3879,-6.3657,-6.6095,-6.5443,-6.3782,-6.1609,-5.9369,-6.0481,-6.1956,-6.3543,-6.2804,-6.2646,-6.286,-6.1668,-6.0215,-5.8642,-5.8182,-5.8262,-5.8804,-6.0004,-6.0751,-6.1274,-6.2073,-6.2419,-6.2365,-6.2518,-6.2334,-6.1844,-6.1241,-6.0738,-6.0302,-5.9986,-5.9304,-5.8183,-5.7462,-5.5742,-5.3194,-5.4338,-5.5471,-5.6233,-5.7527,-5.8083,-5.7872,-5.7872,-5.7423,-5.6406,-5.5628,-5.474,-5.3796,-5.3104,-5.2446,-5.194,-5.1122,-5.0134,-4.887,-4.6822,0.0,0.0,0.0,0.0,0.0,0.0,0.0,0.0,0.0,-4.2677,-4.3537,0.0,-4.5472,0.0,-4.7867,-4.977,-5.0991,-5.0505,0.0,0.0,-5.0066,-5.0178,-5.0907,-5.2313,-5.3244,-5.3195,-5.4461,-5.566,-5.6461,-5.6994,-5.7574,-5.8198,-5.7965,-5.784,-5.8263,-5.914,-5.9986,-6.0348,-6.1302,-6.2678,-6.3774,-6.47,-6.5519,-6.687,-6.6817,-6.6883,-6.7976,-6.7711,-6.7413,-6.7546,-6.7314,-6.6995,-6.6578,-6.6989,-6.7145,-6.6645,-6.5824,-6.5226,-6.5426,-6.5292,-6.5016,-6.8111,-6.797,-6.8607,-6.7393,-6.5116,-6.5064,-6.5569,-6.6277,-6.546,-6.5242,-6.5494,-6.4451,-6.3248,-6.2086,-6.2056,-6.221,-6.2548,-6.2979,-6.3349,-6.3626,-6.3718,-6.3749,-6.3749,-6.3749,-6.3564,-6.3195,-6.2587,-6.2143,-6.1913,-6.1568,-6.1126,-6.0502,-6.0076,-5.8859,-5.6909,-5.6295,-5.6334,-5.6998,-5.797,-5.8527,-5.853,-5.8261,-5.7536,-5.635,-5.5461,-5.4545,-5.3455,-5.2882,-5.2398,-5.1984,-5.1601,-5.0892,-4.9797,-4.7995,-4.6181,0.0,0.0,0.0,0.0,0.0,0.0,0.0,0.0,0.0,0.0,0.0,-4.8098,-4.8916,-5.0703,-5.2374,-5.3827,-5.3579,-5.3543,-5.4166,-5.4241,-5.4473,-5.5058,-5.6256,-5.6963,-5.6724,-5.7793,-5.8827,-5.9485,-5.9579,-6.0031,-6.1227,-6.0871,-6.0389,-6.0264,-6.1033,-6.1847,-6.2222,-6.3205,-6.4448,-6.5853,-6.686,-6.7612,-6.7976,-6.8042,-6.8175,-6.8606,-6.8374,-6.8188,-6.8281,-6.7796,-6.7198,-6.6967,-6.6912,-6.689,-6.6612,-6.6168,-6.5946,-6.6213,-6.6013,-6.5603,-6.9228,-6.9549,-7.0188,-7.0312,-6.9914,-6.836,-6.772,-6.7892,-6.7161,-6.6936,-6.7012,-6.6427,-6.578,-6.5165,-6.5165,-6.5472,-6.5996,-6.5442,-6.5472,-6.5965,-6.5349,-6.5042,-6.5011,-6.4918,-6.4857,-6.4734,-6.3844,-6.3507,-6.3633,-6.2707,-6.2293,-6.2449,-6.1904,-6.1377,-6.0812,-5.8352,-5.7251,-5.754,-5.8241,-5.8737,-5.9003,-5.8464,-5.7611,-5.6485,-5.5296,-5.4157,-5.3131,-5.2595,-5.2188,-5.1822,-5.1803,-5.1406,-5.0435,-4.8755,-4.7276,0.0,-4.4315,0.0,0.0,0.0,0.0,0.0,0.0,0.0,0.0,-4.9655,-5.0985,-5.2872,-5.3999,-5.5302,-5.6839,-5.6964,-5.726,-5.8088,-5.8151,-5.823,-5.8498,-5.903,-5.9326,-5.9374,-6.042,-6.1421,-6.1921,-6.1964,-6.2464,-6.3422,-6.3266,-6.2598,-6.164,-6.2234,-6.2871,-6.2902,-6.3885,-6.5162,-6.6306,-6.7509,-6.8307,-6.8506,-6.8705,-6.9202,-6.8572,-6.8407,-6.8268,-6.782,-6.72,-6.6779,-6.6746,-6.6257,-6.589,-6.5934,-6.5901,-6.6024,-6.6446,-6.6213,-6.5813,-7.2231,-7.1901,-7.2887,-7.3227,-7.3044,-7.166,-7.0738,-7.0245,-6.9538,-6.8677,-6.775,-6.7596,-6.7165,-6.655,-6.6519,-6.6611,-6.6735,-6.6581,-6.6611,-6.6704,-6.6027,-6.5719,-6.5688,-6.5165,-6.4611,-6.4057,-6.3848,-6.3479,-6.301,-6.3302,-6.3217,-6.2718,-6.2395,-6.1812,-6.0981,0.0,0.0,0.0,-5.8768,-5.9084,-5.864,-5.87,-5.7868,-5.6072,-5.4728,0.0,-5.2536,-5.1506,-5.1018,-5.1184,-5.1324,0.0,0.0,0.0,0.0,0.0,0.0,0.0,0.0,0.0,0.0,0.0,-5.0497,-5.1152,-5.1545,-5.3694,-5.5596,-5.6867,-5.7687,-5.861,-5.9838,-5.9941,-6.0423,-6.1531,-6.1676,-6.2128,-6.3066,-6.3274,-6.3369,-6.3369,-6.3621,-6.381,-6.3936,-6.3968,-6.4063,-6.4326,-6.4725,-6.4934,-6.4567,-6.4046,-6.388,-6.39,-6.5007,-6.6031,-6.6722,-6.6991,-6.7413,-6.7612,-6.738,-6.7413,-6.7744,-6.7347,-6.6982,-6.6841,-6.6379,-6.6046,-6.6046,-6.6055,-6.6009,-6.6009,-6.6009,-6.6032,-6.599,-6.5913,-6.5736,-7.3639,0.0,-7.402,-7.418,0.0,-7.326,-7.2583,-7.1844,-7.049,-6.932,-6.8397,-6.8397,-6.8397,-6.8366,-6.8027,-6.8089,-6.8366,-6.772,-6.7227,-6.6888,-6.6211,-6.5719,-6.5411,-6.5072,-6.4703,-6.4364,-6.4364,-6.418,-6.3872,-6.418,-6.418,-6.3841,-6.3537,-6.3165,-6.2689,-6.1659,-6.0449,-5.8932,-5.8972,-5.8941,-5.8804,-5.861,-5.7803,-5.6244,0.0,0.0,0.0,0.0,0.0,0.0,0.0,0.0,0.0,0.0,0.0,-5.061,-5.0071,-4.9853,-5.004,-5.0071,-5.0774,-5.2392,-5.4683,-5.5628,-5.4727,-5.7053,-5.8814,-5.9394,-6.0023,-6.0928,-6.2117,-6.2302,-6.2792,-6.3994,-6.4171,-6.4538,-6.5376,-6.5543,-6.5543,-6.5543,-6.5543,-6.5543,-6.5543,-6.5227,-6.5037,-6.5037,-6.5037,-6.51,-6.51,-6.525,-6.5491,-6.6027,-6.6635,-6.7297,-6.7692,-6.7691,-6.7512,-6.7612,-6.7268,-6.7202,-6.7499,-6.7268,-6.7082,-6.7152,-6.6723,-6.6346,-6.6313,-6.6134,-6.5911,-6.579,-6.5746,-6.5702,-6.5647,-6.5692,-6.578,-7.4367,-7.4534,-7.4534,-7.4421,-7.4153,-7.3907,-7.3414,-7.2675,0.0,0.0,0.0,-6.9228,-6.9536,-7.0028,-6.9505,-6.9474,-6.9813,-6.8766,-6.7904,-6.7227,-6.6581,-6.5965,-6.5442,-6.5319,-6.5257,-6.5257,-6.5257,-6.5257,-6.5257,-6.5134,-6.5072,-6.5072,-6.4696,-6.4524,-6.4376,-6.2945,-6.1679,-6.0586,-5.941,-5.8874,-5.9051,-5.8518,-5.7745,-5.6677,-5.5588,-5.457,-5.3619,-5.3178,-5.3022,-5.3203,-5.3293,-5.3458,-5.3654,-5.3233,-5.3015,-5.3033,-5.258,-5.2461,-5.2812,-5.2874,-5.3649,-5.5499,-5.8516,-5.9664,-5.8022,-6.0003,-6.1348,-6.1317,-6.1963,-6.2794,-6.3903,-6.4026,-6.4429,-6.553,-6.57,-6.5915,-6.6427,-6.6565,-6.6523,-6.6586,-6.6523,-6.6586,-6.6523,-6.608,-6.5816,-6.5701,-6.5385,-6.4879,-6.4974,-6.5678,-6.6389,-6.7103,-6.7374,-6.7981,-6.8262,-6.836,-6.8208,-6.7479,-6.738,-6.7334,-6.7235,-6.7202,-6.7293,-6.7243,-6.7034,-6.6668,-6.6568,-6.6179,-6.5725,-6.547,-6.5425,-6.5425,-6.5425,-6.5559,-6.5692,-7.499,-7.4534,-7.4792,-7.4889,-7.4769,-7.363,-7.2737,-7.2091,-7.1813,-7.129,-7.0613,-7.0613,-7.0675,-7.0767,-7.0675,-7.0336,-6.9905,-6.969,-6.9259,0.0,-6.7935,-6.7596,-6.7473,-6.6919,-6.6642,-6.6642,-6.6611,-6.6642,-6.655,-6.6027,-6.578,-6.5688,-6.514,-6.4832,-6.4715,-6.3512,-6.2859,-6.289,-6.0882,-5.9516,-5.8949,-5.8827,-5.8265,-5.7212,-5.6499,-5.5755,-5.504,-5.4588,-5.4236,-5.4079,-5.4468,-5.4854,-5.5238,-5.5426,-5.5767,-5.6135,-5.6104,-5.6056,-5.6118,-5.6149,-5.6964,-5.8947,-6.1132,-6.2025,-6.1277,-6.2517,-6.341,-6.341,-6.3964,-6.4518,-6.4734,-6.4734,-6.4844,-6.532,-6.5569,-6.5862,-6.6192,-6.6459,-6.6533,-6.6565,-6.6586,-6.6586,-6.6586,-6.6491,-6.6396,-6.6428,-6.6207,-6.6238,-6.6101,-6.5797,-6.556,-6.5764,-6.6485,-6.7031,-6.7382,-6.7532,-6.7533,-6.6784,-6.6738,-6.6606,-6.6088,-6.6022,-6.5955,-6.5835,-6.598,-6.5924,-6.5713,-6.5747,-6.5647,-6.547,-6.5425,-6.5425,-6.5425,-6.547,-6.547,-7.6446,-7.5928,-7.6027,-7.5877,-7.5446,-7.4091,-7.3353,-7.3045,-7.2675,-7.1906,-7.0952,-7.089,-7.1136,-7.1444,-7.1075,-7.0736,-7.0428,-7.0059,-6.9351,-6.8366,-6.8058,-6.772,-6.735,-6.7073,-6.6919,-6.6919,-6.6919,-6.6919,-6.6888,-6.6581,-6.6273,-6.5873,-6.5226,-6.4888,-6.4857,-6.3936,-6.3513,-6.3592,-6.1957,-6.0897,-6.0563,-6.0069,-5.9486,-5.8744,-5.8003,-5.7314,-5.6766,-5.656,-5.6427,-5.6476,-5.6721,-5.702,-5.7297,-5.7475,-5.7678,-5.7888,-5.7919,-5.7869,-5.7869,-5.8547,-5.9686,-6.1317,-6.2641,-6.341,-6.3472,-6.4026,-6.4395,-6.4395,-6.4703,-6.4888,-6.4888,-6.4888,-6.4998,-6.5297,-6.5406,-6.5623,-6.5893,-6.6054,-6.6161,-6.6352,-6.6406,-6.6459,-6.6617,-6.6586,-6.6586,-6.6586,-6.6586,-6.6586,-6.6586,-6.6516,-6.6428,-6.6529,-6.7081,-6.7509,-6.7472,-6.7848,-6.7831,-6.7247,-6.7115,-6.6771,-6.6187,-6.6022,-6.5856,-6.5492,-6.5514,-6.5514,-6.5425,-6.5514,-6.5514,-6.547,-6.5425,-6.5425,-6.5425,-6.5425,-6.5425,-7.7477,-7.7016,-7.6862,-7.6338,-7.5476,-7.443,-7.3907,-7.3722,-7.3199,-7.2368,-7.1444,-7.1383,-7.169,-7.2121,-7.1598,-7.1198,-7.0859,-7.0367,-6.9413,-6.8212,-6.815,-6.7873,-6.7412,-6.7381,-6.735,-6.735,-6.735,-6.7289,-6.7135,-6.7012,-6.6581,-6.5903,-6.5226,-6.498,-6.5103,-6.4426,-6.4057,-6.3971,-6.3098,-6.2482,-6.2092,-6.1104,-6.0499,-6.0305,-5.9403,-5.8827,-5.8571,-5.851,-5.8613,-5.8746,-5.8818,-5.892,-5.9123,-5.9224,-5.9224,-5.9224,-5.9224,-5.9316,-5.9532,-6.0732,-6.1933,-6.2948,-6.3687,-6.4303,-6.4826,-6.4888,-6.4888,-6.4888,-6.4888,-6.4888,-6.4888,-6.4888,-6.4998,-6.5187,-6.5297,-6.5406,-6.5592,-6.5646,-6.5754,-6.6,-6.6085,-6.6192,-6.6321,-6.6374,-6.6374,-6.6374,-6.6374,-6.6374,-6.6427,-6.6764,-6.7026,-6.7388,-6.7899,-6.8323,-6.8192,-6.8606,-6.8592,-6.8009,-6.7844,-6.7512,-6.7016,-6.6784,-6.6573,-6.6154,-6.5989,-6.5922,-6.5757,-6.569,-6.5624,-6.5492,-6.5425,-6.5425,-6.5425,-6.5425,-6.5425,-7.7077,-7.6923,-7.64,-7.5353,-7.4307,-7.4091,-7.3691,-7.3137,-7.3014,-7.2952,-7.2737,-7.2768,-7.2798,-7.2891,-7.2768,-7.2091,-7.0982,-7.0859,-7.009,-6.892,-6.8797,-6.8766,-6.8674,-6.8674,-6.8705,-6.8674,-6.8643,-6.8304,-6.7812,-6.7196,-6.6581,-6.5903,-6.5226,-6.5195,-6.5626,-6.5103,-6.4795,-6.4795,-6.4678,-6.3868,-6.2371,-6.1213,-6.0795,-6.1241,-6.0365,-5.997,-6.005,-6.0193,-6.0089,-5.9909,-6.0058,-6.0215,-6.0267,-6.0475,-6.0609,-6.0609,-6.0609,-6.0855,-6.1532,-6.2764,-6.3479,-6.3779,-6.4364,-6.4795,-6.4888,-6.4888,-6.4888,-6.4888,-6.4888,-6.4888,-6.4888,-6.4888,-6.4888,-6.4943,-6.5132,-6.5297,-6.5351,-6.5538,-6.57,-6.5754,-6.5785,-6.5754,-6.5808,-6.5862,-6.5808,-6.5862,-6.5915,-6.5862,-6.5915,-6.6076,-6.6396,-6.7078,-6.805,-6.8765,-6.8879,-6.9331,-6.9254,-6.8705,-6.8606,-6.8274,-6.7777,-6.7512,-6.74,-6.7069,-6.7202,-6.6937,-6.6618,-6.6386,-6.6187,-6.5856,-6.5657,-6.5459,-6.5425,-6.5425,-6.5425,-7.7385,-7.6985,-7.6708,-7.6061,-7.5199,-7.4769,-7.4214,-7.3568,-7.3137,-7.2983,-7.2983,-7.2983,-7.2983,-7.2983,-7.2983,-7.2429,-7.1567,-7.1536,-7.1013,-7.009,-6.969,-6.9474,-6.9443,-6.9074,-6.8889,-6.8889,-6.8889,-6.8766,-6.8366,-6.7442,-6.6581,-6.5903,-6.5226,-6.5042,-6.5257,-6.5042,-6.4888,-6.4888,-6.4888,-6.45,-6.3587,-6.2561,-6.2044,-6.1859,-6.1058,-6.0563,-6.0617,-6.0638,-6.0586,-6.0481,-6.0586,-6.0638,-6.0638,-6.0742,-6.0978,-6.1348,-6.1779,-6.2271,-6.2948,-6.3533,-6.4026,-6.4426,-6.4734,-6.4888,-6.4888,-6.4888,-6.4888,-6.4888,-6.4888,-6.4888,-6.4888,-6.4888,-6.4888,-6.4888,-6.4998,-6.5053,-6.5053,-6.5132,-6.5297,-6.546,-6.546,-6.5569,-6.5646,-6.57,-6.57,-6.57,-6.57,-6.57,-6.57,-6.613,-6.6554,-6.7057,-6.8151,-6.8896,-6.9042,-6.943,-6.9585,-6.9434,-6.9334,-6.9069,-6.8473,-6.8274,-6.8142,-6.7698,-6.7698,-6.7645,-6.7247,-6.7135,-6.697,-6.6573,-6.6254,-6.6088,-6.6055,-6.5724,-6.5492,-7.7631,-7.7077,-7.7016,-7.6523,-7.5692,-7.5199,-7.4522,-7.3722,-7.3168,-7.2983,-7.2983,-7.2983,-7.2983,-7.2983,-7.2983,-7.2614,-7.1998,-7.1752,-7.129,-7.0613,-7.012,-6.9813,-6.9597,-6.9351,-6.9074,-6.892,-6.8889,-6.8797,-6.8489,-6.7289,-6.6457,-6.6088,-6.5319,-6.498,-6.5134,-6.5011,-6.4888,-6.4888,-6.4888,-6.4777,-6.432,-6.3675,-6.3041,-6.2537,-6.1467,-6.0928,-6.0945,-6.0834,-6.0794,-6.0794,-6.0978,-6.1071,-6.1071,-6.1225,-6.1563,-6.2056,-6.2733,-6.3318,-6.381,-6.3995,-6.4334,-6.4826,-6.4888,-6.4888,-6.4888,-6.4888,-6.4888,-6.4888,-6.4888,-6.4888,-6.4888,-6.4888,-6.4888,-6.4888,-6.4888,-6.4888,-6.4888,-6.4888,-6.4998,-6.5132,-6.5187,-6.5273,-6.546,-6.5429,-6.546,-6.546,-6.546,-6.5515,-6.5538,-6.6,-6.648,-6.7026,-6.7967,-6.8567,-6.8945,-6.9463,-6.9751,-6.9798,-6.9732,-6.9533,-6.9069,-6.9003,-6.897,-6.8672,-6.8341,-6.8076,-6.7943,-6.791,-6.7777,-6.7533,-6.7168,-6.6771,-6.6771,-6.622,-6.5823,-7.7631,-7.7046,-7.7016,-7.6277,-7.5046,-7.5015,-7.4245,-7.3076,-7.3014,-7.2983,-7.2983,-7.2983,-7.2983,-7.2983,-7.2983,-7.2614,-7.1967,-7.1352,-7.0736,-7.0151,-6.9936,-6.9566,-6.9012,-6.9536,-6.9505,-6.892,-6.8889,-6.8581,-6.7966,-6.6673,-6.6273,-6.6735,-6.5503,-6.5226,-6.5596,-6.5165,-6.4918,-6.4949,-6.498,-6.4752,-6.4412,-6.4132,-6.3598,-6.287,-6.1655,-6.1126,-6.1325,-6.1006,-6.0824,-6.0824,-6.144,-6.1748,-6.1809,-6.2364,-6.2702,-6.2825,-6.3356,-6.3779,-6.3933,-6.4457,-6.4826,-6.4888,-6.4888,-6.4888,-6.4888,-6.4888,-6.4888,-6.4888,-6.4888,-6.4888,-6.4888,-6.4888,-6.4888,-6.4888,-6.4888,-6.4888,-6.4888,-6.4888,-6.4888,-6.4943,-6.4943,-6.4998,-6.4998,-6.4943,-6.4998,-6.4998,-6.4943,-6.4998,-6.5053,-6.5108,-6.5808,-6.6858,-6.7497,-6.7783,-6.8765,-6.9463,-6.9751,-6.9798,-6.9798,-6.9765,-6.9765,-6.9732,-6.9666,-6.9599,-6.9401,-6.9136,-6.8804,-6.8539,-6.8341,-6.8109,-6.7844,-6.7579,-6.7579,-6.6949,-6.6585,-7.7231,-7.7016,-7.7016,-7.6246,-7.5046,-7.5015,-7.4214,-7.3014,-7.2983,-7.2983,-7.2983,-7.2983,-7.2983,-7.2983,-7.2983,-7.286,-7.2552,-7.1906,-7.1444,-7.1136,-7.0305,-6.9751,-6.9536,-6.9382,-6.9135,-6.892,-6.8889,-6.8551,-6.7904,-6.6981,-6.6427,-6.6119,-6.538,-6.5042,-6.5195,-6.5011,-6.5103,-6.5503,-6.5534,-6.5366,-6.508,-6.4911,-6.4493,-6.3598,-6.2718,-6.2129,-6.2004,-6.2081,-6.2086,-6.2086,-6.2333,-6.2456,-6.2517,-6.3102,-6.3472,-6.3533,-6.4118,-6.4518,-6.4549,-6.4734,-6.4888,-6.4888,-6.4888,-6.4888,-6.4888,-6.4888,-6.4888,-6.4888,-6.4888,-6.4888,-6.4888,-6.4888,-6.4888,-6.4888,-6.4888,-6.4888,-6.4888,-6.4888,-6.4888,-6.4888,-6.4888,-6.4888,-6.4888,-6.4888,-6.4888,-6.4888,-6.4888,-6.4888,-6.4998,-6.5297,-6.6045,-6.7034,-6.7783,-6.8468,-6.9334,-6.9655,-6.9798,-6.9798,-6.9798,-6.9798,-6.9798,-6.9798,-6.9699,-6.9699,-6.9798,-6.9732,-6.9235,-6.9202,-6.9003,-6.897,-6.8672,-6.8341,-6.8307,-6.7711,-6.738,-7.72,-7.6985,-7.68,-7.5907,-7.4738,-7.4676,-7.403,-7.3045,-7.2983,-7.2983,-7.2983,-7.2983,-7.2983,-7.2983,-7.2983,-7.2983,-7.2922,-7.2275,-7.1967,-7.1875,-7.0767,-7.009,-6.9843,-6.9413,-6.9105,-6.892,-6.8889,-6.8643,-6.8212,-6.7566,-6.7012,-6.6581,-6.5873,-6.5534,-6.5534,-6.5534,-6.5811,-6.618,-6.6129,-6.5836,-6.5452,-6.5521,-6.5071,-6.4171,-6.3802,-6.3396,-6.2792,-6.2787,-6.2825,-6.2856,-6.301,-6.3256,-6.3502,-6.3903,-6.418,-6.4241,-6.4611,-6.4888,-6.4888,-6.4888,-6.4888,-6.4888,-6.4888,-6.4888,-6.4888,-6.4888,-6.4888,-6.4888,-6.4888,-6.4888,-6.4888,-6.4888,-6.4888,-6.4888,-6.4888,-6.4888,-6.4888,-6.4888,-6.4888,-6.4888,-6.4888,-6.4888,-6.4888,-6.4888,-6.4888,-6.4888,-6.4943,-6.5053,-6.5077,-6.5538,-6.6364,-6.7272,-6.7866,-6.8649,-6.9415,-6.9751,-6.9798,-6.9798,-6.9798,-6.9798,-6.9798,-6.9798,-6.9798,-6.9798,-6.9798,-6.9798,-6.9798,-6.9798,-6.9798,-6.9765,-6.95,-6.9069,-6.8837,-6.8473,-6.8142,-7.76,-7.6985,-7.6308,-7.5353,-7.4245,-7.4122,-7.363,-7.3045,-7.2983,-7.2983,-7.2983,-7.2983,-7.2983,-7.2983,-7.2983,-7.2983,-7.286,-7.2275,-7.1906,-7.1783,-7.1013,-7.0336,-6.9813,-6.972,-6.9382,-6.892,-6.8889,-6.8889,-6.8766,-6.815,-6.7781,-6.772,-6.7073,-6.6673,-6.6858,-6.6735,-6.6827,-6.6805,-6.6633,-6.6155,-6.5604,-6.5894,-6.5474,-6.441,-6.485,-6.4657,-6.3489,-6.3094,-6.301,-6.3041,-6.3502,-6.4149,-6.4611,-6.4795,-6.4857,-6.4795,-6.4888,-6.4888,-6.4888,-6.4888,-6.4888,-6.4888,-6.4888,-6.4888,-6.4888,-6.4888,-6.4888,-6.4888,-6.4888,-6.4888,-6.4888,-6.4888,-6.4888,-6.4888,-6.4888,-6.4888,-6.4888,-6.4888,-6.4888,-6.4888,-6.4888,-6.4888,-6.4888,-6.4888,-6.4888,-6.4998,-6.5108,-6.5242,-6.5351,-6.5646,-6.6364,-6.7356,-6.8,-6.86,-6.9237,-6.9798,-6.9798,-6.9798,-6.9798,-6.9798,-6.9798,-6.9798,-6.9798,-6.9798,-6.9798,-6.9798,-6.9798,-6.9798,-6.9798,-6.9765,-6.9666,-6.9599,-6.9334,-6.9036,-6.8871,-7.7631,-7.6954,-7.6277,-7.5507,-7.4676,-7.4184,-7.3599,-7.3014,-7.2983,-7.2983,-7.2983,-7.2983,-7.2983,-7.2983,-7.2983,-7.2983,-7.2922,-7.2306,-7.1721,-7.1136,-7.009,-6.9505,-6.932,-6.9228,-6.9105,-6.892,-6.8889,-6.8889,-6.8766,-6.8243,-6.7935,-6.7812,-6.7258,-6.695,-6.6981,-6.6919,-6.6989,-6.7188,-6.7161,-6.698,-6.6797,-6.6922,-6.6403,-6.5499,-6.5612,-6.533,-6.45,-6.4309,-6.4241,-6.421,-6.4457,-6.4672,-6.4857,-6.4888,-6.4888,-6.4888,-6.4888,-6.4888,-6.4888,-6.4888,-6.4888,-6.4888,-6.4888,-6.4888,-6.4888,-6.4888,-6.4888,-6.4888,-6.4888,-6.4888,-6.4888,-6.4888,-6.4888,-6.4888,-6.4888,-6.4888,-6.4888,-6.4888,-6.4888,-6.4888,-6.4888,-6.4888,-6.4888,-6.4888,-6.4943,-6.5108,-6.5242,-6.5351,-6.5592,-6.5938,-6.6575,-6.7593,-6.8018,-6.86,-6.9334,-6.9798,-6.9798,-6.9798,-6.9798,-6.9798,-6.9798,-6.9798,-6.9798,-6.9798,-6.9798,-6.9798,-6.9798,-6.9798,-6.9798,-6.9798,-6.9732,-6.9732,-6.9765,-6.9599,-6.9334,-7.8031,-7.7293,-7.6123,-7.5261,-7.4584,-7.3907,-7.3383,-7.3014,-7.2983,-7.2983,-7.2983,-7.2983,-7.2983,-7.2983,-7.2983,-7.2983,-7.2922,-7.2275,-7.1721,-7.1198,-7.0182,-6.9782,-6.9874,-6.9443,-6.9259,-6.9197,-6.9012,-6.8889,-6.8858,-6.8489,-6.8274,-6.8181,-6.7843,-6.7658,-6.7627,-6.7658,-6.7758,-6.792,-6.7834,-6.7653,-6.75,-6.7653,-6.7157,-6.6011,-6.6093,-6.5811,-6.5011,-6.4888,-6.4888,-6.4888,-6.4888,-6.4888,-6.4888,-6.4888,-6.4888,-6.4888,-6.4888,-6.4888,-6.4888,-6.4888,-6.4888,-6.4888,-6.4888,-6.4888,-6.4888,-6.4888,-6.4888,-6.4888,-6.4888,-6.4888,-6.4888,-6.4888,-6.4888,-6.4888,-6.4888,-6.4888,-6.4888,-6.4888,-6.4888,-6.4888,-6.4888,-6.4888,-6.4888,-6.4888,-6.4943,-6.5163,-6.5351,-6.5483,-6.5808,-6.6364,-6.7098,-6.7797,-6.8351,-6.8945,-6.9607,-6.9798,-6.9798,-6.9798,-6.9798,-6.9798,-6.9798,-6.9798,-6.9798,-6.9798,-6.9798,-6.9798,-6.9798,-6.9798,-6.9798,-6.9798,-6.9798,-6.9798,-6.9765,-6.9798,-6.9599,-7.8678,-7.7785,-7.5846,-7.4707,-7.4091,-7.3353,-7.3014,-7.2983,-7.2983,-7.2983,-7.2983,-7.2983,-7.2983,-7.2983,-7.2983,-7.2983,-7.286,-7.2275,-7.206,-7.1844,-7.1259,-7.1044,-7.1105,-7.0213,-6.972,-6.9566,-6.9135,-6.892,-6.8889,-6.8828,-6.8889,-6.8797,-6.8735,-6.8828,-6.8705,-6.8828,-6.8735,-6.8649,-6.8444,-6.805,-6.7681,-6.805,-6.7589,-6.5871,-6.6436,-6.6273,-6.5257,-6.498,-6.4888,-6.4888,-6.4888,-6.4888,-6.4888,-6.4888,-6.4888,-6.4888,-6.4888,-6.4888,-6.4888,-6.4888,-6.4888,-6.4888,-6.4888,-6.4888,-6.4888,-6.4888,-6.4888,-6.4888,-6.4888,-6.4888,-6.4888,-6.4888,-6.4888,-6.4888,-6.4888,-6.4888,-6.4888,-6.4888,-6.4888,-6.4888,-6.4888,-6.4888,-6.4888,-6.4888,-6.4943,-6.5053,-6.5351,-6.5569,-6.5862,-6.6417,-6.7439,-6.8,-6.8501,-6.8945,-6.943,-6.9798,-6.9751,-6.9559,-6.9655,-6.9798,-6.9798,-6.9798,-6.9798,-6.9798,-6.9798,-6.9798,-6.9798,-6.9798,-6.9798,-6.9798,-6.9798,-6.9798,-6.9798,-6.9798,-6.9798,-7.8678,-7.7816,-7.5846,-7.4892,-7.4553,-7.3506,-7.2983,-7.2983,-7.2983,-7.2983,-7.2983,-7.2983,-7.2983,-7.2983,-7.2983,-7.2983,-7.2829,-7.2306,-7.2275,-7.2552,-7.1998,-7.1167,-7.0582,-7.012,-6.9659,-6.9259,-6.9074,-6.8889,-6.8889,-6.8889,-6.8889,-6.8889,-6.8889,-6.8889,-6.8889,-6.8889,-6.8772,-6.8595,-6.8476,-6.8325,-6.8262,-6.8264,-6.8045,-6.742,-6.7047,-6.6519,-6.5657,-6.5165,-6.4918,-6.4888,-6.4888,-6.4888,-6.4888,-6.4888,-6.4888,-6.4888,-6.4888,-6.4888,-6.4888,-6.4888,-6.4888,-6.4888,-6.4888,-6.4888,-6.4888,-6.4888,-6.4888,-6.4888,-6.4888,-6.4888,-6.4888,-6.4888,-6.4888,-6.4888,-6.4888,-6.4888,-6.4888,-6.4888,-6.4888,-6.4888,-6.4888,-6.4888,-6.4888,-6.4888,-6.4943,-6.5132,-6.5297,-6.5515,-6.5754,-6.6258,-6.7098,-6.7797,-6.8301,-6.8748,-6.914,-6.9559,-6.9655,-6.9334,-6.943,-6.9798,-6.9798,-6.9798,-6.9798,-6.9798,-6.9798,-6.9798,-6.9798,-6.9798,-6.9798,-6.9798,-6.9798,-6.9798,-6.9798,-6.9798,-6.9798,-7.9109,-7.8339,-7.6585,-7.5507,-7.4922,-7.3845,-7.326,-7.3014,-7.2983,-7.2983,-7.2983,-7.2983,-7.2983,-7.2983,-7.2983,-7.2983,-7.2922,-7.2583,-7.2645,-7.2829,-7.2583,-7.1967,-7.1321,-7.0952,-7.0398,-6.9751,-6.9413,-6.9166,-6.8951,-6.8889,-6.8889,-6.8889,-6.8889,-6.8889,-6.8889,-6.8889,-6.883,-6.8654,-6.8595,-6.8623,-6.8595,-6.8623,-6.8344,-6.7939,-6.7504,-6.695,-6.5996,-6.5257,-6.4888,-6.4888,-6.4888,-6.4888,-6.4888,-6.4888,-6.4888,-6.4888,-6.4888,-6.4888,-6.4888,-6.4888,-6.4888,-6.4888,-6.4888,-6.4888,-6.4888,-6.4888,-6.4888,-6.4888,-6.4888,-6.4888,-6.4888,-6.4888,-6.4888,-6.4888,-6.4888,-6.4888,-6.4888,-6.4888,-6.4888,-6.4888,-6.4888,-6.4888,-6.4888,-6.4888,-6.4998,-6.5108,-6.5187,-6.5351,-6.5538,-6.6152,-6.6701,-6.7407,-6.7866,-6.8219,-6.8748,-6.914,-6.9511,-6.9237,-6.9285,-6.9655,-6.9798,-6.9798,-6.9798,-6.9798,-6.9798,-6.9798,-6.9798,-6.9798,-6.9798,-6.9798,-6.9798,-6.9798,-6.9798,-6.9798,-6.9798,-7.9663,-7.8955,-7.7539,-7.6184,-7.4984,-7.4276,-7.3568,-7.3076,-7.2983,-7.2983,-7.2983,-7.2983,-7.2983,-7.2983,-7.2983,-7.2983,-7.2983,-7.2922,-7.2952,-7.2983,-7.2891,-7.2737,-7.2583,-7.1967,-7.1259,-7.0582,-7.0151,-6.969,-6.9259,-6.9074,-6.9043,-6.9043,-6.8982,-6.8889,-6.8889,-6.8889,-6.8889,-6.8889,-6.883,-6.883,-6.883,-6.88,-6.8554,-6.8243,-6.7904,-6.7258,-6.6242,-6.5472,-6.5103,-6.5134,-6.498,-6.4918,-6.4888,-6.4888,-6.4888,-6.4888,-6.4888,-6.4888,-6.4888,-6.4888,-6.4888,-6.4888,-6.4888,-6.4888,-6.4888,-6.4888,-6.4888,-6.4888,-6.4888,-6.4888,-6.4888,-6.4888,-6.4888,-6.4888,-6.4888,-6.4888,-6.4888,-6.4888,-6.4888,-6.4888,-6.4888,-6.4888,-6.4888,-6.4888,-6.4888,-6.4998,-6.5108,-6.5218,-6.5297,-6.5646,-6.6311,-6.7149,-6.7459,-6.7631,-6.8169,-6.8748,-6.9042,-6.914,-6.9188,-6.943,-6.9751,-6.9798,-6.9798,-6.9798,-6.9798,-6.9798,-6.9798,-6.9798,-6.9798,-6.9798,-6.9798,-6.9798,-6.9798,-6.9798,-6.9798,-7.9232,-7.8955,-7.7046,-7.5754,-7.4953,-7.4307,-7.363,-7.3014,-7.2983,-7.2983,-7.2983,-7.2983,-7.2983,-7.2983,-7.2983,-7.2983,-7.2983,-7.2983,-7.2983,-7.2983,-7.2983,-7.2983,-7.286,-7.2337,-7.1352,-7.0582,-7.0582,-7.0305,-6.9843,-6.969,-6.969,-6.9597,-6.9197,-6.8889,-6.8889,-6.8889,-6.8889,-6.8889,-6.8889,-6.8889,-6.8889,-6.8889,-6.8828,-6.8581,-6.8181,-6.7535,-6.6765,-6.6057,-6.5965,-6.6088,-6.5534,-6.5072,-6.498,-6.4918,-6.4888,-6.4888,-6.4888,-6.4888,-6.4888,-6.4888,-6.4888,-6.4888,-6.4888,-6.4888,-6.4888,-6.4888,-6.4888,-6.4888,-6.4888,-6.4888,-6.4888,-6.4888,-6.4888,-6.4888,-6.4888,-6.4888,-6.4888,-6.4888,-6.4888,-6.4888,-6.4888,-6.4888,-6.4888,-6.4888,-6.4888,-6.4888,-6.4943,-6.4998,-6.5108,-6.5242,-6.5915,-6.6712,-6.6575,-6.6753,-6.7631,-6.8219,-6.8699,-6.9042,-6.9237,-6.9415,-6.9703,-6.9798,-6.9798,-6.9798,-6.9798,-6.9798,-6.9798,-6.9798,-6.9798,-6.9798,-6.9798,-6.9798,-6.9798,-6.9798,-6.9798,-7.9386,-7.8955,-7.7539,-7.6215,-7.5046,-7.4615,-7.3907,-7.3106,-7.2983,-7.2983,-7.2983,-7.2983,-7.2983,-7.2983,-7.2983,-7.2983,-7.2983,-7.2983,-7.2983,-7.2983,-7.2983,-7.2983,-7.2952,-7.2614,-7.1875,-7.1044,-7.1229,-7.1013,-7.0521,-7.0336,-7.0213,-6.9905,-6.9505,-6.9197,-6.892,-6.8889,-6.8889,-6.8889,-6.8889,-6.8889,-6.8889,-6.8889,-6.8889,-6.8766,-6.8274,-6.772,-6.735,-6.6735,-6.6611,-6.6642,-6.6242,-6.5657,-6.5349,-6.5072,-6.4918,-6.4888,-6.4888,-6.4888,-6.4888,-6.4888,-6.4888,-6.4888,-6.4888,-6.4888,-6.4888,-6.4888,-6.4888,-6.4888,-6.4888,-6.4888,-6.4888,-6.4888,-6.4888,-6.4888,-6.4888,-6.4888,-6.4888,-6.4888,-6.4888,-6.4888,-6.4888,-6.4888,-6.4888,-6.4888,-6.4888,-6.4888,-6.4888,-6.4943,-6.4943,-6.5163,-6.5483,-6.5915,-6.57,-6.5969,-6.6942,-6.7714,-6.8401,-6.8847,-6.9285,-6.9511,-6.9751,-6.9798,-6.9798,-6.9798,-6.9798,-6.9798,-6.9798,-6.9798,-6.9798,-6.9798,-6.9798,-6.9798,-6.9798,-6.9798,-6.9798,-7.9447,-7.8862,-7.8062,-7.6646,-7.5138,-7.4861,-7.4091,-7.3076,-7.2983,-7.2983,-7.2983,-7.2983,-7.2983,-7.2983,-7.2983,-7.2983,-7.2983,-7.2983,-7.2983,-7.2983,-7.2983,-7.2983,-7.2952,-7.286,-7.2645,-7.2152,-7.2121,-7.1721,-7.1229,-7.1044,-7.0859,-7.0305,-6.9905,-6.9597,-6.9166,-6.892,-6.8889,-6.8889,-6.8889,-6.8889,-6.8889,-6.8889,-6.8889,-6.8766,-6.8458,-6.815,-6.7935,-6.7473,-6.7135,-6.7165,-6.7042,-6.6673,-6.6211,-6.5472,-6.5042,-6.5072,-6.5011,-6.4888,-6.4888,-6.4888,-6.4888,-6.4888,-6.4888,-6.4888,-6.4888,-6.4888,-6.4888,-6.4888,-6.4888,-6.4888,-6.4888,-6.4888,-6.4888,-6.4888,-6.4888,-6.4888,-6.4888,-6.4888,-6.4888,-6.4888,-6.4888,-6.4888,-6.4888,-6.4888,-6.4888,-6.4888,-6.4888,-6.4888,-6.4888,-6.4943,-6.5297,-6.546,-6.5297,-6.5538,-6.647,-6.7324,-6.8018,-6.86,-6.914,-6.9511,-6.9751,-6.9798,-6.9798,-6.9798,-6.9798,-6.9798,-6.9798,-6.9798,-6.9798,-6.9798,-6.9798,-6.9798,-6.9798,-6.9798,-6.9703,-7.8308,-7.8093,-7.6862,-7.5815,-7.4984,-7.443,-7.3753,-7.3076,-7.2983,-7.2983,-7.2983,-7.2983,-7.2983,-7.2983,-7.2983,-7.2983,-7.2983,-7.2983,-7.2983,-7.2983,-7.2983,-7.2983,-7.2983,-7.2983,-7.2891,-7.286,-7.2737,-7.2368,-7.1937,-7.1783,-7.1629,-7.1383,-7.0551,-6.9905,-6.9597,-6.9228,-6.8951,-6.8889,-6.8889,-6.8889,-6.8889,-6.8889,-6.8889,-6.8889,-6.8674,-6.8643,-6.8551,-6.815,-6.7997,-6.8397,-6.7504,-6.7289,-6.7196,-6.6427,-6.5842,-6.5565,-6.5319,-6.5134,-6.5042,-6.5011,-6.4949,-6.4888,-6.498,-6.4949,-6.4949,-6.4918,-6.4888,-6.4918,-6.4918,-6.4918,-6.4888,-6.4888,-6.4888,-6.4888,-6.4888,-6.4888,-6.4888,-6.4888,-6.4888,-6.4888,-6.4888,-6.4888,-6.4888,-6.4888,-6.4888,-6.4888,-6.4888,-6.4888,-6.4888,-6.4888,-6.4998,-6.5053,-6.4998,-6.546,-6.6098,-6.691,-6.765,-6.8269,-6.8847,-6.9334,-6.9607,-6.9751,-6.9798,-6.9798,-6.9798,-6.9751,-6.9751,-6.9751,-6.9655,-6.9607,-6.9655,-6.9798,-6.9751,-6.9703,-6.9285,-7.7816,-7.7416,-7.6431,-7.5415,-7.4522,-7.4153,-7.3599,-7.3045,-7.2983,-7.2983,-7.2983,-7.2983,-7.2983,-7.2983,-7.2983,-7.2983,-7.2983,-7.2983,-7.2983,-7.2983,-7.2983,-7.2983,-7.2983,-7.2983,-7.2983,-7.2983,-7.2952,-7.286,-7.2521,-7.2491,-7.2306,-7.1875,-7.1229,-7.0644,-6.9997,-6.9597,-6.9228,-6.9043,-6.892,-6.8889,-6.8889,-6.8889,-6.8889,-6.8889,-6.8889,-6.8889,-6.8828,-6.8674,-6.8551,-6.8674,-6.8274,-6.8181,-6.8027,-6.7535,-6.6611,-6.6088,-6.5903,-6.5719,-6.5596,-6.5688,-6.5996,-6.5934,-6.5657,-6.5442,-6.5319,-6.5165,-6.498,-6.5011,-6.5319,-6.5257,-6.4949,-6.4918,-6.4888,-6.4888,-6.4888,-6.4888,-6.4888,-6.4888,-6.4888,-6.4888,-6.4888,-6.4888,-6.4888,-6.4888,-6.4888,-6.4888,-6.4888,-6.4888,-6.4888,-6.4888,-6.4888,-6.4888,-6.4888,-6.5163,-6.5754,-6.6544,-6.7292,-6.7935,-6.8666,-6.914,-6.9559,-6.9751,-6.9798,-6.9798,-6.9751,-6.9751,-6.943,-6.9334,-6.9367,-6.9415,-6.9607,-6.9703,-6.9655,-6.9511,-6.9042,-7.7323,-7.6769,-7.5938,-7.4984,-7.4061,-7.3845,-7.3476,-7.3045,-7.2983,-7.2983,-7.2983,-7.2983,-7.2983,-7.2983,-7.2983,-7.2983,-7.2983,-7.2983,-7.2983,-7.2983,-7.2983,-7.2983,-7.2983,-7.2983,-7.2983,-7.2983,-7.2983,-7.2983,-7.2922,-7.2891,-7.2645,-7.2306,-7.2091,-7.1506,-7.0582,-7.0244,-6.9751,-6.9443,-6.9105,-6.9074,-6.892,-6.8889,-6.8889,-6.8889,-6.8889,-6.8889,-6.8889,-6.8828,-6.8828,-6.8889,-6.8828,-6.8858,-6.8797,-6.8397,-6.7566,-6.6642,-6.6735,-6.655,-6.6427,-6.6457,-6.6704,-6.6673,-6.6365,-6.618,-6.6027,-6.575,-6.5442,-6.538,-6.5503,-6.5688,-6.5257,-6.5011,-6.4918,-6.4888,-6.4888,-6.4888,-6.4888,-6.4888,-6.4888,-6.4888,-6.4888,-6.4888,-6.4888,-6.4888,-6.4888,-6.4888,-6.4888,-6.4888,-6.4888,-6.4888,-6.4888,-6.4888,-6.4888,-6.4888,-6.5406,-6.6205,-6.6878,-6.7497,-6.8419,-6.914,-6.9511,-6.9798,-6.9798,-6.9751,-6.9798,-6.9703,-6.9334,-6.9042,-6.9237,-6.9382,-6.9526,-6.9526,-6.9285,-6.8994,-6.855,-7.6184,-7.6031,-7.4769,-7.4122,-7.3907,-7.3383,-7.3106,-7.3014,-7.2983,-7.2983,-7.2983,-7.2983,-7.2983,-7.2983,-7.2983,-7.2983,-7.2983,-7.2983,-7.2983,-7.2983,-7.2983,-7.2983,-7.2983,-7.2983,-7.2983,-7.2983,-7.2983,-7.2983,-7.2983,-7.2983,-7.2952,-7.2737,-7.2275,-7.1813,-7.1475,-7.1013,-7.0767,-7.0551,-7.0028,-6.9474,-6.9043,-6.892,-6.8889,-6.8889,-6.8889,-6.8889,-6.8889,-6.8889,-6.8889,-6.8889,-6.8889,-6.8889,-6.8858,-6.8828,-6.8397,-6.775,-6.7289,-6.6888,-6.6858,-6.7042,-6.7165,-6.7165,-6.6888,-6.6827,-6.6642,-6.6673,-6.655,-6.6642,-6.6304,-6.5903,-6.5626,-6.5226,-6.5011,-6.4888,-6.4888,-6.4888,-6.4888,-6.4888,-6.4888,-6.4888,-6.4888,-6.4888,-6.4888,-6.4888,-6.4888,-6.4888,-6.4888,-6.4888,-6.4888,-6.4888,-6.4888,-6.4888,-6.4888,-6.4888,-6.5163,-6.5884,-6.6596,-6.7189,-6.8136,-6.9091,-6.9526,-6.9798,-6.9703,-6.9703,-6.9751,-6.943,-6.8765,-6.8666,-6.9091,-6.9285,-6.943,-6.914,-6.8797,-6.8451,-6.8018,-7.5076,-7.5353,-7.4399,-7.3753,-7.3414,-7.3106,-7.2983,-7.2983,-7.2983,-7.2983,-7.2983,-7.2983,-7.2983,-7.2983,-7.2983,-7.2983,-7.2983,-7.2983,-7.2983,-7.2983,-7.2983,-7.2983,-7.2983,-7.2983,-7.2983,-7.2983,-7.2983,-7.2983,-7.2983,-7.2983,-7.2983,-7.2922,-7.2675,-7.2306,-7.2091,-7.169,-7.129,-7.0828,-7.0244,-6.9751,-6.9443,-6.9135,-6.8889,-6.8889,-6.8889,-6.8889,-6.8889,-6.8889,-6.8889,-6.8889,-6.8889,-6.8889,-6.8889,-6.8858,-6.8705,-6.852,-6.8212,-6.7904,-6.7596,-6.7812,-6.7904,-6.7873,-6.7689,-6.7319,-6.7135,-6.7258,-6.7289,-6.6919,-6.6642,-6.6334,-6.5903,-6.5288,-6.5042,-6.4888,-6.4888,-6.4888,-6.4888,-6.4888,-6.4888,-6.4888,-6.4888,-6.4888,-6.4888,-6.4888,-6.4888,-6.4888,-6.4888,-6.4888,-6.4888,-6.4888,-6.4888,-6.4888,-6.4888,-6.4888,-6.5218,-6.57,-6.6491,-6.7137,-6.7935,-6.8896,-6.9526,-6.9751,-6.9655,-6.9526,-6.9526,-6.9042,-6.8319,-6.8666,-6.9334,-6.9334,-6.9237,-6.8896,-6.8419,-6.7834,-6.7427,-7.4307,-7.4676,-7.403,-7.3445,-7.3014,-7.2983,-7.2983,-7.2983,-7.2983,-7.2983,-7.2983,-7.2983,-7.2983,-7.2983,-7.2983,-7.2983,-7.2983,-7.2983,-7.2983,-7.2983,-7.2983,-7.2983,-7.2983,-7.2983,-7.2983,-7.2983,-7.2983,-7.2983,-7.2983,-7.2983,-7.2983,-7.2983,-7.2922,-7.2706,-7.2368,-7.2183,-7.1937,-7.1259,-7.0798,-7.0336,-6.9874,-6.9413,-6.9105,-6.8951,-6.8889,-6.8889,-6.8889,-6.8889,-6.8889,-6.8889,-6.8889,-6.8889,-6.8889,-6.8889,-6.8858,-6.8797,-6.8705,-6.8551,-6.8366,-6.8489,-6.8828,-6.8735,-6.8551,-6.7997,-6.7689,-6.7904,-6.8058,-6.7596,-6.7012,-6.6642,-6.615,-6.5442,-6.5011,-6.4888,-6.4888,-6.4888,-6.4888,-6.4888,-6.4888,-6.4888,-6.4888,-6.4888,-6.4888,-6.4888,-6.4888,-6.4888,-6.4888,-6.4888,-6.4888,-6.4888,-6.4888,-6.4888,-6.4888,-6.4888,-6.5053,-6.5538,-6.6332,-6.7034,-6.7885,-6.8716,-6.9478,-6.9622,-6.9526,-6.943,-6.9285,-6.9042,-6.8468,-6.9091,-6.9526,-6.8912,-6.8436,-6.8468,-6.8119,-6.7427,-6.6962,-7.403,-7.403,-7.3353,-7.3045,-7.2983,-7.2983,-7.2983,-7.2983,-7.2983,-7.2983,-7.2983,-7.2983,-7.2983,-7.2983,-7.2983,-7.2983,-7.2983,-7.2983,-7.2983,-7.2983,-7.2983,-7.2983,-7.2983,-7.2983,-7.2983,-7.2983,-7.2983,-7.2983,-7.2983,-7.2983,-7.2983,-7.2983,-7.2983,-7.2952,-7.286,-7.2706,-7.2491,-7.1967,-7.1629,-7.0952,-7.0274,-6.9751,-6.9474,-6.8982,-6.8889,-6.8889,-6.8889,-6.8889,-6.8889,-6.8889,-6.8889,-6.8889,-6.8889,-6.8889,-6.8889,-6.8889,-6.8889,-6.8797,-6.8766,-6.8766,-6.8858,-6.8889,-6.8797,-6.8643,-6.8458,-6.8643,-6.8735,-6.8458,-6.7627,-6.7012,-6.6457,-6.5842,-6.5165,-6.4888,-6.4888,-6.4888,-6.4888,-6.4888,-6.4888,-6.4888,-6.4888,-6.4888,-6.4888,-6.4888,-6.4888,-6.4888,-6.4888,-6.4888,-6.4888,-6.4888,-6.4888,-6.4888,-6.4888,-6.4888,-6.4888,-6.5406,-6.5938,-6.6701,-6.7548,-6.8535,-6.9526,-6.9478,-6.9237,-6.901,-6.8814,-6.8716,-6.8797,-6.9042,-6.8912,-6.8086,-6.7733,-6.7986,-6.7459,-6.6575,-6.6385,-7.3383,-7.3353,-7.3106,-7.2983,-7.2983,-7.2983,-7.2983,-7.2983,-7.2983,-7.2983,-7.2983,-7.2983,-7.2983,-7.2983,-7.2983,-7.2983,-7.2983,-7.2983,-7.2983,-7.2983,-7.2983,-7.2983,-7.2983,-7.2983,-7.2983,-7.2983,-7.2983,-7.2983,-7.2983,-7.2983,-7.2983,-7.2983,-7.2983,-7.2983,-7.2983,-7.2983,-7.2798,-7.2583,-7.2152,-7.1444,-7.0705,-7.0028,-6.9566,-6.8951,-6.8889,-6.8889,-6.8889,-6.8889,-6.8889,-6.8889,-6.8889,-6.8889,-6.8889,-6.8889,-6.8889,-6.8889,-6.8889,-6.8889,-6.8889,-6.8889,-6.8889,-6.8889,-6.8889,-6.8889,-6.8889,-6.8889,-6.8889,-6.8581,-6.8058,-6.7412,-6.6796,-6.6088,-6.5472,-6.5072,-6.4949,-6.498,-6.4949,-6.498,-6.4888,-6.4888,-6.4888,-6.4888,-6.4888,-6.4888,-6.4888,-6.4888,-6.4888,-6.4888,-6.4888,-6.4888,-6.4888,-6.4888,-6.4888,-6.4888,-6.4888,-6.5187,-6.5538,-6.6385,-6.7292,-6.8286,-6.9204,-6.9042,-6.8797,-6.8518,-6.8419,-6.8419,-6.8518,-6.8748,-6.8518,-6.7986,-6.7783,-6.7866,-6.6994,-6.5969,-6.6258,-7.2983,-7.2983,-7.2983,-7.2983,-7.2983,-7.2983,-7.2983,-7.2983,-7.2983,-7.2983,-7.2983,-7.2983,-7.2983,-7.2983,-7.2983,-7.2983,-7.2983,-7.2983,-7.2983,-7.2983,-7.2983,-7.2983,-7.2983,-7.2983,-7.2983,-7.2983,-7.2983,-7.2983,-7.2983,-7.2983,-7.2983,-7.2983,-7.2983,-7.2983,-7.2983,-7.2983,-7.2983,-7.286,-7.2552,-7.1906,-7.1229,-7.0828,-7.0244,-6.969,-6.9628,-6.9443,-6.9351,-6.9259,-6.9105,-6.8982,-6.8889,-6.8889,-6.8889,-6.8889,-6.8889,-6.8889,-6.8889,-6.8889,-6.8889,-6.8889,-6.8889,-6.8889,-6.8889,-6.8889,-6.8889,-6.8889,-6.8889,-6.8828,-6.8274,-6.772,-6.7165,-6.6611,-6.618,-6.5873,-6.5442,-6.538,-6.5226,-6.5165,-6.5011,-6.4888,-6.4888,-6.4888,-6.4888,-6.4888,-6.4888,-6.4888,-6.4888,-6.4888,-6.4888,-6.4888,-6.4888,-6.4888,-6.4888,-6.4888,-6.4943,-6.5108,-6.546,-6.6649,-6.7446,-6.7986,-6.8567,-6.8518,-6.8319,-6.7935,-6.7935,-6.8119,-6.8319,-6.8567,-6.8468,-6.8136,-6.7733,-6.7221,-6.7375,-6.6596,-6.7014,-7.2983,-7.2983,-7.2983,-7.2983,-7.2983,-7.2983,-7.2983,-7.2983,-7.2983,-7.2983,-7.2983,-7.2983,-7.2983,-7.2983,-7.2983,-7.2983,-7.2983,-7.2983,-7.2983,-7.2983,-7.2983,-7.2983,-7.2983,-7.2983,-7.2983,-7.2983,-7.2983,-7.2983,-7.2983,-7.2983,-7.2983,-7.2983,-7.2983,-7.2983,-7.2983,-7.2983,-7.2983,-7.2983,-7.2922,-7.246,-7.1937,-7.166,-7.1229,-7.0705,-7.0367,-7.0028,-6.9751,-6.9505,-6.9259,-6.8951,-6.8889,-6.8889,-6.8889,-6.8889,-6.8889,-6.8889,-6.8889,-6.8889,-6.8889,-6.8889,-6.8889,-6.8889,-6.8889,-6.8889,-6.8889,-6.8889,-6.8889,-6.8828,-6.8397,-6.8027,-6.7658,-6.7319,-6.695,-6.6488,-6.6027,-6.5657,-6.5503,-6.5165,-6.498,-6.4888,-6.4888,-6.4888,-6.4888,-6.4888,-6.4888,-6.4888,-6.4888,-6.4888,-6.4888,-6.4888,-6.4888,-6.4888,-6.4888,-6.4888,-6.4888,-6.4888,-6.5406,-6.6649,-6.7497,-6.7986,-6.8269,-6.8319,-6.7986,-6.7497,-6.758,-6.7885,-6.8219,-6.8468,-6.7866,-6.7118,-6.6753,-6.6491,-6.6826,-6.7343,-6.7682,-7.2983,-7.2983,-7.2983,-7.2983,-7.2983,-7.2983,-7.2983,-7.2983,-7.2983,-7.2983,-7.2983,-7.2983,-7.2983,-7.2983,-7.2983,-7.2983,-7.2983,-7.2983,-7.2983,-7.2983,-7.2983,-7.2983,-7.2983,-7.2983,-7.2983,-7.2983,-7.2983,-7.2983,-7.2983,-7.2983,-7.2983,-7.2983,-7.2983,-7.2983,-7.2983,-7.2983,-7.2983,-7.2983,-7.2922,-7.2675,-7.2091,-7.1967,-7.169,-7.1013,-7.0644,-7.0336,-7.0028,-6.9782,-6.932,-6.8982,-6.8951,-6.8889,-6.8889,-6.8889,-6.8889,-6.8889,-6.8889,-6.8889,-6.8889,-6.8889,-6.8889,-6.8889,-6.8889,-6.8889,-6.8889,-6.8889,-6.8889,-6.8889,-6.8674,-6.8335,-6.7935,-6.7781,-6.7412,-6.6796,-6.6334,-6.5965,-6.5688,-6.5195,-6.4888,-6.4888,-6.4888,-6.4888,-6.4888,-6.4888,-6.4888,-6.4888,-6.4888,-6.4888,-6.4888,-6.4888,-6.4888,-6.4888,-6.4888,-6.4888,-6.4888,-6.4899,-6.5366,-6.6477,-6.7253,-6.7783,-6.7986,-6.7939,-6.7802,-6.7311,-6.7497,-6.7733,-6.7733,-6.7529,-6.6628,-6.5938,-6.6205,-6.6311,-6.6596,-6.7427,-6.8269,-7.2645,-7.2645,-7.2645,-7.2768,-7.2952,-7.2983,-7.2983,-7.2983,-7.2983,-7.2983,-7.2983,-7.2983,-7.2983,-7.2983,-7.2983,-7.2983,-7.2983,-7.2983,-7.2983,-7.2983,-7.2983,-7.2983,-7.2983,-7.2983,-7.2983,-7.2983,-7.2983,-7.2983,-7.2983,-7.2983,-7.2983,-7.2983,-7.2983,-7.2983,-7.2983,-7.2983,-7.2983,-7.2983,-7.2952,-7.2829,-7.246,-7.2306,-7.2152,-7.1752,-7.1352,-7.0952,-7.0551,-6.9997,-6.9413,-6.9228,-6.9043,-6.892,-6.8889,-6.8889,-6.8889,-6.8889,-6.8889,-6.8889,-6.8889,-6.8889,-6.8889,-6.8889,-6.8889,-6.8889,-6.8889,-6.8889,-6.8889,-6.8889,-6.8889,-6.8674,-6.8335,-6.8212,-6.7966,-6.7381,-6.6796,-6.6427,-6.6057,-6.5596,-6.4888,-6.4888,-6.4888,-6.4888,-6.4888,-6.4888,-6.4888,-6.4888,-6.4888,-6.4888,-6.4888,-6.4888,-6.4888,-6.4888,-6.4795,-6.4672,-6.4714,-6.4801,-6.5417,-6.6384,-6.6836,-6.7117,-6.7245,-6.7135,-6.7157,-6.7228,-6.7414,-6.7395,-6.6982,-6.6544,-6.628,-6.6417,-6.6785,-6.6785,-6.6544,-6.7529,-6.8797,-7.1967,-7.1967,-7.1937,-7.2306,-7.2829,-7.2768,-7.2829,-7.2922,-7.2922,-7.2922,-7.2922,-7.2922,-7.2983,-7.2983,-7.2983,-7.2983,-7.2983,-7.2983,-7.2983,-7.2983,-7.2983,-7.2983,-7.2983,-7.2983,-7.2983,-7.2983,-7.2983,-7.2983,-7.2983,-7.2983,-7.2983,-7.2983,-7.2983,-7.2983,-7.2983,-7.2983,-7.2983,-7.2983,-7.2983,-7.2891,-7.2768,-7.2829,-7.2737,-7.2491,-7.2214,-7.1813,-7.1321,-7.0705,-7.012,-6.969,-6.9197,-6.8982,-6.8889,-6.8889,-6.8889,-6.8889,-6.8889,-6.8889,-6.8889,-6.8889,-6.8889,-6.8889,-6.8889,-6.8889,-6.8889,-6.8889,-6.8889,-6.8889,-6.8889,-6.8889,-6.8797,-6.8766,-6.8735,-6.8058,-6.7381,-6.6981,-6.6611,-6.5996,-6.5165,-6.4888,-6.4888,-6.4888,-6.4888,-6.4888,-6.4888,-6.4888,-6.4888,-6.4888,-6.4888,-6.4888,-6.4888,-6.4857,-6.4703,-6.4426,-6.446,-6.4505,-6.4989,-6.5797,-6.5788,-6.5952,-6.6094,-6.6516,-6.6855,-6.7112,-6.7215,-6.7157,-6.6982,-6.6826,-6.6722,-6.6962,-6.7272,-6.751,-6.7427,-6.8468,-6.9478,-7.169,-7.1229,-7.1198,-7.1352,-7.1475,-7.1506,-7.1783,-7.2244,-7.2275,-7.2275,-7.2306,-7.2768,-7.2983,-7.2983,-7.2983,-7.2983,-7.2983,-7.2983,-7.2983,-7.2983,-7.2983,-7.2983,-7.2983,-7.2983,-7.2983,-7.2983,-7.2983,-7.2983,-7.2983,-7.2983,-7.2983,-7.2983,-7.2983,-7.2983,-7.2983,-7.2983,-7.2983,-7.2983,-7.2983,-7.2983,-7.2983,-7.2983,-7.2983,-7.286,-7.2214,-7.1783,-7.129,-7.0367,-6.972,-6.9259,-6.9043,-6.8889,-6.8889,-6.8889,-6.8889,-6.8889,-6.8889,-6.8889,-6.8889,-6.8889,-6.8889,-6.8889,-6.8889,-6.8889,-6.8889,-6.8889,-6.8889,-6.8889,-6.8889,-6.8889,-6.8889,-6.8889,-6.8889,-6.852,-6.7812,-6.7165,-6.6735,-6.5996,-6.5226,-6.4888,-6.4888,-6.4888,-6.4888,-6.4888,-6.4888,-6.4888,-6.4888,-6.4888,-6.4888,-6.4888,-6.4888,-6.4857,-6.4512,-6.4203,-6.4073,-6.4084,-6.4578,-6.5058,-6.4984,-6.5201,-6.5833,-6.6319,-6.672,-6.7039,-6.7221,-6.7228,-6.7137,-6.7086,-6.7118,-6.7427,-6.7733,-6.8068,-6.8468,-6.9285,-6.9798,-7.089,-7.0521,-7.049,-7.0644,-7.0828,-7.0613,-7.0767,-7.1198,-7.1721,-7.1967,-7.206,-7.2675,-7.2983,-7.2983,-7.2983,-7.2983,-7.2983,-7.2983,-7.2983,-7.2983,-7.2983,-7.2983,-7.2983,-7.2983,-7.2983,-7.2983,-7.2983,-7.2983,-7.2983,-7.2983,-7.2983,-7.2983,-7.2983,-7.2983,-7.2983,-7.2983,-7.2983,-7.2983,-7.2983,-7.2983,-7.2983,-7.2983,-7.2983,-7.2798,-7.1937,-7.1598,-7.1198,-7.0213,-6.9843,-6.9413,-6.9289,-6.9135,-6.9012,-6.8889,-6.8889,-6.8889,-6.8889,-6.8889,-6.8889,-6.8889,-6.8889,-6.8889,-6.8889,-6.8889,-6.8889,-6.8889,-6.8889,-6.8889,-6.8889,-6.8889,-6.8889,-6.8889,-6.8889,-6.8858,-6.8058,-6.7289,-6.6611,-6.5903,-6.5411,-6.5011,-6.4888,-6.4888,-6.4888,-6.4888,-6.4888,-6.4888,-6.4888,-6.4888,-6.4888,-6.4888,-6.4888,-6.4888,-6.4388,-6.3888,-6.3778,-6.3672,-6.3924,-6.4147,-6.4058,-6.4448,-6.5352,-6.6145,-6.6678,-6.7028,-6.7323,-6.7196,-6.7014,-6.7427,-6.7612,-6.7935,-6.8336,-6.8765,-6.9091,-6.9382,-6.9798,-6.9874,-6.9813,-6.9813,-7.012,-7.0613,-7.0059,-6.9843,-6.9967,-7.1136,-7.1783,-7.1844,-7.2552,-7.2829,-7.2706,-7.2614,-7.2768,-7.2798,-7.2829,-7.286,-7.2983,-7.2983,-7.2983,-7.2983,-7.2983,-7.2983,-7.2983,-7.2983,-7.2983,-7.2983,-7.2983,-7.2983,-7.2983,-7.2983,-7.2983,-7.2983,-7.2983,-7.3045,-7.3293,-7.3231,-7.3169,-7.3045,-7.2983,-7.2983,-7.2922,-7.2645,-7.2337,-7.1875,-7.1475,-7.1167,-7.0244,-6.969,-6.9382,-6.9105,-6.8889,-6.8889,-6.8889,-6.8889,-6.8889,-6.8889,-6.8889,-6.8889,-6.8889,-6.8889,-6.8889,-6.8889,-6.8889,-6.8889,-6.8889,-6.8889,-6.8889,-6.8889,-6.8889,-6.8889,-6.8735,-6.8181,-6.7627,-6.7135,-6.6334,-6.5534,-6.5134,-6.4888,-6.4888,-6.4888,-6.4888,-6.4888,-6.4888,-6.4888,-6.4888,-6.4888,-6.4888,-6.4789,-6.4758,-6.4049,-6.3502,-6.3464,-6.3347,-6.3123,-6.3157,-6.3323,-6.3726,-6.4657,-6.5691,-6.6647,-6.6867,-6.7042,-6.6938,-6.6858,-6.7459,-6.8119,-6.8666,-6.9091,-6.9526,-6.9798,-6.9751,-6.9751,-6.9597,-6.9135,-6.9135,-6.9228,-6.9351,-6.9197,-6.9105,-6.9197,-6.9997,-7.0428,-7.0644,-7.1598,-7.2214,-7.2183,-7.1752,-7.1967,-7.2737,-7.2521,-7.2583,-7.2829,-7.2983,-7.2983,-7.2983,-7.2983,-7.3045,-7.2983,-7.2983,-7.3169,-7.3169,-7.3107,-7.3045,-7.2983,-7.3045,-7.3169,-7.3169,-7.3169,-7.3447,-7.3783,-7.3783,-7.357,-7.3262,-7.3107,-7.2983,-7.2645,-7.2306,-7.169,-7.1074,-7.0303,-6.9811,-6.9105,-6.9135,-6.9012,-6.8889,-6.8889,-6.8889,-6.8889,-6.8948,-6.8948,-6.8889,-6.8889,-6.8889,-6.8948,-6.8948,-6.8889,-6.8889,-6.8889,-6.8889,-6.8948,-6.8889,-6.8889,-6.8889,-6.8889,-6.8858,-6.8612,-6.8366,-6.8027,-6.7658,-6.6673,-6.5719,-6.5319,-6.5011,-6.4888,-6.4888,-6.4888,-6.4888,-6.4888,-6.4888,-6.4888,-6.4888,-6.4857,-6.4529,-6.4313,-6.3557,-6.3114,-6.3121,-6.2997,-6.2812,-6.2935,-6.318,-6.3629,-6.4138,-6.5077,-6.6063,-6.6506,-6.671,-6.6882,-6.7279,-6.7917,-6.8567,-6.9188,-6.943,-6.9751,-6.9798,-6.9798,-6.9798,-6.8366,-6.8027,-6.8027,-6.7997,-6.7997,-6.7997,-6.8181,-6.8551,-6.9166,-6.9443,-6.9659,-7.0798,-7.1506,-7.1506,-7.1075,-7.1413,-7.2368,-7.2152,-7.246,-7.2829,-7.2983,-7.2983,-7.2983,-7.3045,-7.3447,-7.3508,-7.3995,-7.4176,-7.3661,-7.357,-7.357,-7.3262,-7.3324,-7.3631,-7.3692,-7.3966,-7.4297,-7.4684,-7.4684,-7.4417,-7.3905,-7.3661,-7.32,-7.2768,-7.2305,-7.1684,-7.1187,-7.0444,-6.9948,-6.9398,-6.9096,-6.901,-6.9006,-6.9182,-6.9123,-6.9065,-6.9123,-6.9151,-6.9006,-6.8948,-6.8948,-6.9006,-6.9325,-6.9499,-6.9065,-6.9065,-6.924,-6.9182,-6.8948,-6.8889,-6.8889,-6.8889,-6.8889,-6.8735,-6.8581,-6.8366,-6.7658,-6.6704,-6.6027,-6.5657,-6.5288,-6.4888,-6.4888,-6.4888,-6.4888,-6.4888,-6.4888,-6.4888,-6.4888,-6.4881,-6.4498,-6.4181,-6.3645,-6.313,-6.3005,-6.2827,-6.2491,-6.2727,-6.3052,-6.3821,-6.4445,-6.4835,-6.5432,-6.607,-6.6795,-6.7465,-6.796,-6.847,-6.8961,-6.9526,-6.9703,-6.9798,-6.9798,-6.9798,-6.9798,-6.6981,-6.6919,-6.695,-6.695,-6.6919,-6.695,-6.7258,-6.7843,-6.8489,-6.8766,-6.892,-7.0059,-7.0582,-7.0767,-7.0675,-7.129,-7.169,-7.169,-7.2183,-7.2798,-7.2983,-7.2983,-7.3045,-7.32,-7.3844,-7.4476,-7.5098,-7.4921,-7.4596,-7.4476,-7.4236,-7.3661,-7.3966,-7.4536,-7.4834,-7.5156,-7.5534,-7.565,-7.565,-7.5624,-7.5156,-7.4564,-7.3872,-7.3381,-7.2915,-7.2529,-7.1999,-7.1437,-7.0843,-7.0322,-6.9588,-6.9472,-6.9472,-6.9672,-6.9646,-6.9588,-6.953,-6.9472,-6.924,-6.9006,-6.9065,-6.9209,-6.9844,-6.9844,-6.9383,-6.9267,-6.9441,-6.9383,-6.9123,-6.8948,-6.8948,-6.8858,-6.8858,-6.8945,-6.8821,-6.8609,-6.7716,-6.6853,-6.6447,-6.6016,-6.5442,-6.498,-6.4888,-6.4888,-6.4888,-6.4888,-6.4888,-6.4888,-6.4912,-6.4899,-6.473,-6.4586,-6.4319,-6.3763,-6.3161,-6.272,-6.2383,-6.2597,-6.3068,-6.395,-6.4591,-6.4675,-6.5093,-6.5932,-6.6676,-6.7523,-6.8275,-6.8846,-6.9379,-6.9798,-6.9798,-6.9798,-6.9798,-6.9798,-6.9798,-6.6919,-6.6919,-6.6919,-6.6888,-6.6888,-6.6888,-6.6981,-6.7196,-6.7812,-6.812,-6.8335,-6.8858,-6.9505,-7.0059,-6.9474,-7.0059,-7.1444,-7.1352,-7.2029,-7.2829,-7.2706,-7.2829,-7.32,-7.3596,-7.4593,-7.5269,-7.5701,-7.5592,-7.5391,-7.5391,-7.5359,-7.5066,-7.5066,-7.5417,-7.5475,-7.588,-7.6167,-7.6427,-7.6597,-7.654,-7.6289,-7.5528,-7.4573,-7.3836,-7.3147,-7.2454,-7.1792,-7.1162,-7.0816,-7.0564,-7.0388,-7.0243,-7.0243,-7.0356,-7.03,-7.0104,-7.0047,-6.9729,-6.9499,-6.9267,-6.9267,-6.9729,-7.0098,-7.0098,-6.9698,-6.9499,-6.9614,-6.9729,-6.9441,-6.9065,-6.8917,-6.8797,-6.8766,-6.8965,-6.8958,-6.8506,-6.7861,-6.7378,-6.7045,-6.6208,-6.5349,-6.5072,-6.4888,-6.4888,-6.4888,-6.4888,-6.4888,-6.4888,-6.4943,-6.4899,-6.4932,-6.4914,-6.4919,-6.4111,-6.3336,-6.283,-6.2531,-6.2695,-6.2873,-6.3405,-6.3902,-6.4192,-6.477,-6.5853,-6.6745,-6.7623,-6.8338,-6.9217,-6.9508,-6.9798,-6.9798,-6.9798,-6.9798,-6.9798,-6.9798]}]]